<?xml version="1.0" encoding="UTF-8" standalone="no" ?>
<gpx xmlns="http://www.topografix.com/GPX/1/1" xmlns:xsi="http://www.w3.org/2001/XMLSchema-instance" xsi:schemaLocation="http://www.topografix.com/GPX/1/1 http://www.topografix.com/GPX/1/1/gpx.xsd" version="1.1" creator="VisuGPX - https://www.visugpx.com">
  <metadata>
    <name>fouillouse tour du breck</name>
    <desc><![CDATA[fouillouse tour du breck]]></desc>
  </metadata>
  <trk>
    <name><![CDATA[fouillouse-tour-du-breck]]></name>
    <trkseg>
      <trkpt lat="44.52511" lon="6.7986">
        <ele>2335.66</ele>
        <time>2015-04-06T07:20:47Z</time>
      </trkpt>
      <trkpt lat="44.5114" lon="6.83883">
        <ele>2335.66</ele>
        <time>2015-04-06T07:20:49Z</time>
      </trkpt>
      <trkpt lat="44.51137" lon="6.83875">
        <ele>2334.22</ele>
        <time>2015-04-06T07:21:04Z</time>
      </trkpt>
      <trkpt lat="44.51135" lon="6.83872">
        <ele>2336.62</ele>
        <time>2015-04-06T07:21:15Z</time>
      </trkpt>
      <trkpt lat="44.51136" lon="6.83868">
        <ele>2338.06</ele>
        <time>2015-04-06T07:21:17Z</time>
      </trkpt>
      <trkpt lat="44.51137" lon="6.83866">
        <ele>2340.95</ele>
        <time>2015-04-06T07:21:24Z</time>
      </trkpt>
      <trkpt lat="44.51136" lon="6.83867">
        <ele>2343.83</ele>
        <time>2015-04-06T07:21:29Z</time>
      </trkpt>
      <trkpt lat="44.51136" lon="6.83867">
        <ele>2344.31</ele>
        <time>2015-04-06T07:21:30Z</time>
      </trkpt>
      <trkpt lat="44.51137" lon="6.83868">
        <ele>2348.16</ele>
        <time>2015-04-06T07:21:39Z</time>
      </trkpt>
      <trkpt lat="44.51135" lon="6.83868">
        <ele>2351.52</ele>
        <time>2015-04-06T07:21:49Z</time>
      </trkpt>
      <trkpt lat="44.51134" lon="6.83872">
        <ele>2354.41</ele>
        <time>2015-04-06T07:22:01Z</time>
      </trkpt>
      <trkpt lat="44.51135" lon="6.83875">
        <ele>2357.77</ele>
        <time>2015-04-06T07:22:21Z</time>
      </trkpt>
      <trkpt lat="44.51135" lon="6.8388">
        <ele>2360.65</ele>
        <time>2015-04-06T07:22:34Z</time>
      </trkpt>
      <trkpt lat="44.51134" lon="6.8388">
        <ele>2360.65</ele>
        <time>2015-04-06T07:22:35Z</time>
      </trkpt>
      <trkpt lat="44.51137" lon="6.83889">
        <ele>2361.62</ele>
        <time>2015-04-06T07:22:49Z</time>
      </trkpt>
      <trkpt lat="44.51142" lon="6.83896">
        <ele>2363.54</ele>
        <time>2015-04-06T07:23:05Z</time>
      </trkpt>
      <trkpt lat="44.5115" lon="6.83901">
        <ele>2366.42</ele>
        <time>2015-04-06T07:23:22Z</time>
      </trkpt>
      <trkpt lat="44.51158" lon="6.83903">
        <ele>2369.31</ele>
        <time>2015-04-06T07:23:47Z</time>
      </trkpt>
      <trkpt lat="44.51165" lon="6.83906">
        <ele>2372.19</ele>
        <time>2015-04-06T07:24:05Z</time>
      </trkpt>
      <trkpt lat="44.51168" lon="6.83908">
        <ele>2373.15</ele>
        <time>2015-04-06T07:24:20Z</time>
      </trkpt>
      <trkpt lat="44.51174" lon="6.83912">
        <ele>2375.07</ele>
        <time>2015-04-06T07:24:33Z</time>
      </trkpt>
      <trkpt lat="44.51178" lon="6.83917">
        <ele>2377.48</ele>
        <time>2015-04-06T07:24:51Z</time>
      </trkpt>
      <trkpt lat="44.51182" lon="6.83923">
        <ele>2380.36</ele>
        <time>2015-04-06T07:25:07Z</time>
      </trkpt>
      <trkpt lat="44.51185" lon="6.8393">
        <ele>2382.76</ele>
        <time>2015-04-06T07:25:23Z</time>
      </trkpt>
      <trkpt lat="44.51188" lon="6.83943">
        <ele>2386.13</ele>
        <time>2015-04-06T07:25:43Z</time>
      </trkpt>
      <trkpt lat="44.51194" lon="6.83947">
        <ele>2388.05</ele>
        <time>2015-04-06T07:26:00Z</time>
      </trkpt>
      <trkpt lat="44.51199" lon="6.83949">
        <ele>2390.94</ele>
        <time>2015-04-06T07:26:17Z</time>
      </trkpt>
      <trkpt lat="44.51206" lon="6.8395">
        <ele>2392.86</ele>
        <time>2015-04-06T07:26:33Z</time>
      </trkpt>
      <trkpt lat="44.51212" lon="6.8395">
        <ele>2395.26</ele>
        <time>2015-04-06T07:26:47Z</time>
      </trkpt>
      <trkpt lat="44.51214" lon="6.83955">
        <ele>2397.67</ele>
        <time>2015-04-06T07:27:01Z</time>
      </trkpt>
      <trkpt lat="44.51215" lon="6.83962">
        <ele>2400.07</ele>
        <time>2015-04-06T07:27:18Z</time>
      </trkpt>
      <trkpt lat="44.51216" lon="6.83972">
        <ele>2402.47</ele>
        <time>2015-04-06T07:27:34Z</time>
      </trkpt>
      <trkpt lat="44.51221" lon="6.83978">
        <ele>2404.88</ele>
        <time>2015-04-06T07:27:50Z</time>
      </trkpt>
      <trkpt lat="44.51225" lon="6.83978">
        <ele>2407.28</ele>
        <time>2015-04-06T07:28:05Z</time>
      </trkpt>
      <trkpt lat="44.51227" lon="6.83987">
        <ele>2409.68</ele>
        <time>2015-04-06T07:28:21Z</time>
      </trkpt>
      <trkpt lat="44.51227" lon="6.83999">
        <ele>2413.05</ele>
        <time>2015-04-06T07:28:39Z</time>
      </trkpt>
      <trkpt lat="44.51225" lon="6.8401">
        <ele>2415.45</ele>
        <time>2015-04-06T07:28:55Z</time>
      </trkpt>
      <trkpt lat="44.51219" lon="6.84014">
        <ele>2417.85</ele>
        <time>2015-04-06T07:29:09Z</time>
      </trkpt>
      <trkpt lat="44.51213" lon="6.84019">
        <ele>2419.78</ele>
        <time>2015-04-06T07:29:26Z</time>
      </trkpt>
      <trkpt lat="44.51209" lon="6.84025">
        <ele>2422.66</ele>
        <time>2015-04-06T07:29:41Z</time>
      </trkpt>
      <trkpt lat="44.51206" lon="6.84032">
        <ele>2423.62</ele>
        <time>2015-04-06T07:29:56Z</time>
      </trkpt>
      <trkpt lat="44.51206" lon="6.8404">
        <ele>2423.62</ele>
        <time>2015-04-06T07:30:15Z</time>
      </trkpt>
      <trkpt lat="44.51207" lon="6.84041">
        <ele>2423.62</ele>
        <time>2015-04-06T07:30:34Z</time>
      </trkpt>
      <trkpt lat="44.51207" lon="6.84041">
        <ele>2423.62</ele>
        <time>2015-04-06T07:30:55Z</time>
      </trkpt>
      <trkpt lat="44.51205" lon="6.84041">
        <ele>2423.62</ele>
        <time>2015-04-06T07:31:09Z</time>
      </trkpt>
      <trkpt lat="44.51207" lon="6.84042">
        <ele>2422.66</ele>
        <time>2015-04-06T07:31:40Z</time>
      </trkpt>
      <trkpt lat="44.51207" lon="6.84047">
        <ele>2424.1</ele>
        <time>2015-04-06T07:31:51Z</time>
      </trkpt>
      <trkpt lat="44.51205" lon="6.84063">
        <ele>2426.99</ele>
        <time>2015-04-06T07:32:10Z</time>
      </trkpt>
      <trkpt lat="44.51209" lon="6.84074">
        <ele>2428.91</ele>
        <time>2015-04-06T07:32:25Z</time>
      </trkpt>
      <trkpt lat="44.51212" lon="6.84087">
        <ele>2430.35</ele>
        <time>2015-04-06T07:32:40Z</time>
      </trkpt>
      <trkpt lat="44.51216" lon="6.84099">
        <ele>2431.79</ele>
        <time>2015-04-06T07:32:54Z</time>
      </trkpt>
      <trkpt lat="44.5122" lon="6.84113">
        <ele>2433.23</ele>
        <time>2015-04-06T07:33:09Z</time>
      </trkpt>
      <trkpt lat="44.51223" lon="6.84126">
        <ele>2435.16</ele>
        <time>2015-04-06T07:33:27Z</time>
      </trkpt>
      <trkpt lat="44.51225" lon="6.84142">
        <ele>2437.08</ele>
        <time>2015-04-06T07:33:46Z</time>
      </trkpt>
      <trkpt lat="44.51228" lon="6.84158">
        <ele>2439.96</ele>
        <time>2015-04-06T07:34:07Z</time>
      </trkpt>
      <trkpt lat="44.51229" lon="6.84172">
        <ele>2442.37</ele>
        <time>2015-04-06T07:34:25Z</time>
      </trkpt>
      <trkpt lat="44.51231" lon="6.84186">
        <ele>2444.77</ele>
        <time>2015-04-06T07:34:44Z</time>
      </trkpt>
      <trkpt lat="44.51231" lon="6.84196">
        <ele>2447.65</ele>
        <time>2015-04-06T07:35:01Z</time>
      </trkpt>
      <trkpt lat="44.51232" lon="6.84204">
        <ele>2450.54</ele>
        <time>2015-04-06T07:35:18Z</time>
      </trkpt>
      <trkpt lat="44.51236" lon="6.84214">
        <ele>2453.42</ele>
        <time>2015-04-06T07:35:35Z</time>
      </trkpt>
      <trkpt lat="44.5124" lon="6.84223">
        <ele>2455.34</ele>
        <time>2015-04-06T07:35:49Z</time>
      </trkpt>
      <trkpt lat="44.51245" lon="6.84235">
        <ele>2457.27</ele>
        <time>2015-04-06T07:36:06Z</time>
      </trkpt>
      <trkpt lat="44.5125" lon="6.84249">
        <ele>2459.67</ele>
        <time>2015-04-06T07:36:25Z</time>
      </trkpt>
      <trkpt lat="44.51254" lon="6.84258">
        <ele>2461.59</ele>
        <time>2015-04-06T07:36:39Z</time>
      </trkpt>
      <trkpt lat="44.51259" lon="6.84271">
        <ele>2463.04</ele>
        <time>2015-04-06T07:36:55Z</time>
      </trkpt>
      <trkpt lat="44.51264" lon="6.84281">
        <ele>2465.44</ele>
        <time>2015-04-06T07:37:10Z</time>
      </trkpt>
      <trkpt lat="44.51268" lon="6.84293">
        <ele>2468.8</ele>
        <time>2015-04-06T07:37:31Z</time>
      </trkpt>
      <trkpt lat="44.51271" lon="6.84304">
        <ele>2471.69</ele>
        <time>2015-04-06T07:37:49Z</time>
      </trkpt>
      <trkpt lat="44.51272" lon="6.84314">
        <ele>2474.09</ele>
        <time>2015-04-06T07:38:05Z</time>
      </trkpt>
      <trkpt lat="44.51276" lon="6.84326">
        <ele>2475.53</ele>
        <time>2015-04-06T07:38:22Z</time>
      </trkpt>
      <trkpt lat="44.51278" lon="6.84338">
        <ele>2476.97</ele>
        <time>2015-04-06T07:38:36Z</time>
      </trkpt>
      <trkpt lat="44.51282" lon="6.84351">
        <ele>2478.9</ele>
        <time>2015-04-06T07:38:53Z</time>
      </trkpt>
      <trkpt lat="44.51286" lon="6.84361">
        <ele>2481.3</ele>
        <time>2015-04-06T07:39:10Z</time>
      </trkpt>
      <trkpt lat="44.5129" lon="6.84371">
        <ele>2483.7</ele>
        <time>2015-04-06T07:39:25Z</time>
      </trkpt>
      <trkpt lat="44.51291" lon="6.84385">
        <ele>2486.59</ele>
        <time>2015-04-06T07:39:46Z</time>
      </trkpt>
      <trkpt lat="44.51292" lon="6.844">
        <ele>2488.51</ele>
        <time>2015-04-06T07:40:04Z</time>
      </trkpt>
      <trkpt lat="44.51294" lon="6.84411">
        <ele>2489.47</ele>
        <time>2015-04-06T07:40:19Z</time>
      </trkpt>
      <trkpt lat="44.51295" lon="6.84416">
        <ele>2490.43</ele>
        <time>2015-04-06T07:40:36Z</time>
      </trkpt>
      <trkpt lat="44.51294" lon="6.84428">
        <ele>2492.36</ele>
        <time>2015-04-06T07:40:53Z</time>
      </trkpt>
      <trkpt lat="44.51293" lon="6.84439">
        <ele>2495.72</ele>
        <time>2015-04-06T07:41:10Z</time>
      </trkpt>
      <trkpt lat="44.51289" lon="6.8445">
        <ele>2497.64</ele>
        <time>2015-04-06T07:41:28Z</time>
      </trkpt>
      <trkpt lat="44.51286" lon="6.84461">
        <ele>2500.05</ele>
        <time>2015-04-06T07:41:48Z</time>
      </trkpt>
      <trkpt lat="44.51281" lon="6.84471">
        <ele>2502.45</ele>
        <time>2015-04-06T07:42:05Z</time>
      </trkpt>
      <trkpt lat="44.51275" lon="6.84478">
        <ele>2504.85</ele>
        <time>2015-04-06T07:42:23Z</time>
      </trkpt>
      <trkpt lat="44.5127" lon="6.84487">
        <ele>2507.74</ele>
        <time>2015-04-06T07:42:46Z</time>
      </trkpt>
      <trkpt lat="44.51263" lon="6.84494">
        <ele>2510.14</ele>
        <time>2015-04-06T07:43:03Z</time>
      </trkpt>
      <trkpt lat="44.51258" lon="6.84504">
        <ele>2512.54</ele>
        <time>2015-04-06T07:43:22Z</time>
      </trkpt>
      <trkpt lat="44.51252" lon="6.84511">
        <ele>2515.43</ele>
        <time>2015-04-06T07:43:41Z</time>
      </trkpt>
      <trkpt lat="44.51244" lon="6.84516">
        <ele>2518.31</ele>
        <time>2015-04-06T07:44:00Z</time>
      </trkpt>
      <trkpt lat="44.51239" lon="6.8452">
        <ele>2520.23</ele>
        <time>2015-04-06T07:44:17Z</time>
      </trkpt>
      <trkpt lat="44.51231" lon="6.84524">
        <ele>2523.12</ele>
        <time>2015-04-06T07:44:35Z</time>
      </trkpt>
      <trkpt lat="44.51226" lon="6.84526">
        <ele>2525.04</ele>
        <time>2015-04-06T07:44:51Z</time>
      </trkpt>
      <trkpt lat="44.5122" lon="6.84531">
        <ele>2526.48</ele>
        <time>2015-04-06T07:45:06Z</time>
      </trkpt>
      <trkpt lat="44.51214" lon="6.84534">
        <ele>2528.89</ele>
        <time>2015-04-06T07:45:25Z</time>
      </trkpt>
      <trkpt lat="44.51207" lon="6.84538">
        <ele>2532.25</ele>
        <time>2015-04-06T07:45:45Z</time>
      </trkpt>
      <trkpt lat="44.51201" lon="6.84542">
        <ele>2534.17</ele>
        <time>2015-04-06T07:46:01Z</time>
      </trkpt>
      <trkpt lat="44.51194" lon="6.84546">
        <ele>2536.58</ele>
        <time>2015-04-06T07:46:19Z</time>
      </trkpt>
      <trkpt lat="44.51188" lon="6.84551">
        <ele>2538.98</ele>
        <time>2015-04-06T07:46:36Z</time>
      </trkpt>
      <trkpt lat="44.51183" lon="6.84553">
        <ele>2540.42</ele>
        <time>2015-04-06T07:46:50Z</time>
      </trkpt>
      <trkpt lat="44.51179" lon="6.84554">
        <ele>2542.82</ele>
        <time>2015-04-06T07:47:08Z</time>
      </trkpt>
      <trkpt lat="44.51175" lon="6.84556">
        <ele>2543.79</ele>
        <time>2015-04-06T07:47:21Z</time>
      </trkpt>
      <trkpt lat="44.51171" lon="6.84559">
        <ele>2544.75</ele>
        <time>2015-04-06T07:47:34Z</time>
      </trkpt>
      <trkpt lat="44.51166" lon="6.8456">
        <ele>2545.71</ele>
        <time>2015-04-06T07:47:49Z</time>
      </trkpt>
      <trkpt lat="44.5116" lon="6.84563">
        <ele>2546.67</ele>
        <time>2015-04-06T07:48:05Z</time>
      </trkpt>
      <trkpt lat="44.51155" lon="6.84569">
        <ele>2548.11</ele>
        <time>2015-04-06T07:48:20Z</time>
      </trkpt>
      <trkpt lat="44.51151" lon="6.84573">
        <ele>2549.55</ele>
        <time>2015-04-06T07:48:35Z</time>
      </trkpt>
      <trkpt lat="44.51148" lon="6.84579">
        <ele>2551.48</ele>
        <time>2015-04-06T07:48:50Z</time>
      </trkpt>
      <trkpt lat="44.51143" lon="6.84585">
        <ele>2554.36</ele>
        <time>2015-04-06T07:49:07Z</time>
      </trkpt>
      <trkpt lat="44.5114" lon="6.84592">
        <ele>2555.8</ele>
        <time>2015-04-06T07:49:22Z</time>
      </trkpt>
      <trkpt lat="44.51138" lon="6.84597">
        <ele>2557.73</ele>
        <time>2015-04-06T07:49:37Z</time>
      </trkpt>
      <trkpt lat="44.51136" lon="6.84603">
        <ele>2559.65</ele>
        <time>2015-04-06T07:49:52Z</time>
      </trkpt>
      <trkpt lat="44.51136" lon="6.84608">
        <ele>2561.09</ele>
        <time>2015-04-06T07:50:05Z</time>
      </trkpt>
      <trkpt lat="44.51134" lon="6.84613">
        <ele>2563.01</ele>
        <time>2015-04-06T07:50:19Z</time>
      </trkpt>
      <trkpt lat="44.51132" lon="6.84618">
        <ele>2563.97</ele>
        <time>2015-04-06T07:50:33Z</time>
      </trkpt>
      <trkpt lat="44.51132" lon="6.84619">
        <ele>2564.93</ele>
        <time>2015-04-06T07:50:47Z</time>
      </trkpt>
      <trkpt lat="44.51133" lon="6.84621">
        <ele>2564.93</ele>
        <time>2015-04-06T07:51:03Z</time>
      </trkpt>
      <trkpt lat="44.51133" lon="6.84618">
        <ele>2564.93</ele>
        <time>2015-04-06T07:51:24Z</time>
      </trkpt>
      <trkpt lat="44.51136" lon="6.8462">
        <ele>2565.42</ele>
        <time>2015-04-06T07:51:38Z</time>
      </trkpt>
      <trkpt lat="44.51134" lon="6.84621">
        <ele>2565.42</ele>
        <time>2015-04-06T07:51:55Z</time>
      </trkpt>
      <trkpt lat="44.51135" lon="6.84624">
        <ele>2565.42</ele>
        <time>2015-04-06T07:52:07Z</time>
      </trkpt>
      <trkpt lat="44.51136" lon="6.84627">
        <ele>2564.45</ele>
        <time>2015-04-06T07:52:18Z</time>
      </trkpt>
      <trkpt lat="44.51136" lon="6.84629">
        <ele>2565.9</ele>
        <time>2015-04-06T07:52:36Z</time>
      </trkpt>
      <trkpt lat="44.51136" lon="6.84631">
        <ele>2564.93</ele>
        <time>2015-04-06T07:52:44Z</time>
      </trkpt>
      <trkpt lat="44.51135" lon="6.84629">
        <ele>2564.45</ele>
        <time>2015-04-06T07:53:02Z</time>
      </trkpt>
      <trkpt lat="44.51138" lon="6.84624">
        <ele>2563.97</ele>
        <time>2015-04-06T07:53:29Z</time>
      </trkpt>
      <trkpt lat="44.51138" lon="6.84622">
        <ele>2560.13</ele>
        <time>2015-04-06T07:53:55Z</time>
      </trkpt>
      <trkpt lat="44.51138" lon="6.84622">
        <ele>2563.49</ele>
        <time>2015-04-06T07:53:56Z</time>
      </trkpt>
      <trkpt lat="44.51136" lon="6.84623">
        <ele>2563.49</ele>
        <time>2015-04-06T07:54:16Z</time>
      </trkpt>
      <trkpt lat="44.51136" lon="6.84624">
        <ele>2564.45</ele>
        <time>2015-04-06T07:54:41Z</time>
      </trkpt>
      <trkpt lat="44.51136" lon="6.84623">
        <ele>2562.53</ele>
        <time>2015-04-06T07:54:44Z</time>
      </trkpt>
      <trkpt lat="44.51136" lon="6.84624">
        <ele>2563.97</ele>
        <time>2015-04-06T07:54:52Z</time>
      </trkpt>
      <trkpt lat="44.51135" lon="6.84625">
        <ele>2563.01</ele>
        <time>2015-04-06T07:55:18Z</time>
      </trkpt>
      <trkpt lat="44.51136" lon="6.84628">
        <ele>2563.01</ele>
        <time>2015-04-06T07:55:40Z</time>
      </trkpt>
      <trkpt lat="44.51135" lon="6.84628">
        <ele>2562.05</ele>
        <time>2015-04-06T07:56:03Z</time>
      </trkpt>
      <trkpt lat="44.51136" lon="6.84629">
        <ele>2565.42</ele>
        <time>2015-04-06T07:56:08Z</time>
      </trkpt>
      <trkpt lat="44.51139" lon="6.84631">
        <ele>2562.05</ele>
        <time>2015-04-06T07:56:36Z</time>
      </trkpt>
      <trkpt lat="44.51138" lon="6.84629">
        <ele>2562.05</ele>
        <time>2015-04-06T07:57:03Z</time>
      </trkpt>
      <trkpt lat="44.51137" lon="6.84632">
        <ele>2559.65</ele>
        <time>2015-04-06T07:57:20Z</time>
      </trkpt>
      <trkpt lat="44.51137" lon="6.84632">
        <ele>2563.49</ele>
        <time>2015-04-06T07:57:23Z</time>
      </trkpt>
      <trkpt lat="44.51137" lon="6.84631">
        <ele>2563.49</ele>
        <time>2015-04-06T07:57:24Z</time>
      </trkpt>
      <trkpt lat="44.51137" lon="6.84631">
        <ele>2558.21</ele>
        <time>2015-04-06T07:57:25Z</time>
      </trkpt>
      <trkpt lat="44.51137" lon="6.84631">
        <ele>2561.57</ele>
        <time>2015-04-06T07:57:26Z</time>
      </trkpt>
      <trkpt lat="44.51138" lon="6.84631">
        <ele>2566.86</ele>
        <time>2015-04-06T07:57:29Z</time>
      </trkpt>
      <trkpt lat="44.51138" lon="6.84631">
        <ele>2562.05</ele>
        <time>2015-04-06T07:57:30Z</time>
      </trkpt>
      <trkpt lat="44.51138" lon="6.8463">
        <ele>2559.17</ele>
        <time>2015-04-06T07:57:36Z</time>
      </trkpt>
      <trkpt lat="44.51139" lon="6.84629">
        <ele>2562.53</ele>
        <time>2015-04-06T07:57:53Z</time>
      </trkpt>
      <trkpt lat="44.51138" lon="6.8463">
        <ele>2561.09</ele>
        <time>2015-04-06T07:58:02Z</time>
      </trkpt>
      <trkpt lat="44.51139" lon="6.84627">
        <ele>2560.61</ele>
        <time>2015-04-06T07:58:19Z</time>
      </trkpt>
      <trkpt lat="44.51139" lon="6.84625">
        <ele>2563.97</ele>
        <time>2015-04-06T07:58:29Z</time>
      </trkpt>
      <trkpt lat="44.5114" lon="6.84625">
        <ele>2557.73</ele>
        <time>2015-04-06T07:58:30Z</time>
      </trkpt>
      <trkpt lat="44.5114" lon="6.84626">
        <ele>2561.09</ele>
        <time>2015-04-06T07:58:32Z</time>
      </trkpt>
      <trkpt lat="44.51139" lon="6.84624">
        <ele>2559.65</ele>
        <time>2015-04-06T07:58:39Z</time>
      </trkpt>
      <trkpt lat="44.5114" lon="6.84626">
        <ele>2562.05</ele>
        <time>2015-04-06T07:58:41Z</time>
      </trkpt>
      <trkpt lat="44.5114" lon="6.84626">
        <ele>2560.61</ele>
        <time>2015-04-06T07:58:45Z</time>
      </trkpt>
      <trkpt lat="44.51139" lon="6.84624">
        <ele>2561.09</ele>
        <time>2015-04-06T07:59:01Z</time>
      </trkpt>
      <trkpt lat="44.51139" lon="6.84622">
        <ele>2562.53</ele>
        <time>2015-04-06T07:59:10Z</time>
      </trkpt>
      <trkpt lat="44.51137" lon="6.84619">
        <ele>2560.13</ele>
        <time>2015-04-06T07:59:22Z</time>
      </trkpt>
      <trkpt lat="44.51136" lon="6.84621">
        <ele>2560.13</ele>
        <time>2015-04-06T07:59:55Z</time>
      </trkpt>
      <trkpt lat="44.51135" lon="6.84621">
        <ele>2560.13</ele>
        <time>2015-04-06T08:00:29Z</time>
      </trkpt>
      <trkpt lat="44.51136" lon="6.84624">
        <ele>2561.57</ele>
        <time>2015-04-06T08:00:44Z</time>
      </trkpt>
      <trkpt lat="44.51137" lon="6.84627">
        <ele>2560.61</ele>
        <time>2015-04-06T08:01:02Z</time>
      </trkpt>
      <trkpt lat="44.51136" lon="6.84625">
        <ele>2562.05</ele>
        <time>2015-04-06T08:01:13Z</time>
      </trkpt>
      <trkpt lat="44.51135" lon="6.84625">
        <ele>2562.05</ele>
        <time>2015-04-06T08:01:36Z</time>
      </trkpt>
      <trkpt lat="44.51136" lon="6.84621">
        <ele>2561.57</ele>
        <time>2015-04-06T08:02:04Z</time>
      </trkpt>
      <trkpt lat="44.51135" lon="6.8462">
        <ele>2561.57</ele>
        <time>2015-04-06T08:02:32Z</time>
      </trkpt>
      <trkpt lat="44.51133" lon="6.84619">
        <ele>2560.13</ele>
        <time>2015-04-06T08:02:51Z</time>
      </trkpt>
      <trkpt lat="44.51134" lon="6.84623">
        <ele>2558.69</ele>
        <time>2015-04-06T08:03:08Z</time>
      </trkpt>
      <trkpt lat="44.51132" lon="6.8462">
        <ele>2558.69</ele>
        <time>2015-04-06T08:03:25Z</time>
      </trkpt>
      <trkpt lat="44.51132" lon="6.84619">
        <ele>2558.69</ele>
        <time>2015-04-06T08:03:52Z</time>
      </trkpt>
      <trkpt lat="44.51133" lon="6.8462">
        <ele>2558.69</ele>
        <time>2015-04-06T08:04:04Z</time>
      </trkpt>
      <trkpt lat="44.51139" lon="6.84605">
        <ele>2554.84</ele>
        <time>2015-04-06T08:04:12Z</time>
      </trkpt>
      <trkpt lat="44.51144" lon="6.84594">
        <ele>2551</ele>
        <time>2015-04-06T08:04:17Z</time>
      </trkpt>
      <trkpt lat="44.51149" lon="6.84585">
        <ele>2547.63</ele>
        <time>2015-04-06T08:04:21Z</time>
      </trkpt>
      <trkpt lat="44.51154" lon="6.84576">
        <ele>2544.27</ele>
        <time>2015-04-06T08:04:26Z</time>
      </trkpt>
      <trkpt lat="44.51155" lon="6.84574">
        <ele>2544.27</ele>
        <time>2015-04-06T08:04:27Z</time>
      </trkpt>
      <trkpt lat="44.5116" lon="6.84567">
        <ele>2541.38</ele>
        <time>2015-04-06T08:04:33Z</time>
      </trkpt>
      <trkpt lat="44.51167" lon="6.8456">
        <ele>2538.5</ele>
        <time>2015-04-06T08:04:48Z</time>
      </trkpt>
      <trkpt lat="44.51174" lon="6.84557">
        <ele>2538.02</ele>
        <time>2015-04-06T08:05:02Z</time>
      </trkpt>
      <trkpt lat="44.51175" lon="6.84558">
        <ele>2536.58</ele>
        <time>2015-04-06T08:05:05Z</time>
      </trkpt>
      <trkpt lat="44.51179" lon="6.84554">
        <ele>2536.1</ele>
        <time>2015-04-06T08:05:17Z</time>
      </trkpt>
      <trkpt lat="44.51187" lon="6.8455">
        <ele>2533.21</ele>
        <time>2015-04-06T08:05:24Z</time>
      </trkpt>
      <trkpt lat="44.51191" lon="6.84547">
        <ele>2531.77</ele>
        <time>2015-04-06T08:05:36Z</time>
      </trkpt>
      <trkpt lat="44.51203" lon="6.84541">
        <ele>2528.89</ele>
        <time>2015-04-06T08:05:44Z</time>
      </trkpt>
      <trkpt lat="44.51215" lon="6.84536">
        <ele>2525.52</ele>
        <time>2015-04-06T08:05:49Z</time>
      </trkpt>
      <trkpt lat="44.51223" lon="6.8453">
        <ele>2522.16</ele>
        <time>2015-04-06T08:05:54Z</time>
      </trkpt>
      <trkpt lat="44.51233" lon="6.84525">
        <ele>2519.75</ele>
        <time>2015-04-06T08:05:59Z</time>
      </trkpt>
      <trkpt lat="44.51238" lon="6.84524">
        <ele>2517.83</ele>
        <time>2015-04-06T08:06:01Z</time>
      </trkpt>
      <trkpt lat="44.51244" lon="6.84521">
        <ele>2516.39</ele>
        <time>2015-04-06T08:06:05Z</time>
      </trkpt>
      <trkpt lat="44.51249" lon="6.8452">
        <ele>2516.39</ele>
        <time>2015-04-06T08:06:19Z</time>
      </trkpt>
      <trkpt lat="44.51249" lon="6.84522">
        <ele>2516.39</ele>
        <time>2015-04-06T08:06:46Z</time>
      </trkpt>
      <trkpt lat="44.51248" lon="6.84521">
        <ele>2516.39</ele>
        <time>2015-04-06T08:07:16Z</time>
      </trkpt>
      <trkpt lat="44.51249" lon="6.84518">
        <ele>2516.39</ele>
        <time>2015-04-06T08:07:48Z</time>
      </trkpt>
      <trkpt lat="44.51248" lon="6.84519">
        <ele>2516.39</ele>
        <time>2015-04-06T08:08:04Z</time>
      </trkpt>
      <trkpt lat="44.51249" lon="6.84518">
        <ele>2516.39</ele>
        <time>2015-04-06T08:08:32Z</time>
      </trkpt>
      <trkpt lat="44.51249" lon="6.84521">
        <ele>2515.91</ele>
        <time>2015-04-06T08:08:51Z</time>
      </trkpt>
      <trkpt lat="44.5125" lon="6.84522">
        <ele>2515.91</ele>
        <time>2015-04-06T08:09:11Z</time>
      </trkpt>
      <trkpt lat="44.5125" lon="6.84523">
        <ele>2515.43</ele>
        <time>2015-04-06T08:09:33Z</time>
      </trkpt>
      <trkpt lat="44.51249" lon="6.8452">
        <ele>2515.43</ele>
        <time>2015-04-06T08:09:57Z</time>
      </trkpt>
      <trkpt lat="44.51252" lon="6.84521">
        <ele>2515.43</ele>
        <time>2015-04-06T08:10:17Z</time>
      </trkpt>
      <trkpt lat="44.51253" lon="6.84519">
        <ele>2515.43</ele>
        <time>2015-04-06T08:10:33Z</time>
      </trkpt>
      <trkpt lat="44.51259" lon="6.8452">
        <ele>2515.91</ele>
        <time>2015-04-06T08:10:47Z</time>
      </trkpt>
      <trkpt lat="44.51264" lon="6.8452">
        <ele>2517.83</ele>
        <time>2015-04-06T08:11:00Z</time>
      </trkpt>
      <trkpt lat="44.51272" lon="6.84519">
        <ele>2519.27</ele>
        <time>2015-04-06T08:11:16Z</time>
      </trkpt>
      <trkpt lat="44.51278" lon="6.84522">
        <ele>2520.23</ele>
        <time>2015-04-06T08:11:31Z</time>
      </trkpt>
      <trkpt lat="44.51287" lon="6.84525">
        <ele>2521.68</ele>
        <time>2015-04-06T08:11:47Z</time>
      </trkpt>
      <trkpt lat="44.51295" lon="6.84528">
        <ele>2523.12</ele>
        <time>2015-04-06T08:12:03Z</time>
      </trkpt>
      <trkpt lat="44.51305" lon="6.8453">
        <ele>2524.56</ele>
        <time>2015-04-06T08:12:18Z</time>
      </trkpt>
      <trkpt lat="44.51313" lon="6.84532">
        <ele>2526.48</ele>
        <time>2015-04-06T08:12:36Z</time>
      </trkpt>
      <trkpt lat="44.51319" lon="6.84535">
        <ele>2527.44</ele>
        <time>2015-04-06T08:12:51Z</time>
      </trkpt>
      <trkpt lat="44.51327" lon="6.84536">
        <ele>2528.4</ele>
        <time>2015-04-06T08:13:06Z</time>
      </trkpt>
      <trkpt lat="44.51337" lon="6.84534">
        <ele>2530.33</ele>
        <time>2015-04-06T08:13:24Z</time>
      </trkpt>
      <trkpt lat="44.51347" lon="6.8453">
        <ele>2531.77</ele>
        <time>2015-04-06T08:13:42Z</time>
      </trkpt>
      <trkpt lat="44.51355" lon="6.84528">
        <ele>2533.69</ele>
        <time>2015-04-06T08:13:57Z</time>
      </trkpt>
      <trkpt lat="44.5136" lon="6.84529">
        <ele>2535.13</ele>
        <time>2015-04-06T08:14:09Z</time>
      </trkpt>
      <trkpt lat="44.51367" lon="6.8453">
        <ele>2536.58</ele>
        <time>2015-04-06T08:14:23Z</time>
      </trkpt>
      <trkpt lat="44.51377" lon="6.84532">
        <ele>2538.5</ele>
        <time>2015-04-06T08:14:39Z</time>
      </trkpt>
      <trkpt lat="44.51382" lon="6.84532">
        <ele>2539.46</ele>
        <time>2015-04-06T08:14:53Z</time>
      </trkpt>
      <trkpt lat="44.51392" lon="6.84535">
        <ele>2541.38</ele>
        <time>2015-04-06T08:15:11Z</time>
      </trkpt>
      <trkpt lat="44.51403" lon="6.84537">
        <ele>2542.82</ele>
        <time>2015-04-06T08:15:27Z</time>
      </trkpt>
      <trkpt lat="44.51408" lon="6.84537">
        <ele>2544.27</ele>
        <time>2015-04-06T08:15:40Z</time>
      </trkpt>
      <trkpt lat="44.51414" lon="6.84535">
        <ele>2545.71</ele>
        <time>2015-04-06T08:15:54Z</time>
      </trkpt>
      <trkpt lat="44.51425" lon="6.84528">
        <ele>2548.11</ele>
        <time>2015-04-06T08:16:13Z</time>
      </trkpt>
      <trkpt lat="44.51432" lon="6.84525">
        <ele>2550.51</ele>
        <time>2015-04-06T08:16:30Z</time>
      </trkpt>
      <trkpt lat="44.51441" lon="6.84518">
        <ele>2552.44</ele>
        <time>2015-04-06T08:16:47Z</time>
      </trkpt>
      <trkpt lat="44.51447" lon="6.84511">
        <ele>2554.36</ele>
        <time>2015-04-06T08:17:01Z</time>
      </trkpt>
      <trkpt lat="44.51451" lon="6.84504">
        <ele>2555.8</ele>
        <time>2015-04-06T08:17:16Z</time>
      </trkpt>
      <trkpt lat="44.51459" lon="6.845">
        <ele>2558.69</ele>
        <time>2015-04-06T08:17:34Z</time>
      </trkpt>
      <trkpt lat="44.51463" lon="6.84502">
        <ele>2559.65</ele>
        <time>2015-04-06T08:17:51Z</time>
      </trkpt>
      <trkpt lat="44.51463" lon="6.84504">
        <ele>2560.13</ele>
        <time>2015-04-06T08:18:15Z</time>
      </trkpt>
      <trkpt lat="44.51463" lon="6.84504">
        <ele>2560.13</ele>
        <time>2015-04-06T08:18:35Z</time>
      </trkpt>
      <trkpt lat="44.51466" lon="6.84507">
        <ele>2560.61</ele>
        <time>2015-04-06T08:19:01Z</time>
      </trkpt>
      <trkpt lat="44.5147" lon="6.84515">
        <ele>2562.05</ele>
        <time>2015-04-06T08:19:15Z</time>
      </trkpt>
      <trkpt lat="44.51476" lon="6.8452">
        <ele>2564.45</ele>
        <time>2015-04-06T08:19:28Z</time>
      </trkpt>
      <trkpt lat="44.51485" lon="6.84515">
        <ele>2567.34</ele>
        <time>2015-04-06T08:19:46Z</time>
      </trkpt>
      <trkpt lat="44.51492" lon="6.84505">
        <ele>2569.26</ele>
        <time>2015-04-06T08:20:03Z</time>
      </trkpt>
      <trkpt lat="44.515" lon="6.84509">
        <ele>2571.18</ele>
        <time>2015-04-06T08:20:19Z</time>
      </trkpt>
      <trkpt lat="44.51503" lon="6.84516">
        <ele>2573.11</ele>
        <time>2015-04-06T08:20:38Z</time>
      </trkpt>
      <trkpt lat="44.51505" lon="6.84517">
        <ele>2574.07</ele>
        <time>2015-04-06T08:21:02Z</time>
      </trkpt>
      <trkpt lat="44.51507" lon="6.84518">
        <ele>2574.07</ele>
        <time>2015-04-06T08:21:16Z</time>
      </trkpt>
      <trkpt lat="44.51507" lon="6.84517">
        <ele>2574.55</ele>
        <time>2015-04-06T08:21:32Z</time>
      </trkpt>
      <trkpt lat="44.51512" lon="6.84506">
        <ele>2577.43</ele>
        <time>2015-04-06T08:21:49Z</time>
      </trkpt>
      <trkpt lat="44.51517" lon="6.84503">
        <ele>2578.39</ele>
        <time>2015-04-06T08:22:02Z</time>
      </trkpt>
      <trkpt lat="44.51522" lon="6.84495">
        <ele>2579.35</ele>
        <time>2015-04-06T08:22:18Z</time>
      </trkpt>
      <trkpt lat="44.51527" lon="6.84488">
        <ele>2581.28</ele>
        <time>2015-04-06T08:22:33Z</time>
      </trkpt>
      <trkpt lat="44.51536" lon="6.84478">
        <ele>2584.16</ele>
        <time>2015-04-06T08:22:52Z</time>
      </trkpt>
      <trkpt lat="44.51538" lon="6.84479">
        <ele>2584.64</ele>
        <time>2015-04-06T08:23:03Z</time>
      </trkpt>
      <trkpt lat="44.51538" lon="6.84482">
        <ele>2582.72</ele>
        <time>2015-04-06T08:23:13Z</time>
      </trkpt>
      <trkpt lat="44.51538" lon="6.84479">
        <ele>2584.16</ele>
        <time>2015-04-06T08:23:15Z</time>
      </trkpt>
      <trkpt lat="44.51538" lon="6.84479">
        <ele>2582.72</ele>
        <time>2015-04-06T08:23:19Z</time>
      </trkpt>
      <trkpt lat="44.51539" lon="6.84479">
        <ele>2584.16</ele>
        <time>2015-04-06T08:23:24Z</time>
      </trkpt>
      <trkpt lat="44.5154" lon="6.84479">
        <ele>2584.64</ele>
        <time>2015-04-06T08:23:42Z</time>
      </trkpt>
      <trkpt lat="44.51539" lon="6.8448">
        <ele>2583.68</ele>
        <time>2015-04-06T08:24:22Z</time>
      </trkpt>
      <trkpt lat="44.51541" lon="6.8448">
        <ele>2585.12</ele>
        <time>2015-04-06T08:24:52Z</time>
      </trkpt>
      <trkpt lat="44.5154" lon="6.84481">
        <ele>2584.16</ele>
        <time>2015-04-06T08:24:57Z</time>
      </trkpt>
      <trkpt lat="44.51538" lon="6.84478">
        <ele>2583.68</ele>
        <time>2015-04-06T08:25:28Z</time>
      </trkpt>
      <trkpt lat="44.51539" lon="6.84479">
        <ele>2583.68</ele>
        <time>2015-04-06T08:26:06Z</time>
      </trkpt>
      <trkpt lat="44.51537" lon="6.84477">
        <ele>2584.16</ele>
        <time>2015-04-06T08:26:40Z</time>
      </trkpt>
      <trkpt lat="44.51538" lon="6.84479">
        <ele>2584.16</ele>
        <time>2015-04-06T08:26:51Z</time>
      </trkpt>
      <trkpt lat="44.51537" lon="6.84478">
        <ele>2580.32</ele>
        <time>2015-04-06T08:26:56Z</time>
      </trkpt>
      <trkpt lat="44.51538" lon="6.84478">
        <ele>2583.68</ele>
        <time>2015-04-06T08:26:57Z</time>
      </trkpt>
      <trkpt lat="44.51538" lon="6.84479">
        <ele>2585.12</ele>
        <time>2015-04-06T08:26:59Z</time>
      </trkpt>
      <trkpt lat="44.51538" lon="6.84479">
        <ele>2583.68</ele>
        <time>2015-04-06T08:27:01Z</time>
      </trkpt>
      <trkpt lat="44.5154" lon="6.84479">
        <ele>2585.12</ele>
        <time>2015-04-06T08:27:19Z</time>
      </trkpt>
      <trkpt lat="44.51542" lon="6.84479">
        <ele>2585.12</ele>
        <time>2015-04-06T08:27:36Z</time>
      </trkpt>
      <trkpt lat="44.51542" lon="6.84481">
        <ele>2585.12</ele>
        <time>2015-04-06T08:28:01Z</time>
      </trkpt>
      <trkpt lat="44.5154" lon="6.8448">
        <ele>2585.12</ele>
        <time>2015-04-06T08:28:24Z</time>
      </trkpt>
      <trkpt lat="44.51541" lon="6.8448">
        <ele>2585.12</ele>
        <time>2015-04-06T08:28:43Z</time>
      </trkpt>
      <trkpt lat="44.51541" lon="6.84478">
        <ele>2584.16</ele>
        <time>2015-04-06T08:29:02Z</time>
      </trkpt>
      <trkpt lat="44.5154" lon="6.84476">
        <ele>2585.12</ele>
        <time>2015-04-06T08:29:12Z</time>
      </trkpt>
      <trkpt lat="44.51542" lon="6.84477">
        <ele>2585.12</ele>
        <time>2015-04-06T08:29:28Z</time>
      </trkpt>
      <trkpt lat="44.51541" lon="6.84476">
        <ele>2585.12</ele>
        <time>2015-04-06T08:29:45Z</time>
      </trkpt>
      <trkpt lat="44.51541" lon="6.84479">
        <ele>2585.12</ele>
        <time>2015-04-06T08:30:01Z</time>
      </trkpt>
      <trkpt lat="44.51541" lon="6.84478">
        <ele>2584.16</ele>
        <time>2015-04-06T08:30:03Z</time>
      </trkpt>
      <trkpt lat="44.51541" lon="6.84476">
        <ele>2584.16</ele>
        <time>2015-04-06T08:30:05Z</time>
      </trkpt>
      <trkpt lat="44.51542" lon="6.84471">
        <ele>2582.72</ele>
        <time>2015-04-06T08:30:14Z</time>
      </trkpt>
      <trkpt lat="44.51542" lon="6.84471">
        <ele>2582.72</ele>
        <time>2015-04-06T08:30:15Z</time>
      </trkpt>
      <trkpt lat="44.51556" lon="6.84465">
        <ele>2580.32</ele>
        <time>2015-04-06T08:30:27Z</time>
      </trkpt>
      <trkpt lat="44.51563" lon="6.84462">
        <ele>2580.32</ele>
        <time>2015-04-06T08:30:40Z</time>
      </trkpt>
      <trkpt lat="44.51565" lon="6.8446">
        <ele>2580.8</ele>
        <time>2015-04-06T08:30:44Z</time>
      </trkpt>
      <trkpt lat="44.51575" lon="6.84454">
        <ele>2580.8</ele>
        <time>2015-04-06T08:30:57Z</time>
      </trkpt>
      <trkpt lat="44.51584" lon="6.8445">
        <ele>2580.8</ele>
        <time>2015-04-06T08:31:07Z</time>
      </trkpt>
      <trkpt lat="44.51598" lon="6.84447">
        <ele>2580.8</ele>
        <time>2015-04-06T08:31:22Z</time>
      </trkpt>
      <trkpt lat="44.5161" lon="6.84446">
        <ele>2582.24</ele>
        <time>2015-04-06T08:31:37Z</time>
      </trkpt>
      <trkpt lat="44.51621" lon="6.84446">
        <ele>2583.68</ele>
        <time>2015-04-06T08:31:53Z</time>
      </trkpt>
      <trkpt lat="44.51635" lon="6.84448">
        <ele>2585.6</ele>
        <time>2015-04-06T08:32:11Z</time>
      </trkpt>
      <trkpt lat="44.51644" lon="6.84449">
        <ele>2587.04</ele>
        <time>2015-04-06T08:32:27Z</time>
      </trkpt>
      <trkpt lat="44.51655" lon="6.84447">
        <ele>2587.53</ele>
        <time>2015-04-06T08:32:43Z</time>
      </trkpt>
      <trkpt lat="44.51666" lon="6.84442">
        <ele>2588.49</ele>
        <time>2015-04-06T08:32:58Z</time>
      </trkpt>
      <trkpt lat="44.5168" lon="6.8444">
        <ele>2588.49</ele>
        <time>2015-04-06T08:33:13Z</time>
      </trkpt>
      <trkpt lat="44.51695" lon="6.84446">
        <ele>2588.49</ele>
        <time>2015-04-06T08:33:28Z</time>
      </trkpt>
      <trkpt lat="44.517" lon="6.84448">
        <ele>2587.53</ele>
        <time>2015-04-06T08:33:34Z</time>
      </trkpt>
      <trkpt lat="44.51708" lon="6.84457">
        <ele>2588.49</ele>
        <time>2015-04-06T08:33:49Z</time>
      </trkpt>
      <trkpt lat="44.51712" lon="6.84458">
        <ele>2588.49</ele>
        <time>2015-04-06T08:33:54Z</time>
      </trkpt>
      <trkpt lat="44.51723" lon="6.84458">
        <ele>2588.49</ele>
        <time>2015-04-06T08:34:06Z</time>
      </trkpt>
      <trkpt lat="44.51739" lon="6.84454">
        <ele>2587.04</ele>
        <time>2015-04-06T08:34:20Z</time>
      </trkpt>
      <trkpt lat="44.51744" lon="6.84455">
        <ele>2587.04</ele>
        <time>2015-04-06T08:34:24Z</time>
      </trkpt>
      <trkpt lat="44.51751" lon="6.84461">
        <ele>2588.01</ele>
        <time>2015-04-06T08:34:38Z</time>
      </trkpt>
      <trkpt lat="44.51754" lon="6.84463">
        <ele>2588.97</ele>
        <time>2015-04-06T08:34:55Z</time>
      </trkpt>
      <trkpt lat="44.51755" lon="6.84466">
        <ele>2588.97</ele>
        <time>2015-04-06T08:35:11Z</time>
      </trkpt>
      <trkpt lat="44.51756" lon="6.84466">
        <ele>2585.12</ele>
        <time>2015-04-06T08:35:15Z</time>
      </trkpt>
      <trkpt lat="44.51756" lon="6.84466">
        <ele>2592.33</ele>
        <time>2015-04-06T08:35:16Z</time>
      </trkpt>
      <trkpt lat="44.51756" lon="6.84467">
        <ele>2587.04</ele>
        <time>2015-04-06T08:35:17Z</time>
      </trkpt>
      <trkpt lat="44.5176" lon="6.8447">
        <ele>2587.53</ele>
        <time>2015-04-06T08:35:48Z</time>
      </trkpt>
      <trkpt lat="44.51761" lon="6.84467">
        <ele>2587.04</ele>
        <time>2015-04-06T08:36:18Z</time>
      </trkpt>
      <trkpt lat="44.5176" lon="6.84467">
        <ele>2587.53</ele>
        <time>2015-04-06T08:36:23Z</time>
      </trkpt>
      <trkpt lat="44.51758" lon="6.84468">
        <ele>2588.97</ele>
        <time>2015-04-06T08:36:32Z</time>
      </trkpt>
      <trkpt lat="44.51758" lon="6.84467">
        <ele>2587.53</ele>
        <time>2015-04-06T08:36:34Z</time>
      </trkpt>
      <trkpt lat="44.51755" lon="6.84469">
        <ele>2587.53</ele>
        <time>2015-04-06T08:36:56Z</time>
      </trkpt>
      <trkpt lat="44.51756" lon="6.84468">
        <ele>2587.53</ele>
        <time>2015-04-06T08:37:17Z</time>
      </trkpt>
      <trkpt lat="44.51761" lon="6.84474">
        <ele>2587.53</ele>
        <time>2015-04-06T08:37:31Z</time>
      </trkpt>
      <trkpt lat="44.51765" lon="6.84479">
        <ele>2588.97</ele>
        <time>2015-04-06T08:37:39Z</time>
      </trkpt>
      <trkpt lat="44.51767" lon="6.84484">
        <ele>2588.97</ele>
        <time>2015-04-06T08:37:44Z</time>
      </trkpt>
      <trkpt lat="44.51777" lon="6.84498">
        <ele>2585.6</ele>
        <time>2015-04-06T08:37:51Z</time>
      </trkpt>
      <trkpt lat="44.51781" lon="6.845">
        <ele>2585.6</ele>
        <time>2015-04-06T08:38:02Z</time>
      </trkpt>
      <trkpt lat="44.51784" lon="6.84499">
        <ele>2586.56</ele>
        <time>2015-04-06T08:38:12Z</time>
      </trkpt>
      <trkpt lat="44.51792" lon="6.84499">
        <ele>2588.01</ele>
        <time>2015-04-06T08:38:26Z</time>
      </trkpt>
      <trkpt lat="44.51805" lon="6.845">
        <ele>2590.41</ele>
        <time>2015-04-06T08:38:43Z</time>
      </trkpt>
      <trkpt lat="44.51808" lon="6.84502">
        <ele>2589.93</ele>
        <time>2015-04-06T08:38:58Z</time>
      </trkpt>
      <trkpt lat="44.51818" lon="6.84503">
        <ele>2592.33</ele>
        <time>2015-04-06T08:39:15Z</time>
      </trkpt>
      <trkpt lat="44.51822" lon="6.84505">
        <ele>2593.29</ele>
        <time>2015-04-06T08:39:31Z</time>
      </trkpt>
      <trkpt lat="44.51832" lon="6.84508">
        <ele>2593.29</ele>
        <time>2015-04-06T08:39:43Z</time>
      </trkpt>
      <trkpt lat="44.51844" lon="6.84505">
        <ele>2594.25</ele>
        <time>2015-04-06T08:39:59Z</time>
      </trkpt>
      <trkpt lat="44.51853" lon="6.84504">
        <ele>2596.18</ele>
        <time>2015-04-06T08:40:12Z</time>
      </trkpt>
      <trkpt lat="44.51861" lon="6.84503">
        <ele>2598.1</ele>
        <time>2015-04-06T08:40:27Z</time>
      </trkpt>
      <trkpt lat="44.51872" lon="6.84509">
        <ele>2598.58</ele>
        <time>2015-04-06T08:40:41Z</time>
      </trkpt>
      <trkpt lat="44.51884" lon="6.84515">
        <ele>2599.06</ele>
        <time>2015-04-06T08:40:56Z</time>
      </trkpt>
      <trkpt lat="44.51886" lon="6.84515">
        <ele>2599.06</ele>
        <time>2015-04-06T08:40:58Z</time>
      </trkpt>
      <trkpt lat="44.51891" lon="6.84513">
        <ele>2599.06</ele>
        <time>2015-04-06T08:41:03Z</time>
      </trkpt>
      <trkpt lat="44.51901" lon="6.84509">
        <ele>2599.54</ele>
        <time>2015-04-06T08:41:15Z</time>
      </trkpt>
      <trkpt lat="44.51915" lon="6.84502">
        <ele>2599.54</ele>
        <time>2015-04-06T08:41:31Z</time>
      </trkpt>
      <trkpt lat="44.51928" lon="6.84495">
        <ele>2600.98</ele>
        <time>2015-04-06T08:41:48Z</time>
      </trkpt>
      <trkpt lat="44.51935" lon="6.84501">
        <ele>2602.43</ele>
        <time>2015-04-06T08:42:03Z</time>
      </trkpt>
      <trkpt lat="44.51939" lon="6.84506">
        <ele>2603.87</ele>
        <time>2015-04-06T08:42:16Z</time>
      </trkpt>
      <trkpt lat="44.51947" lon="6.84511">
        <ele>2604.35</ele>
        <time>2015-04-06T08:42:27Z</time>
      </trkpt>
      <trkpt lat="44.51953" lon="6.84504">
        <ele>2605.79</ele>
        <time>2015-04-06T08:42:40Z</time>
      </trkpt>
      <trkpt lat="44.51955" lon="6.845">
        <ele>2606.27</ele>
        <time>2015-04-06T08:42:56Z</time>
      </trkpt>
      <trkpt lat="44.51962" lon="6.84487">
        <ele>2608.67</ele>
        <time>2015-04-06T08:43:15Z</time>
      </trkpt>
      <trkpt lat="44.51972" lon="6.84476">
        <ele>2610.12</ele>
        <time>2015-04-06T08:43:34Z</time>
      </trkpt>
      <trkpt lat="44.51981" lon="6.84472">
        <ele>2611.56</ele>
        <time>2015-04-06T08:43:48Z</time>
      </trkpt>
      <trkpt lat="44.51993" lon="6.84464">
        <ele>2612.52</ele>
        <time>2015-04-06T08:44:07Z</time>
      </trkpt>
      <trkpt lat="44.51998" lon="6.84462">
        <ele>2612.52</ele>
        <time>2015-04-06T08:44:13Z</time>
      </trkpt>
      <trkpt lat="44.52008" lon="6.84458">
        <ele>2612.52</ele>
        <time>2015-04-06T08:44:27Z</time>
      </trkpt>
      <trkpt lat="44.52008" lon="6.84458">
        <ele>2612.52</ele>
        <time>2015-04-06T08:44:44Z</time>
      </trkpt>
      <trkpt lat="44.52008" lon="6.84459">
        <ele>2611.08</ele>
        <time>2015-04-06T08:44:56Z</time>
      </trkpt>
      <trkpt lat="44.52007" lon="6.84459">
        <ele>2611.08</ele>
        <time>2015-04-06T08:45:23Z</time>
      </trkpt>
      <trkpt lat="44.52008" lon="6.84459">
        <ele>2611.08</ele>
        <time>2015-04-06T08:45:49Z</time>
      </trkpt>
      <trkpt lat="44.52008" lon="6.84459">
        <ele>2609.64</ele>
        <time>2015-04-06T08:45:53Z</time>
      </trkpt>
      <trkpt lat="44.52008" lon="6.84459">
        <ele>2611.56</ele>
        <time>2015-04-06T08:45:56Z</time>
      </trkpt>
      <trkpt lat="44.52009" lon="6.84458">
        <ele>2610.6</ele>
        <time>2015-04-06T08:46:04Z</time>
      </trkpt>
      <trkpt lat="44.5201" lon="6.84458">
        <ele>2612.04</ele>
        <time>2015-04-06T08:46:20Z</time>
      </trkpt>
      <trkpt lat="44.5201" lon="6.84458">
        <ele>2612.04</ele>
        <time>2015-04-06T08:46:21Z</time>
      </trkpt>
      <trkpt lat="44.5201" lon="6.84459">
        <ele>2610.12</ele>
        <time>2015-04-06T08:46:23Z</time>
      </trkpt>
      <trkpt lat="44.52009" lon="6.84458">
        <ele>2610.12</ele>
        <time>2015-04-06T08:46:43Z</time>
      </trkpt>
      <trkpt lat="44.52007" lon="6.84457">
        <ele>2610.6</ele>
        <time>2015-04-06T08:47:24Z</time>
      </trkpt>
      <trkpt lat="44.52008" lon="6.84455">
        <ele>2611.08</ele>
        <time>2015-04-06T08:47:58Z</time>
      </trkpt>
      <trkpt lat="44.52008" lon="6.84457">
        <ele>2609.16</ele>
        <time>2015-04-06T08:48:04Z</time>
      </trkpt>
      <trkpt lat="44.52009" lon="6.84458">
        <ele>2610.12</ele>
        <time>2015-04-06T08:48:39Z</time>
      </trkpt>
      <trkpt lat="44.5201" lon="6.84459">
        <ele>2609.16</ele>
        <time>2015-04-06T08:48:59Z</time>
      </trkpt>
      <trkpt lat="44.5201" lon="6.84459">
        <ele>2614.92</ele>
        <time>2015-04-06T08:49:00Z</time>
      </trkpt>
      <trkpt lat="44.5201" lon="6.84459">
        <ele>2610.6</ele>
        <time>2015-04-06T08:49:01Z</time>
      </trkpt>
      <trkpt lat="44.52009" lon="6.8446">
        <ele>2610.12</ele>
        <time>2015-04-06T08:49:10Z</time>
      </trkpt>
      <trkpt lat="44.52009" lon="6.84459">
        <ele>2611.08</ele>
        <time>2015-04-06T08:49:14Z</time>
      </trkpt>
      <trkpt lat="44.52009" lon="6.84458">
        <ele>2611.08</ele>
        <time>2015-04-06T08:49:36Z</time>
      </trkpt>
      <trkpt lat="44.5201" lon="6.84458">
        <ele>2611.08</ele>
        <time>2015-04-06T08:50:08Z</time>
      </trkpt>
      <trkpt lat="44.52009" lon="6.84459">
        <ele>2611.08</ele>
        <time>2015-04-06T08:50:37Z</time>
      </trkpt>
      <trkpt lat="44.52013" lon="6.84461">
        <ele>2611.08</ele>
        <time>2015-04-06T08:50:59Z</time>
      </trkpt>
      <trkpt lat="44.52018" lon="6.84461">
        <ele>2611.08</ele>
        <time>2015-04-06T08:51:05Z</time>
      </trkpt>
      <trkpt lat="44.52028" lon="6.8446">
        <ele>2608.19</ele>
        <time>2015-04-06T08:51:11Z</time>
      </trkpt>
      <trkpt lat="44.52044" lon="6.84458">
        <ele>2605.79</ele>
        <time>2015-04-06T08:51:25Z</time>
      </trkpt>
      <trkpt lat="44.52045" lon="6.84456">
        <ele>2605.79</ele>
        <time>2015-04-06T08:51:27Z</time>
      </trkpt>
      <trkpt lat="44.52059" lon="6.84454">
        <ele>2605.79</ele>
        <time>2015-04-06T08:51:44Z</time>
      </trkpt>
      <trkpt lat="44.52069" lon="6.8445">
        <ele>2607.23</ele>
        <time>2015-04-06T08:51:58Z</time>
      </trkpt>
      <trkpt lat="44.52077" lon="6.84448">
        <ele>2608.19</ele>
        <time>2015-04-06T08:52:11Z</time>
      </trkpt>
      <trkpt lat="44.52087" lon="6.84442">
        <ele>2609.64</ele>
        <time>2015-04-06T08:52:27Z</time>
      </trkpt>
      <trkpt lat="44.52099" lon="6.84438">
        <ele>2611.08</ele>
        <time>2015-04-06T08:52:45Z</time>
      </trkpt>
      <trkpt lat="44.52105" lon="6.84441">
        <ele>2612.04</ele>
        <time>2015-04-06T08:52:59Z</time>
      </trkpt>
      <trkpt lat="44.52108" lon="6.84441">
        <ele>2612.52</ele>
        <time>2015-04-06T08:53:14Z</time>
      </trkpt>
      <trkpt lat="44.52121" lon="6.8445">
        <ele>2614.44</ele>
        <time>2015-04-06T08:53:33Z</time>
      </trkpt>
      <trkpt lat="44.5213" lon="6.84453">
        <ele>2616.85</ele>
        <time>2015-04-06T08:53:51Z</time>
      </trkpt>
      <trkpt lat="44.52138" lon="6.84451">
        <ele>2618.77</ele>
        <time>2015-04-06T08:54:08Z</time>
      </trkpt>
      <trkpt lat="44.52141" lon="6.84445">
        <ele>2620.69</ele>
        <time>2015-04-06T08:54:24Z</time>
      </trkpt>
      <trkpt lat="44.52148" lon="6.84436">
        <ele>2622.13</ele>
        <time>2015-04-06T08:54:41Z</time>
      </trkpt>
      <trkpt lat="44.52158" lon="6.84436">
        <ele>2624.06</ele>
        <time>2015-04-06T08:54:57Z</time>
      </trkpt>
      <trkpt lat="44.52166" lon="6.84439">
        <ele>2625.98</ele>
        <time>2015-04-06T08:55:10Z</time>
      </trkpt>
      <trkpt lat="44.52171" lon="6.8444">
        <ele>2628.86</ele>
        <time>2015-04-06T08:55:28Z</time>
      </trkpt>
      <trkpt lat="44.52179" lon="6.84445">
        <ele>2630.3</ele>
        <time>2015-04-06T08:55:43Z</time>
      </trkpt>
      <trkpt lat="44.5219" lon="6.84453">
        <ele>2632.71</ele>
        <time>2015-04-06T08:56:03Z</time>
      </trkpt>
      <trkpt lat="44.52199" lon="6.84461">
        <ele>2633.67</ele>
        <time>2015-04-06T08:56:19Z</time>
      </trkpt>
      <trkpt lat="44.52204" lon="6.8447">
        <ele>2635.59</ele>
        <time>2015-04-06T08:56:32Z</time>
      </trkpt>
      <trkpt lat="44.52211" lon="6.84476">
        <ele>2637.03</ele>
        <time>2015-04-06T08:56:53Z</time>
      </trkpt>
      <trkpt lat="44.5222" lon="6.84477">
        <ele>2637.51</ele>
        <time>2015-04-06T08:57:07Z</time>
      </trkpt>
      <trkpt lat="44.5223" lon="6.84475">
        <ele>2640.4</ele>
        <time>2015-04-06T08:57:27Z</time>
      </trkpt>
      <trkpt lat="44.52242" lon="6.84471">
        <ele>2641.84</ele>
        <time>2015-04-06T08:57:44Z</time>
      </trkpt>
      <trkpt lat="44.52255" lon="6.84471">
        <ele>2643.76</ele>
        <time>2015-04-06T08:58:02Z</time>
      </trkpt>
      <trkpt lat="44.52262" lon="6.84476">
        <ele>2644.24</ele>
        <time>2015-04-06T08:58:18Z</time>
      </trkpt>
      <trkpt lat="44.52271" lon="6.84472">
        <ele>2645.69</ele>
        <time>2015-04-06T08:58:34Z</time>
      </trkpt>
      <trkpt lat="44.52282" lon="6.84473">
        <ele>2648.09</ele>
        <time>2015-04-06T08:58:54Z</time>
      </trkpt>
      <trkpt lat="44.52292" lon="6.84472">
        <ele>2650.01</ele>
        <time>2015-04-06T08:59:09Z</time>
      </trkpt>
      <trkpt lat="44.52302" lon="6.84469">
        <ele>2651.93</ele>
        <time>2015-04-06T08:59:29Z</time>
      </trkpt>
      <trkpt lat="44.52305" lon="6.84469">
        <ele>2652.42</ele>
        <time>2015-04-06T08:59:45Z</time>
      </trkpt>
      <trkpt lat="44.52308" lon="6.84472">
        <ele>2652.42</ele>
        <time>2015-04-06T09:00:06Z</time>
      </trkpt>
      <trkpt lat="44.52307" lon="6.84474">
        <ele>2651.45</ele>
        <time>2015-04-06T09:00:25Z</time>
      </trkpt>
      <trkpt lat="44.52308" lon="6.84472">
        <ele>2651.45</ele>
        <time>2015-04-06T09:00:58Z</time>
      </trkpt>
      <trkpt lat="44.52306" lon="6.84472">
        <ele>2651.93</ele>
        <time>2015-04-06T09:01:10Z</time>
      </trkpt>
      <trkpt lat="44.52307" lon="6.84472">
        <ele>2651.45</ele>
        <time>2015-04-06T09:01:51Z</time>
      </trkpt>
      <trkpt lat="44.52306" lon="6.84471">
        <ele>2652.9</ele>
        <time>2015-04-06T09:02:24Z</time>
      </trkpt>
      <trkpt lat="44.52307" lon="6.84472">
        <ele>2651.45</ele>
        <time>2015-04-06T09:02:26Z</time>
      </trkpt>
      <trkpt lat="44.52307" lon="6.84472">
        <ele>2651.45</ele>
        <time>2015-04-06T09:02:39Z</time>
      </trkpt>
      <trkpt lat="44.52307" lon="6.84471">
        <ele>2652.9</ele>
        <time>2015-04-06T09:02:43Z</time>
      </trkpt>
      <trkpt lat="44.52307" lon="6.84472">
        <ele>2652.9</ele>
        <time>2015-04-06T09:02:53Z</time>
      </trkpt>
      <trkpt lat="44.52307" lon="6.8447">
        <ele>2651.45</ele>
        <time>2015-04-06T09:03:11Z</time>
      </trkpt>
      <trkpt lat="44.52307" lon="6.84471">
        <ele>2647.61</ele>
        <time>2015-04-06T09:03:13Z</time>
      </trkpt>
      <trkpt lat="44.52306" lon="6.84471">
        <ele>2653.38</ele>
        <time>2015-04-06T09:03:15Z</time>
      </trkpt>
      <trkpt lat="44.52306" lon="6.84471">
        <ele>2653.38</ele>
        <time>2015-04-06T09:03:16Z</time>
      </trkpt>
      <trkpt lat="44.52306" lon="6.84472">
        <ele>2650.97</ele>
        <time>2015-04-06T09:03:18Z</time>
      </trkpt>
      <trkpt lat="44.52306" lon="6.84471">
        <ele>2652.42</ele>
        <time>2015-04-06T09:03:20Z</time>
      </trkpt>
      <trkpt lat="44.52306" lon="6.84471">
        <ele>2652.42</ele>
        <time>2015-04-06T09:03:34Z</time>
      </trkpt>
      <trkpt lat="44.52306" lon="6.84473">
        <ele>2652.42</ele>
        <time>2015-04-06T09:04:00Z</time>
      </trkpt>
      <trkpt lat="44.52308" lon="6.84473">
        <ele>2652.42</ele>
        <time>2015-04-06T09:04:17Z</time>
      </trkpt>
      <trkpt lat="44.52312" lon="6.84471">
        <ele>2652.42</ele>
        <time>2015-04-06T09:04:38Z</time>
      </trkpt>
      <trkpt lat="44.52321" lon="6.84471">
        <ele>2654.34</ele>
        <time>2015-04-06T09:04:53Z</time>
      </trkpt>
      <trkpt lat="44.5233" lon="6.8447">
        <ele>2656.74</ele>
        <time>2015-04-06T09:05:10Z</time>
      </trkpt>
      <trkpt lat="44.52338" lon="6.84466">
        <ele>2659.14</ele>
        <time>2015-04-06T09:05:28Z</time>
      </trkpt>
      <trkpt lat="44.52345" lon="6.84463">
        <ele>2661.55</ele>
        <time>2015-04-06T09:05:48Z</time>
      </trkpt>
      <trkpt lat="44.52352" lon="6.8446">
        <ele>2663.47</ele>
        <time>2015-04-06T09:06:06Z</time>
      </trkpt>
      <trkpt lat="44.52356" lon="6.84456">
        <ele>2665.87</ele>
        <time>2015-04-06T09:06:26Z</time>
      </trkpt>
      <trkpt lat="44.52363" lon="6.8445">
        <ele>2668.28</ele>
        <time>2015-04-06T09:06:42Z</time>
      </trkpt>
      <trkpt lat="44.5237" lon="6.84446">
        <ele>2670.68</ele>
        <time>2015-04-06T09:07:00Z</time>
      </trkpt>
      <trkpt lat="44.52375" lon="6.84442">
        <ele>2672.6</ele>
        <time>2015-04-06T09:07:15Z</time>
      </trkpt>
      <trkpt lat="44.52382" lon="6.8444">
        <ele>2674.52</ele>
        <time>2015-04-06T09:07:28Z</time>
      </trkpt>
      <trkpt lat="44.52387" lon="6.84444">
        <ele>2676.45</ele>
        <time>2015-04-06T09:07:43Z</time>
      </trkpt>
      <trkpt lat="44.5239" lon="6.84445">
        <ele>2677.89</ele>
        <time>2015-04-06T09:07:56Z</time>
      </trkpt>
      <trkpt lat="44.52394" lon="6.84437">
        <ele>2680.77</ele>
        <time>2015-04-06T09:08:14Z</time>
      </trkpt>
      <trkpt lat="44.52399" lon="6.84428">
        <ele>2683.18</ele>
        <time>2015-04-06T09:08:32Z</time>
      </trkpt>
      <trkpt lat="44.52401" lon="6.84421">
        <ele>2685.1</ele>
        <time>2015-04-06T09:08:47Z</time>
      </trkpt>
      <trkpt lat="44.52404" lon="6.84411">
        <ele>2687.5</ele>
        <time>2015-04-06T09:09:04Z</time>
      </trkpt>
      <trkpt lat="44.52408" lon="6.84403">
        <ele>2689.43</ele>
        <time>2015-04-06T09:09:19Z</time>
      </trkpt>
      <trkpt lat="44.52416" lon="6.84399">
        <ele>2691.35</ele>
        <time>2015-04-06T09:09:34Z</time>
      </trkpt>
      <trkpt lat="44.52424" lon="6.84399">
        <ele>2693.27</ele>
        <time>2015-04-06T09:09:50Z</time>
      </trkpt>
      <trkpt lat="44.52432" lon="6.84402">
        <ele>2695.67</ele>
        <time>2015-04-06T09:10:08Z</time>
      </trkpt>
      <trkpt lat="44.52444" lon="6.84408">
        <ele>2699.04</ele>
        <time>2015-04-06T09:10:31Z</time>
      </trkpt>
      <trkpt lat="44.52449" lon="6.84413">
        <ele>2701.44</ele>
        <time>2015-04-06T09:10:48Z</time>
      </trkpt>
      <trkpt lat="44.52453" lon="6.84418">
        <ele>2703.36</ele>
        <time>2015-04-06T09:11:02Z</time>
      </trkpt>
      <trkpt lat="44.52456" lon="6.84425">
        <ele>2705.29</ele>
        <time>2015-04-06T09:11:17Z</time>
      </trkpt>
      <trkpt lat="44.52462" lon="6.84435">
        <ele>2707.69</ele>
        <time>2015-04-06T09:11:35Z</time>
      </trkpt>
      <trkpt lat="44.52464" lon="6.8444">
        <ele>2709.13</ele>
        <time>2015-04-06T09:11:52Z</time>
      </trkpt>
      <trkpt lat="44.52469" lon="6.84444">
        <ele>2711.06</ele>
        <time>2015-04-06T09:12:05Z</time>
      </trkpt>
      <trkpt lat="44.5247" lon="6.84444">
        <ele>2711.54</ele>
        <time>2015-04-06T09:12:07Z</time>
      </trkpt>
      <trkpt lat="44.52478" lon="6.84447">
        <ele>2712.98</ele>
        <time>2015-04-06T09:12:23Z</time>
      </trkpt>
      <trkpt lat="44.52485" lon="6.84448">
        <ele>2715.86</ele>
        <time>2015-04-06T09:12:41Z</time>
      </trkpt>
      <trkpt lat="44.52494" lon="6.84448">
        <ele>2718.27</ele>
        <time>2015-04-06T09:12:58Z</time>
      </trkpt>
      <trkpt lat="44.52506" lon="6.84448">
        <ele>2721.15</ele>
        <time>2015-04-06T09:13:21Z</time>
      </trkpt>
      <trkpt lat="44.52515" lon="6.84446">
        <ele>2724.03</ele>
        <time>2015-04-06T09:13:39Z</time>
      </trkpt>
      <trkpt lat="44.52523" lon="6.84443">
        <ele>2725.96</ele>
        <time>2015-04-06T09:13:55Z</time>
      </trkpt>
      <trkpt lat="44.52533" lon="6.84441">
        <ele>2729.32</ele>
        <time>2015-04-06T09:14:14Z</time>
      </trkpt>
      <trkpt lat="44.52544" lon="6.84441">
        <ele>2732.2</ele>
        <time>2015-04-06T09:14:34Z</time>
      </trkpt>
      <trkpt lat="44.52548" lon="6.84435">
        <ele>2734.61</ele>
        <time>2015-04-06T09:14:49Z</time>
      </trkpt>
      <trkpt lat="44.52552" lon="6.84424">
        <ele>2737.01</ele>
        <time>2015-04-06T09:15:06Z</time>
      </trkpt>
      <trkpt lat="44.52556" lon="6.84415">
        <ele>2738.93</ele>
        <time>2015-04-06T09:15:22Z</time>
      </trkpt>
      <trkpt lat="44.52558" lon="6.84403">
        <ele>2741.82</ele>
        <time>2015-04-06T09:15:40Z</time>
      </trkpt>
      <trkpt lat="44.52564" lon="6.84397">
        <ele>2744.7</ele>
        <time>2015-04-06T09:15:56Z</time>
      </trkpt>
      <trkpt lat="44.52568" lon="6.84403">
        <ele>2745.66</ele>
        <time>2015-04-06T09:16:13Z</time>
      </trkpt>
      <trkpt lat="44.52573" lon="6.84413">
        <ele>2747.59</ele>
        <time>2015-04-06T09:16:29Z</time>
      </trkpt>
      <trkpt lat="44.5258" lon="6.84425">
        <ele>2749.99</ele>
        <time>2015-04-06T09:16:46Z</time>
      </trkpt>
      <trkpt lat="44.52586" lon="6.84438">
        <ele>2750.95</ele>
        <time>2015-04-06T09:17:02Z</time>
      </trkpt>
      <trkpt lat="44.52588" lon="6.84442">
        <ele>2750.95</ele>
        <time>2015-04-06T09:17:07Z</time>
      </trkpt>
      <trkpt lat="44.52594" lon="6.84455">
        <ele>2751.91</ele>
        <time>2015-04-06T09:17:22Z</time>
      </trkpt>
      <trkpt lat="44.52596" lon="6.84456">
        <ele>2751.91</ele>
        <time>2015-04-06T09:17:42Z</time>
      </trkpt>
      <trkpt lat="44.52597" lon="6.84459">
        <ele>2751.91</ele>
        <time>2015-04-06T09:18:06Z</time>
      </trkpt>
      <trkpt lat="44.52596" lon="6.84456">
        <ele>2752.39</ele>
        <time>2015-04-06T09:18:30Z</time>
      </trkpt>
      <trkpt lat="44.52596" lon="6.84458">
        <ele>2752.39</ele>
        <time>2015-04-06T09:18:51Z</time>
      </trkpt>
      <trkpt lat="44.52597" lon="6.84457">
        <ele>2753.35</ele>
        <time>2015-04-06T09:19:05Z</time>
      </trkpt>
      <trkpt lat="44.52597" lon="6.84457">
        <ele>2749.99</ele>
        <time>2015-04-06T09:19:07Z</time>
      </trkpt>
      <trkpt lat="44.52597" lon="6.84457">
        <ele>2749.99</ele>
        <time>2015-04-06T09:19:08Z</time>
      </trkpt>
      <trkpt lat="44.52597" lon="6.84456">
        <ele>2751.43</ele>
        <time>2015-04-06T09:19:16Z</time>
      </trkpt>
      <trkpt lat="44.52597" lon="6.84455">
        <ele>2750.95</ele>
        <time>2015-04-06T09:19:26Z</time>
      </trkpt>
      <trkpt lat="44.52596" lon="6.84454">
        <ele>2749.99</ele>
        <time>2015-04-06T09:19:55Z</time>
      </trkpt>
      <trkpt lat="44.52596" lon="6.84454">
        <ele>2749.99</ele>
        <time>2015-04-06T09:20:35Z</time>
      </trkpt>
      <trkpt lat="44.52596" lon="6.84455">
        <ele>2750.47</ele>
        <time>2015-04-06T09:21:14Z</time>
      </trkpt>
      <trkpt lat="44.52596" lon="6.84455">
        <ele>2750.47</ele>
        <time>2015-04-06T09:21:57Z</time>
      </trkpt>
      <trkpt lat="44.52597" lon="6.84454">
        <ele>2750.47</ele>
        <time>2015-04-06T09:22:34Z</time>
      </trkpt>
      <trkpt lat="44.52597" lon="6.84455">
        <ele>2746.14</ele>
        <time>2015-04-06T09:22:39Z</time>
      </trkpt>
      <trkpt lat="44.52597" lon="6.84455">
        <ele>2751.91</ele>
        <time>2015-04-06T09:22:40Z</time>
      </trkpt>
      <trkpt lat="44.52597" lon="6.84455">
        <ele>2751.43</ele>
        <time>2015-04-06T09:22:55Z</time>
      </trkpt>
      <trkpt lat="44.52595" lon="6.84455">
        <ele>2752.87</ele>
        <time>2015-04-06T09:23:18Z</time>
      </trkpt>
      <trkpt lat="44.52594" lon="6.84455">
        <ele>2752.87</ele>
        <time>2015-04-06T09:23:19Z</time>
      </trkpt>
      <trkpt lat="44.52598" lon="6.84456">
        <ele>2752.87</ele>
        <time>2015-04-06T09:23:37Z</time>
      </trkpt>
      <trkpt lat="44.52597" lon="6.84456">
        <ele>2751.91</ele>
        <time>2015-04-06T09:23:51Z</time>
      </trkpt>
      <trkpt lat="44.52596" lon="6.84457">
        <ele>2751.91</ele>
        <time>2015-04-06T09:24:13Z</time>
      </trkpt>
      <trkpt lat="44.52602" lon="6.84456">
        <ele>2751.91</ele>
        <time>2015-04-06T09:24:34Z</time>
      </trkpt>
      <trkpt lat="44.52603" lon="6.84451">
        <ele>2751.91</ele>
        <time>2015-04-06T09:24:44Z</time>
      </trkpt>
      <trkpt lat="44.52611" lon="6.84455">
        <ele>2751.43</ele>
        <time>2015-04-06T09:24:59Z</time>
      </trkpt>
      <trkpt lat="44.52613" lon="6.84458">
        <ele>2752.87</ele>
        <time>2015-04-06T09:25:03Z</time>
      </trkpt>
      <trkpt lat="44.52622" lon="6.84464">
        <ele>2753.35</ele>
        <time>2015-04-06T09:25:17Z</time>
      </trkpt>
      <trkpt lat="44.52628" lon="6.8447">
        <ele>2753.83</ele>
        <time>2015-04-06T09:25:29Z</time>
      </trkpt>
      <trkpt lat="44.52641" lon="6.8448">
        <ele>2755.28</ele>
        <time>2015-04-06T09:25:49Z</time>
      </trkpt>
      <trkpt lat="44.52647" lon="6.84488">
        <ele>2756.24</ele>
        <time>2015-04-06T09:26:01Z</time>
      </trkpt>
      <trkpt lat="44.52655" lon="6.84497">
        <ele>2756.72</ele>
        <time>2015-04-06T09:26:15Z</time>
      </trkpt>
      <trkpt lat="44.52665" lon="6.84505">
        <ele>2757.68</ele>
        <time>2015-04-06T09:26:32Z</time>
      </trkpt>
      <trkpt lat="44.52674" lon="6.84512">
        <ele>2758.16</ele>
        <time>2015-04-06T09:26:49Z</time>
      </trkpt>
      <trkpt lat="44.52676" lon="6.84514">
        <ele>2758.64</ele>
        <time>2015-04-06T09:27:06Z</time>
      </trkpt>
      <trkpt lat="44.52686" lon="6.84522">
        <ele>2760.56</ele>
        <time>2015-04-06T09:27:24Z</time>
      </trkpt>
      <trkpt lat="44.52694" lon="6.84526">
        <ele>2762.49</ele>
        <time>2015-04-06T09:27:41Z</time>
      </trkpt>
      <trkpt lat="44.52701" lon="6.84529">
        <ele>2764.41</ele>
        <time>2015-04-06T09:27:56Z</time>
      </trkpt>
      <trkpt lat="44.52708" lon="6.84533">
        <ele>2766.81</ele>
        <time>2015-04-06T09:28:10Z</time>
      </trkpt>
      <trkpt lat="44.52717" lon="6.84537">
        <ele>2768.73</ele>
        <time>2015-04-06T09:28:28Z</time>
      </trkpt>
      <trkpt lat="44.52721" lon="6.84542">
        <ele>2769.7</ele>
        <time>2015-04-06T09:28:42Z</time>
      </trkpt>
      <trkpt lat="44.5273" lon="6.84545">
        <ele>2772.1</ele>
        <time>2015-04-06T09:28:58Z</time>
      </trkpt>
      <trkpt lat="44.52738" lon="6.8455">
        <ele>2774.02</ele>
        <time>2015-04-06T09:29:15Z</time>
      </trkpt>
      <trkpt lat="44.52746" lon="6.84554">
        <ele>2775.46</ele>
        <time>2015-04-06T09:29:31Z</time>
      </trkpt>
      <trkpt lat="44.52753" lon="6.84557">
        <ele>2776.42</ele>
        <time>2015-04-06T09:29:45Z</time>
      </trkpt>
      <trkpt lat="44.5276" lon="6.84561">
        <ele>2777.87</ele>
        <time>2015-04-06T09:29:59Z</time>
      </trkpt>
      <trkpt lat="44.52767" lon="6.84568">
        <ele>2779.79</ele>
        <time>2015-04-06T09:30:14Z</time>
      </trkpt>
      <trkpt lat="44.52774" lon="6.84572">
        <ele>2781.23</ele>
        <time>2015-04-06T09:30:30Z</time>
      </trkpt>
      <trkpt lat="44.52782" lon="6.84576">
        <ele>2783.15</ele>
        <time>2015-04-06T09:30:46Z</time>
      </trkpt>
      <trkpt lat="44.52795" lon="6.84579">
        <ele>2785.56</ele>
        <time>2015-04-06T09:31:07Z</time>
      </trkpt>
      <trkpt lat="44.52805" lon="6.84587">
        <ele>2787.48</ele>
        <time>2015-04-06T09:31:25Z</time>
      </trkpt>
      <trkpt lat="44.52816" lon="6.84597">
        <ele>2788.44</ele>
        <time>2015-04-06T09:31:42Z</time>
      </trkpt>
      <trkpt lat="44.52819" lon="6.84602">
        <ele>2788.92</ele>
        <time>2015-04-06T09:31:56Z</time>
      </trkpt>
      <trkpt lat="44.52814" lon="6.84603">
        <ele>2789.4</ele>
        <time>2015-04-06T09:32:11Z</time>
      </trkpt>
      <trkpt lat="44.52826" lon="6.84606">
        <ele>2789.4</ele>
        <time>2015-04-06T09:32:27Z</time>
      </trkpt>
      <trkpt lat="44.52837" lon="6.84606">
        <ele>2789.4</ele>
        <time>2015-04-06T09:32:40Z</time>
      </trkpt>
      <trkpt lat="44.52848" lon="6.84605">
        <ele>2790.36</ele>
        <time>2015-04-06T09:32:53Z</time>
      </trkpt>
      <trkpt lat="44.5286" lon="6.84604">
        <ele>2790.84</ele>
        <time>2015-04-06T09:33:08Z</time>
      </trkpt>
      <trkpt lat="44.52873" lon="6.84605">
        <ele>2790.84</ele>
        <time>2015-04-06T09:33:22Z</time>
      </trkpt>
      <trkpt lat="44.52886" lon="6.84607">
        <ele>2790.84</ele>
        <time>2015-04-06T09:33:34Z</time>
      </trkpt>
      <trkpt lat="44.5289" lon="6.84609">
        <ele>2790.84</ele>
        <time>2015-04-06T09:33:39Z</time>
      </trkpt>
      <trkpt lat="44.52895" lon="6.84611">
        <ele>2789.88</ele>
        <time>2015-04-06T09:33:44Z</time>
      </trkpt>
      <trkpt lat="44.52906" lon="6.84621">
        <ele>2789.88</ele>
        <time>2015-04-06T09:33:57Z</time>
      </trkpt>
      <trkpt lat="44.52916" lon="6.84627">
        <ele>2789.88</ele>
        <time>2015-04-06T09:34:09Z</time>
      </trkpt>
      <trkpt lat="44.52927" lon="6.84636">
        <ele>2790.84</ele>
        <time>2015-04-06T09:34:28Z</time>
      </trkpt>
      <trkpt lat="44.52938" lon="6.84642">
        <ele>2791.81</ele>
        <time>2015-04-06T09:34:44Z</time>
      </trkpt>
      <trkpt lat="44.52947" lon="6.84648">
        <ele>2792.29</ele>
        <time>2015-04-06T09:34:57Z</time>
      </trkpt>
      <trkpt lat="44.52958" lon="6.84654">
        <ele>2792.77</ele>
        <time>2015-04-06T09:35:15Z</time>
      </trkpt>
      <trkpt lat="44.5297" lon="6.84659">
        <ele>2792.77</ele>
        <time>2015-04-06T09:35:31Z</time>
      </trkpt>
      <trkpt lat="44.52977" lon="6.8466">
        <ele>2792.77</ele>
        <time>2015-04-06T09:35:39Z</time>
      </trkpt>
      <trkpt lat="44.52991" lon="6.84663">
        <ele>2793.73</ele>
        <time>2015-04-06T09:36:00Z</time>
      </trkpt>
      <trkpt lat="44.52999" lon="6.84664">
        <ele>2794.21</ele>
        <time>2015-04-06T09:36:10Z</time>
      </trkpt>
      <trkpt lat="44.53013" lon="6.84666">
        <ele>2795.65</ele>
        <time>2015-04-06T09:36:30Z</time>
      </trkpt>
      <trkpt lat="44.53025" lon="6.84669">
        <ele>2796.13</ele>
        <time>2015-04-06T09:36:43Z</time>
      </trkpt>
      <trkpt lat="44.53036" lon="6.84669">
        <ele>2796.61</ele>
        <time>2015-04-06T09:36:58Z</time>
      </trkpt>
      <trkpt lat="44.53052" lon="6.84673">
        <ele>2798.54</ele>
        <time>2015-04-06T09:37:18Z</time>
      </trkpt>
      <trkpt lat="44.53061" lon="6.84675">
        <ele>2798.54</ele>
        <time>2015-04-06T09:37:30Z</time>
      </trkpt>
      <trkpt lat="44.53068" lon="6.84677">
        <ele>2799.02</ele>
        <time>2015-04-06T09:37:38Z</time>
      </trkpt>
      <trkpt lat="44.53077" lon="6.84681">
        <ele>2797.57</ele>
        <time>2015-04-06T09:37:49Z</time>
      </trkpt>
      <trkpt lat="44.5309" lon="6.84687">
        <ele>2796.13</ele>
        <time>2015-04-06T09:38:03Z</time>
      </trkpt>
      <trkpt lat="44.53101" lon="6.84688">
        <ele>2795.17</ele>
        <time>2015-04-06T09:38:14Z</time>
      </trkpt>
      <trkpt lat="44.53114" lon="6.84692">
        <ele>2793.73</ele>
        <time>2015-04-06T09:38:28Z</time>
      </trkpt>
      <trkpt lat="44.53124" lon="6.84692">
        <ele>2793.73</ele>
        <time>2015-04-06T09:38:41Z</time>
      </trkpt>
      <trkpt lat="44.53127" lon="6.84692">
        <ele>2793.73</ele>
        <time>2015-04-06T09:38:45Z</time>
      </trkpt>
      <trkpt lat="44.53135" lon="6.84694">
        <ele>2794.69</ele>
        <time>2015-04-06T09:38:57Z</time>
      </trkpt>
      <trkpt lat="44.53144" lon="6.84696">
        <ele>2796.61</ele>
        <time>2015-04-06T09:39:10Z</time>
      </trkpt>
      <trkpt lat="44.53154" lon="6.84701">
        <ele>2798.05</ele>
        <time>2015-04-06T09:39:26Z</time>
      </trkpt>
      <trkpt lat="44.53162" lon="6.84706">
        <ele>2798.05</ele>
        <time>2015-04-06T09:39:38Z</time>
      </trkpt>
      <trkpt lat="44.53168" lon="6.84711">
        <ele>2798.05</ele>
        <time>2015-04-06T09:39:55Z</time>
      </trkpt>
      <trkpt lat="44.53172" lon="6.84718">
        <ele>2798.05</ele>
        <time>2015-04-06T09:40:06Z</time>
      </trkpt>
      <trkpt lat="44.53176" lon="6.84725">
        <ele>2798.05</ele>
        <time>2015-04-06T09:40:17Z</time>
      </trkpt>
      <trkpt lat="44.53187" lon="6.84733">
        <ele>2795.17</ele>
        <time>2015-04-06T09:40:23Z</time>
      </trkpt>
      <trkpt lat="44.53199" lon="6.84737">
        <ele>2793.25</ele>
        <time>2015-04-06T09:40:34Z</time>
      </trkpt>
      <trkpt lat="44.53202" lon="6.84738">
        <ele>2792.29</ele>
        <time>2015-04-06T09:40:36Z</time>
      </trkpt>
      <trkpt lat="44.53204" lon="6.84739">
        <ele>2792.29</ele>
        <time>2015-04-06T09:40:38Z</time>
      </trkpt>
      <trkpt lat="44.53206" lon="6.84739">
        <ele>2791.81</ele>
        <time>2015-04-06T09:40:39Z</time>
      </trkpt>
      <trkpt lat="44.53215" lon="6.84739">
        <ele>2790.36</ele>
        <time>2015-04-06T09:40:51Z</time>
      </trkpt>
      <trkpt lat="44.53221" lon="6.8474">
        <ele>2790.36</ele>
        <time>2015-04-06T09:40:58Z</time>
      </trkpt>
      <trkpt lat="44.53222" lon="6.8474">
        <ele>2790.36</ele>
        <time>2015-04-06T09:40:59Z</time>
      </trkpt>
      <trkpt lat="44.53223" lon="6.8474">
        <ele>2789.88</ele>
        <time>2015-04-06T09:41:00Z</time>
      </trkpt>
      <trkpt lat="44.53225" lon="6.8474">
        <ele>2789.88</ele>
        <time>2015-04-06T09:41:01Z</time>
      </trkpt>
      <trkpt lat="44.53237" lon="6.84741">
        <ele>2788.44</ele>
        <time>2015-04-06T09:41:14Z</time>
      </trkpt>
      <trkpt lat="44.53247" lon="6.8474">
        <ele>2787.96</ele>
        <time>2015-04-06T09:41:26Z</time>
      </trkpt>
      <trkpt lat="44.53259" lon="6.8474">
        <ele>2786.52</ele>
        <time>2015-04-06T09:41:42Z</time>
      </trkpt>
      <trkpt lat="44.53267" lon="6.84739">
        <ele>2784.6</ele>
        <time>2015-04-06T09:41:49Z</time>
      </trkpt>
      <trkpt lat="44.53268" lon="6.84739">
        <ele>2784.6</ele>
        <time>2015-04-06T09:41:50Z</time>
      </trkpt>
      <trkpt lat="44.5327" lon="6.84739">
        <ele>2783.63</ele>
        <time>2015-04-06T09:41:51Z</time>
      </trkpt>
      <trkpt lat="44.53278" lon="6.84741">
        <ele>2785.08</ele>
        <time>2015-04-06T09:42:02Z</time>
      </trkpt>
      <trkpt lat="44.53279" lon="6.84741">
        <ele>2785.08</ele>
        <time>2015-04-06T09:42:03Z</time>
      </trkpt>
      <trkpt lat="44.5329" lon="6.84745">
        <ele>2786.04</ele>
        <time>2015-04-06T09:42:18Z</time>
      </trkpt>
      <trkpt lat="44.53292" lon="6.84744">
        <ele>2786.52</ele>
        <time>2015-04-06T09:42:34Z</time>
      </trkpt>
      <trkpt lat="44.53303" lon="6.84752">
        <ele>2788.92</ele>
        <time>2015-04-06T09:42:55Z</time>
      </trkpt>
      <trkpt lat="44.53311" lon="6.84757">
        <ele>2790.36</ele>
        <time>2015-04-06T09:43:08Z</time>
      </trkpt>
      <trkpt lat="44.53321" lon="6.84764">
        <ele>2791.33</ele>
        <time>2015-04-06T09:43:25Z</time>
      </trkpt>
      <trkpt lat="44.53336" lon="6.84774">
        <ele>2788.44</ele>
        <time>2015-04-06T09:43:37Z</time>
      </trkpt>
      <trkpt lat="44.53351" lon="6.84778">
        <ele>2785.08</ele>
        <time>2015-04-06T09:43:40Z</time>
      </trkpt>
      <trkpt lat="44.53369" lon="6.84782">
        <ele>2781.71</ele>
        <time>2015-04-06T09:43:43Z</time>
      </trkpt>
      <trkpt lat="44.5339" lon="6.84786">
        <ele>2779.31</ele>
        <time>2015-04-06T09:43:52Z</time>
      </trkpt>
      <trkpt lat="44.53402" lon="6.84789">
        <ele>2778.83</ele>
        <time>2015-04-06T09:44:05Z</time>
      </trkpt>
      <trkpt lat="44.53413" lon="6.84792">
        <ele>2779.31</ele>
        <time>2015-04-06T09:44:17Z</time>
      </trkpt>
      <trkpt lat="44.53418" lon="6.84793">
        <ele>2778.83</ele>
        <time>2015-04-06T09:44:24Z</time>
      </trkpt>
      <trkpt lat="44.53434" lon="6.84796">
        <ele>2778.83</ele>
        <time>2015-04-06T09:44:38Z</time>
      </trkpt>
      <trkpt lat="44.53443" lon="6.84799">
        <ele>2778.83</ele>
        <time>2015-04-06T09:44:47Z</time>
      </trkpt>
      <trkpt lat="44.53456" lon="6.84802">
        <ele>2778.83</ele>
        <time>2015-04-06T09:45:02Z</time>
      </trkpt>
      <trkpt lat="44.53468" lon="6.84804">
        <ele>2778.35</ele>
        <time>2015-04-06T09:45:16Z</time>
      </trkpt>
      <trkpt lat="44.53479" lon="6.84806">
        <ele>2779.79</ele>
        <time>2015-04-06T09:45:30Z</time>
      </trkpt>
      <trkpt lat="44.53489" lon="6.84805">
        <ele>2780.27</ele>
        <time>2015-04-06T09:45:41Z</time>
      </trkpt>
      <trkpt lat="44.53499" lon="6.84804">
        <ele>2781.71</ele>
        <time>2015-04-06T09:45:56Z</time>
      </trkpt>
      <trkpt lat="44.53504" lon="6.84807">
        <ele>2781.71</ele>
        <time>2015-04-06T09:46:11Z</time>
      </trkpt>
      <trkpt lat="44.53506" lon="6.84809">
        <ele>2781.71</ele>
        <time>2015-04-06T09:46:42Z</time>
      </trkpt>
      <trkpt lat="44.53506" lon="6.84807">
        <ele>2781.71</ele>
        <time>2015-04-06T09:47:16Z</time>
      </trkpt>
      <trkpt lat="44.53503" lon="6.84807">
        <ele>2780.75</ele>
        <time>2015-04-06T09:47:38Z</time>
      </trkpt>
      <trkpt lat="44.53501" lon="6.84809">
        <ele>2780.75</ele>
        <time>2015-04-06T09:48:13Z</time>
      </trkpt>
      <trkpt lat="44.53501" lon="6.84807">
        <ele>2776.42</ele>
        <time>2015-04-06T09:48:28Z</time>
      </trkpt>
      <trkpt lat="44.53501" lon="6.84808">
        <ele>2781.71</ele>
        <time>2015-04-06T09:48:29Z</time>
      </trkpt>
      <trkpt lat="44.53502" lon="6.84811">
        <ele>2780.27</ele>
        <time>2015-04-06T09:48:34Z</time>
      </trkpt>
      <trkpt lat="44.53504" lon="6.84807">
        <ele>2781.71</ele>
        <time>2015-04-06T09:48:48Z</time>
      </trkpt>
      <trkpt lat="44.53505" lon="6.84808">
        <ele>2781.71</ele>
        <time>2015-04-06T09:49:09Z</time>
      </trkpt>
      <trkpt lat="44.53507" lon="6.84813">
        <ele>2781.71</ele>
        <time>2015-04-06T09:49:39Z</time>
      </trkpt>
      <trkpt lat="44.53518" lon="6.84819">
        <ele>2781.71</ele>
        <time>2015-04-06T09:49:53Z</time>
      </trkpt>
      <trkpt lat="44.5352" lon="6.8482">
        <ele>2781.71</ele>
        <time>2015-04-06T09:49:55Z</time>
      </trkpt>
      <trkpt lat="44.53533" lon="6.84829">
        <ele>2781.71</ele>
        <time>2015-04-06T09:50:11Z</time>
      </trkpt>
      <trkpt lat="44.5354" lon="6.84832">
        <ele>2781.71</ele>
        <time>2015-04-06T09:50:20Z</time>
      </trkpt>
      <trkpt lat="44.53551" lon="6.84838">
        <ele>2781.71</ele>
        <time>2015-04-06T09:50:33Z</time>
      </trkpt>
      <trkpt lat="44.53562" lon="6.84843">
        <ele>2781.71</ele>
        <time>2015-04-06T09:50:47Z</time>
      </trkpt>
      <trkpt lat="44.53572" lon="6.84849">
        <ele>2781.71</ele>
        <time>2015-04-06T09:51:00Z</time>
      </trkpt>
      <trkpt lat="44.53582" lon="6.84856">
        <ele>2781.71</ele>
        <time>2015-04-06T09:51:14Z</time>
      </trkpt>
      <trkpt lat="44.53595" lon="6.84859">
        <ele>2782.67</ele>
        <time>2015-04-06T09:51:33Z</time>
      </trkpt>
      <trkpt lat="44.53607" lon="6.84859">
        <ele>2783.15</ele>
        <time>2015-04-06T09:51:53Z</time>
      </trkpt>
      <trkpt lat="44.53609" lon="6.84859">
        <ele>2783.63</ele>
        <time>2015-04-06T09:52:11Z</time>
      </trkpt>
      <trkpt lat="44.5362" lon="6.84866">
        <ele>2785.56</ele>
        <time>2015-04-06T09:52:28Z</time>
      </trkpt>
      <trkpt lat="44.53625" lon="6.84874">
        <ele>2787</ele>
        <time>2015-04-06T09:52:42Z</time>
      </trkpt>
      <trkpt lat="44.53631" lon="6.84884">
        <ele>2788.92</ele>
        <time>2015-04-06T09:52:58Z</time>
      </trkpt>
      <trkpt lat="44.53634" lon="6.84894">
        <ele>2789.88</ele>
        <time>2015-04-06T09:53:10Z</time>
      </trkpt>
      <trkpt lat="44.53637" lon="6.84904">
        <ele>2791.81</ele>
        <time>2015-04-06T09:53:27Z</time>
      </trkpt>
      <trkpt lat="44.53639" lon="6.84912">
        <ele>2794.21</ele>
        <time>2015-04-06T09:53:46Z</time>
      </trkpt>
      <trkpt lat="44.53644" lon="6.84922">
        <ele>2797.09</ele>
        <time>2015-04-06T09:54:05Z</time>
      </trkpt>
      <trkpt lat="44.53651" lon="6.84932">
        <ele>2800.46</ele>
        <time>2015-04-06T09:54:25Z</time>
      </trkpt>
      <trkpt lat="44.53652" lon="6.8494">
        <ele>2802.86</ele>
        <time>2015-04-06T09:54:41Z</time>
      </trkpt>
      <trkpt lat="44.53649" lon="6.84942">
        <ele>2803.82</ele>
        <time>2015-04-06T09:54:53Z</time>
      </trkpt>
      <trkpt lat="44.53655" lon="6.84949">
        <ele>2805.26</ele>
        <time>2015-04-06T09:55:06Z</time>
      </trkpt>
      <trkpt lat="44.53657" lon="6.84958">
        <ele>2806.71</ele>
        <time>2015-04-06T09:55:23Z</time>
      </trkpt>
      <trkpt lat="44.5366" lon="6.84966">
        <ele>2806.71</ele>
        <time>2015-04-06T09:55:37Z</time>
      </trkpt>
      <trkpt lat="44.53663" lon="6.84975">
        <ele>2808.15</ele>
        <time>2015-04-06T09:55:49Z</time>
      </trkpt>
      <trkpt lat="44.5367" lon="6.84989">
        <ele>2808.63</ele>
        <time>2015-04-06T09:56:05Z</time>
      </trkpt>
      <trkpt lat="44.53676" lon="6.84999">
        <ele>2808.63</ele>
        <time>2015-04-06T09:56:17Z</time>
      </trkpt>
      <trkpt lat="44.53681" lon="6.85012">
        <ele>2808.63</ele>
        <time>2015-04-06T09:56:30Z</time>
      </trkpt>
      <trkpt lat="44.53683" lon="6.85018">
        <ele>2807.67</ele>
        <time>2015-04-06T09:56:34Z</time>
      </trkpt>
      <trkpt lat="44.53687" lon="6.85028">
        <ele>2806.71</ele>
        <time>2015-04-06T09:56:41Z</time>
      </trkpt>
      <trkpt lat="44.53694" lon="6.85045">
        <ele>2805.75</ele>
        <time>2015-04-06T09:56:54Z</time>
      </trkpt>
      <trkpt lat="44.53697" lon="6.85053">
        <ele>2805.75</ele>
        <time>2015-04-06T09:57:06Z</time>
      </trkpt>
      <trkpt lat="44.53699" lon="6.85066">
        <ele>2805.75</ele>
        <time>2015-04-06T09:57:19Z</time>
      </trkpt>
      <trkpt lat="44.53701" lon="6.85086">
        <ele>2805.75</ele>
        <time>2015-04-06T09:57:37Z</time>
      </trkpt>
      <trkpt lat="44.53703" lon="6.85096">
        <ele>2806.71</ele>
        <time>2015-04-06T09:57:49Z</time>
      </trkpt>
      <trkpt lat="44.53704" lon="6.85111">
        <ele>2806.71</ele>
        <time>2015-04-06T09:58:03Z</time>
      </trkpt>
      <trkpt lat="44.53703" lon="6.85123">
        <ele>2807.19</ele>
        <time>2015-04-06T09:58:14Z</time>
      </trkpt>
      <trkpt lat="44.537" lon="6.85136">
        <ele>2807.67</ele>
        <time>2015-04-06T09:58:26Z</time>
      </trkpt>
      <trkpt lat="44.53695" lon="6.85147">
        <ele>2807.67</ele>
        <time>2015-04-06T09:58:43Z</time>
      </trkpt>
      <trkpt lat="44.5369" lon="6.85155">
        <ele>2807.67</ele>
        <time>2015-04-06T09:58:58Z</time>
      </trkpt>
      <trkpt lat="44.53689" lon="6.85158">
        <ele>2806.23</ele>
        <time>2015-04-06T09:59:03Z</time>
      </trkpt>
      <trkpt lat="44.53685" lon="6.85166">
        <ele>2805.26</ele>
        <time>2015-04-06T09:59:11Z</time>
      </trkpt>
      <trkpt lat="44.53679" lon="6.8518">
        <ele>2804.78</ele>
        <time>2015-04-06T09:59:26Z</time>
      </trkpt>
      <trkpt lat="44.5368" lon="6.85189">
        <ele>2804.78</ele>
        <time>2015-04-06T09:59:39Z</time>
      </trkpt>
      <trkpt lat="44.53679" lon="6.85201">
        <ele>2806.71</ele>
        <time>2015-04-06T09:59:52Z</time>
      </trkpt>
      <trkpt lat="44.5368" lon="6.85217">
        <ele>2808.15</ele>
        <time>2015-04-06T10:00:07Z</time>
      </trkpt>
      <trkpt lat="44.53676" lon="6.85232">
        <ele>2808.63</ele>
        <time>2015-04-06T10:00:23Z</time>
      </trkpt>
      <trkpt lat="44.53676" lon="6.85238">
        <ele>2808.63</ele>
        <time>2015-04-06T10:00:29Z</time>
      </trkpt>
      <trkpt lat="44.53676" lon="6.8524">
        <ele>2807.19</ele>
        <time>2015-04-06T10:00:31Z</time>
      </trkpt>
      <trkpt lat="44.53677" lon="6.85246">
        <ele>2806.71</ele>
        <time>2015-04-06T10:00:33Z</time>
      </trkpt>
      <trkpt lat="44.53679" lon="6.85249">
        <ele>2805.75</ele>
        <time>2015-04-06T10:00:34Z</time>
      </trkpt>
      <trkpt lat="44.53691" lon="6.85274">
        <ele>2802.38</ele>
        <time>2015-04-06T10:00:41Z</time>
      </trkpt>
      <trkpt lat="44.53696" lon="6.85286">
        <ele>2800.94</ele>
        <time>2015-04-06T10:00:44Z</time>
      </trkpt>
      <trkpt lat="44.53699" lon="6.85302">
        <ele>2799.98</ele>
        <time>2015-04-06T10:00:54Z</time>
      </trkpt>
      <trkpt lat="44.537" lon="6.85313">
        <ele>2799.98</ele>
        <time>2015-04-06T10:01:03Z</time>
      </trkpt>
      <trkpt lat="44.53701" lon="6.85315">
        <ele>2799.98</ele>
        <time>2015-04-06T10:01:04Z</time>
      </trkpt>
      <trkpt lat="44.53701" lon="6.85316">
        <ele>2799.98</ele>
        <time>2015-04-06T10:01:05Z</time>
      </trkpt>
      <trkpt lat="44.53701" lon="6.85318">
        <ele>2799.98</ele>
        <time>2015-04-06T10:01:06Z</time>
      </trkpt>
      <trkpt lat="44.53702" lon="6.85319">
        <ele>2799.98</ele>
        <time>2015-04-06T10:01:07Z</time>
      </trkpt>
      <trkpt lat="44.53702" lon="6.85325">
        <ele>2799.98</ele>
        <time>2015-04-06T10:01:11Z</time>
      </trkpt>
      <trkpt lat="44.53702" lon="6.85326">
        <ele>2799.98</ele>
        <time>2015-04-06T10:01:12Z</time>
      </trkpt>
      <trkpt lat="44.53703" lon="6.85327">
        <ele>2799.98</ele>
        <time>2015-04-06T10:01:13Z</time>
      </trkpt>
      <trkpt lat="44.53703" lon="6.85329">
        <ele>2799.98</ele>
        <time>2015-04-06T10:01:14Z</time>
      </trkpt>
      <trkpt lat="44.53704" lon="6.85339">
        <ele>2799.02</ele>
        <time>2015-04-06T10:01:20Z</time>
      </trkpt>
      <trkpt lat="44.53704" lon="6.8536">
        <ele>2797.57</ele>
        <time>2015-04-06T10:01:34Z</time>
      </trkpt>
      <trkpt lat="44.53705" lon="6.85367">
        <ele>2797.57</ele>
        <time>2015-04-06T10:02:00Z</time>
      </trkpt>
      <trkpt lat="44.53704" lon="6.85377">
        <ele>2799.98</ele>
        <time>2015-04-06T10:02:14Z</time>
      </trkpt>
      <trkpt lat="44.53702" lon="6.85383">
        <ele>2800.94</ele>
        <time>2015-04-06T10:02:26Z</time>
      </trkpt>
      <trkpt lat="44.53699" lon="6.85393">
        <ele>2802.86</ele>
        <time>2015-04-06T10:02:42Z</time>
      </trkpt>
      <trkpt lat="44.53694" lon="6.85405">
        <ele>2804.78</ele>
        <time>2015-04-06T10:03:02Z</time>
      </trkpt>
      <trkpt lat="44.53689" lon="6.85412">
        <ele>2807.19</ele>
        <time>2015-04-06T10:03:19Z</time>
      </trkpt>
      <trkpt lat="44.53685" lon="6.8542">
        <ele>2809.11</ele>
        <time>2015-04-06T10:03:34Z</time>
      </trkpt>
      <trkpt lat="44.53686" lon="6.85429">
        <ele>2810.55</ele>
        <time>2015-04-06T10:03:47Z</time>
      </trkpt>
      <trkpt lat="44.53689" lon="6.85439">
        <ele>2811.99</ele>
        <time>2015-04-06T10:04:04Z</time>
      </trkpt>
      <trkpt lat="44.53693" lon="6.85449">
        <ele>2813.44</ele>
        <time>2015-04-06T10:04:20Z</time>
      </trkpt>
      <trkpt lat="44.53696" lon="6.8546">
        <ele>2815.84</ele>
        <time>2015-04-06T10:04:38Z</time>
      </trkpt>
      <trkpt lat="44.53693" lon="6.85472">
        <ele>2818.72</ele>
        <time>2015-04-06T10:04:57Z</time>
      </trkpt>
      <trkpt lat="44.53695" lon="6.85482">
        <ele>2819.68</ele>
        <time>2015-04-06T10:05:14Z</time>
      </trkpt>
      <trkpt lat="44.53697" lon="6.85493">
        <ele>2821.13</ele>
        <time>2015-04-06T10:05:29Z</time>
      </trkpt>
      <trkpt lat="44.53696" lon="6.85505">
        <ele>2823.53</ele>
        <time>2015-04-06T10:05:46Z</time>
      </trkpt>
      <trkpt lat="44.53693" lon="6.85515">
        <ele>2824.97</ele>
        <time>2015-04-06T10:06:00Z</time>
      </trkpt>
      <trkpt lat="44.53689" lon="6.85526">
        <ele>2826.41</ele>
        <time>2015-04-06T10:06:17Z</time>
      </trkpt>
      <trkpt lat="44.53687" lon="6.85537">
        <ele>2829.3</ele>
        <time>2015-04-06T10:06:38Z</time>
      </trkpt>
      <trkpt lat="44.53685" lon="6.85549">
        <ele>2830.26</ele>
        <time>2015-04-06T10:06:52Z</time>
      </trkpt>
      <trkpt lat="44.53685" lon="6.85562">
        <ele>2830.74</ele>
        <time>2015-04-06T10:07:07Z</time>
      </trkpt>
      <trkpt lat="44.53685" lon="6.85564">
        <ele>2830.74</ele>
        <time>2015-04-06T10:07:09Z</time>
      </trkpt>
      <trkpt lat="44.53683" lon="6.8557">
        <ele>2831.22</ele>
        <time>2015-04-06T10:07:24Z</time>
      </trkpt>
      <trkpt lat="44.53682" lon="6.85574">
        <ele>2831.22</ele>
        <time>2015-04-06T10:07:36Z</time>
      </trkpt>
      <trkpt lat="44.53682" lon="6.85575">
        <ele>2831.22</ele>
        <time>2015-04-06T10:08:02Z</time>
      </trkpt>
      <trkpt lat="44.53682" lon="6.85575">
        <ele>2831.22</ele>
        <time>2015-04-06T10:08:37Z</time>
      </trkpt>
      <trkpt lat="44.53682" lon="6.85575">
        <ele>2831.22</ele>
        <time>2015-04-06T10:09:10Z</time>
      </trkpt>
      <trkpt lat="44.53683" lon="6.85574">
        <ele>2831.7</ele>
        <time>2015-04-06T10:09:42Z</time>
      </trkpt>
      <trkpt lat="44.53682" lon="6.85574">
        <ele>2831.7</ele>
        <time>2015-04-06T10:10:05Z</time>
      </trkpt>
      <trkpt lat="44.53681" lon="6.85576">
        <ele>2831.7</ele>
        <time>2015-04-06T10:10:37Z</time>
      </trkpt>
      <trkpt lat="44.53683" lon="6.85577">
        <ele>2831.7</ele>
        <time>2015-04-06T10:11:17Z</time>
      </trkpt>
      <trkpt lat="44.53684" lon="6.85577">
        <ele>2832.18</ele>
        <time>2015-04-06T10:11:40Z</time>
      </trkpt>
      <trkpt lat="44.53684" lon="6.85577">
        <ele>2832.18</ele>
        <time>2015-04-06T10:11:53Z</time>
      </trkpt>
      <trkpt lat="44.53684" lon="6.85576">
        <ele>2832.18</ele>
        <time>2015-04-06T10:12:43Z</time>
      </trkpt>
      <trkpt lat="44.53683" lon="6.85574">
        <ele>2832.66</ele>
        <time>2015-04-06T10:13:23Z</time>
      </trkpt>
      <trkpt lat="44.53681" lon="6.85576">
        <ele>2832.66</ele>
        <time>2015-04-06T10:14:04Z</time>
      </trkpt>
      <trkpt lat="44.53684" lon="6.85578">
        <ele>2831.7</ele>
        <time>2015-04-06T10:14:54Z</time>
      </trkpt>
      <trkpt lat="44.53684" lon="6.85576">
        <ele>2831.7</ele>
        <time>2015-04-06T10:15:15Z</time>
      </trkpt>
      <trkpt lat="44.53684" lon="6.85577">
        <ele>2831.7</ele>
        <time>2015-04-06T10:15:28Z</time>
      </trkpt>
      <trkpt lat="44.53683" lon="6.85589">
        <ele>2833.14</ele>
        <time>2015-04-06T10:15:46Z</time>
      </trkpt>
      <trkpt lat="44.53682" lon="6.85603">
        <ele>2833.62</ele>
        <time>2015-04-06T10:15:59Z</time>
      </trkpt>
      <trkpt lat="44.53683" lon="6.85608">
        <ele>2833.62</ele>
        <time>2015-04-06T10:16:05Z</time>
      </trkpt>
      <trkpt lat="44.53683" lon="6.85626">
        <ele>2834.1</ele>
        <time>2015-04-06T10:16:21Z</time>
      </trkpt>
      <trkpt lat="44.53684" lon="6.85641">
        <ele>2835.06</ele>
        <time>2015-04-06T10:16:37Z</time>
      </trkpt>
      <trkpt lat="44.53682" lon="6.85656">
        <ele>2836.03</ele>
        <time>2015-04-06T10:16:52Z</time>
      </trkpt>
      <trkpt lat="44.53681" lon="6.8567">
        <ele>2838.91</ele>
        <time>2015-04-06T10:17:10Z</time>
      </trkpt>
      <trkpt lat="44.53681" lon="6.85681">
        <ele>2839.87</ele>
        <time>2015-04-06T10:17:22Z</time>
      </trkpt>
      <trkpt lat="44.53681" lon="6.85693">
        <ele>2840.83</ele>
        <time>2015-04-06T10:17:35Z</time>
      </trkpt>
      <trkpt lat="44.53684" lon="6.8571">
        <ele>2840.83</ele>
        <time>2015-04-06T10:17:50Z</time>
      </trkpt>
      <trkpt lat="44.53685" lon="6.85727">
        <ele>2841.31</ele>
        <time>2015-04-06T10:18:07Z</time>
      </trkpt>
      <trkpt lat="44.53685" lon="6.85742">
        <ele>2842.76</ele>
        <time>2015-04-06T10:18:22Z</time>
      </trkpt>
      <trkpt lat="44.53686" lon="6.85759">
        <ele>2843.72</ele>
        <time>2015-04-06T10:18:39Z</time>
      </trkpt>
      <trkpt lat="44.53686" lon="6.85772">
        <ele>2845.16</ele>
        <time>2015-04-06T10:18:54Z</time>
      </trkpt>
      <trkpt lat="44.53687" lon="6.85788">
        <ele>2845.64</ele>
        <time>2015-04-06T10:19:07Z</time>
      </trkpt>
      <trkpt lat="44.53687" lon="6.85789">
        <ele>2845.64</ele>
        <time>2015-04-06T10:19:08Z</time>
      </trkpt>
      <trkpt lat="44.53688" lon="6.85806">
        <ele>2846.12</ele>
        <time>2015-04-06T10:19:24Z</time>
      </trkpt>
      <trkpt lat="44.53686" lon="6.85822">
        <ele>2847.56</ele>
        <time>2015-04-06T10:19:41Z</time>
      </trkpt>
      <trkpt lat="44.53684" lon="6.85836">
        <ele>2848.04</ele>
        <time>2015-04-06T10:19:53Z</time>
      </trkpt>
      <trkpt lat="44.53683" lon="6.85853">
        <ele>2849</ele>
        <time>2015-04-06T10:20:11Z</time>
      </trkpt>
      <trkpt lat="44.53682" lon="6.85864">
        <ele>2850.45</ele>
        <time>2015-04-06T10:20:24Z</time>
      </trkpt>
      <trkpt lat="44.53679" lon="6.85875">
        <ele>2852.37</ele>
        <time>2015-04-06T10:20:41Z</time>
      </trkpt>
      <trkpt lat="44.53676" lon="6.85889">
        <ele>2853.81</ele>
        <time>2015-04-06T10:20:59Z</time>
      </trkpt>
      <trkpt lat="44.53675" lon="6.85905">
        <ele>2855.73</ele>
        <time>2015-04-06T10:21:19Z</time>
      </trkpt>
      <trkpt lat="44.53671" lon="6.85921">
        <ele>2856.21</ele>
        <time>2015-04-06T10:21:35Z</time>
      </trkpt>
      <trkpt lat="44.53668" lon="6.85936">
        <ele>2857.66</ele>
        <time>2015-04-06T10:21:50Z</time>
      </trkpt>
      <trkpt lat="44.53666" lon="6.8595">
        <ele>2857.66</ele>
        <time>2015-04-06T10:22:02Z</time>
      </trkpt>
      <trkpt lat="44.53664" lon="6.85965">
        <ele>2857.66</ele>
        <time>2015-04-06T10:22:16Z</time>
      </trkpt>
      <trkpt lat="44.53662" lon="6.85976">
        <ele>2858.62</ele>
        <time>2015-04-06T10:22:30Z</time>
      </trkpt>
      <trkpt lat="44.5366" lon="6.85993">
        <ele>2861.02</ele>
        <time>2015-04-06T10:22:52Z</time>
      </trkpt>
      <trkpt lat="44.53658" lon="6.86009">
        <ele>2862.94</ele>
        <time>2015-04-06T10:23:12Z</time>
      </trkpt>
      <trkpt lat="44.53657" lon="6.86025">
        <ele>2863.42</ele>
        <time>2015-04-06T10:23:30Z</time>
      </trkpt>
      <trkpt lat="44.53656" lon="6.86038">
        <ele>2864.87</ele>
        <time>2015-04-06T10:23:43Z</time>
      </trkpt>
      <trkpt lat="44.53653" lon="6.86049">
        <ele>2866.79</ele>
        <time>2015-04-06T10:24:00Z</time>
      </trkpt>
      <trkpt lat="44.53653" lon="6.86061">
        <ele>2868.23</ele>
        <time>2015-04-06T10:24:17Z</time>
      </trkpt>
      <trkpt lat="44.53652" lon="6.86072">
        <ele>2870.63</ele>
        <time>2015-04-06T10:24:38Z</time>
      </trkpt>
      <trkpt lat="44.53654" lon="6.86082">
        <ele>2872.56</ele>
        <time>2015-04-06T10:24:54Z</time>
      </trkpt>
      <trkpt lat="44.53654" lon="6.86093">
        <ele>2874.96</ele>
        <time>2015-04-06T10:25:10Z</time>
      </trkpt>
      <trkpt lat="44.53655" lon="6.86102">
        <ele>2876.88</ele>
        <time>2015-04-06T10:25:25Z</time>
      </trkpt>
      <trkpt lat="44.53656" lon="6.86115">
        <ele>2878.32</ele>
        <time>2015-04-06T10:25:43Z</time>
      </trkpt>
      <trkpt lat="44.53654" lon="6.86128">
        <ele>2881.21</ele>
        <time>2015-04-06T10:26:03Z</time>
      </trkpt>
      <trkpt lat="44.5365" lon="6.86137">
        <ele>2883.13</ele>
        <time>2015-04-06T10:26:19Z</time>
      </trkpt>
      <trkpt lat="44.53647" lon="6.86145">
        <ele>2885.05</ele>
        <time>2015-04-06T10:26:38Z</time>
      </trkpt>
      <trkpt lat="44.53647" lon="6.86142">
        <ele>2885.53</ele>
        <time>2015-04-06T10:27:17Z</time>
      </trkpt>
      <trkpt lat="44.53643" lon="6.86153">
        <ele>2887.46</ele>
        <time>2015-04-06T10:27:32Z</time>
      </trkpt>
      <trkpt lat="44.53641" lon="6.86162">
        <ele>2888.9</ele>
        <time>2015-04-06T10:27:50Z</time>
      </trkpt>
      <trkpt lat="44.53639" lon="6.86163">
        <ele>2889.38</ele>
        <time>2015-04-06T10:28:08Z</time>
      </trkpt>
      <trkpt lat="44.53639" lon="6.86174">
        <ele>2890.82</ele>
        <time>2015-04-06T10:28:23Z</time>
      </trkpt>
      <trkpt lat="44.53637" lon="6.8618">
        <ele>2891.78</ele>
        <time>2015-04-06T10:28:46Z</time>
      </trkpt>
      <trkpt lat="44.53633" lon="6.86189">
        <ele>2893.71</ele>
        <time>2015-04-06T10:29:03Z</time>
      </trkpt>
      <trkpt lat="44.53633" lon="6.86194">
        <ele>2894.19</ele>
        <time>2015-04-06T10:29:17Z</time>
      </trkpt>
      <trkpt lat="44.5363" lon="6.862">
        <ele>2895.63</ele>
        <time>2015-04-06T10:29:41Z</time>
      </trkpt>
      <trkpt lat="44.53627" lon="6.86204">
        <ele>2896.59</ele>
        <time>2015-04-06T10:29:58Z</time>
      </trkpt>
      <trkpt lat="44.53626" lon="6.86213">
        <ele>2898.03</ele>
        <time>2015-04-06T10:30:18Z</time>
      </trkpt>
      <trkpt lat="44.53625" lon="6.86218">
        <ele>2898.51</ele>
        <time>2015-04-06T10:30:35Z</time>
      </trkpt>
      <trkpt lat="44.53625" lon="6.86224">
        <ele>2899.47</ele>
        <time>2015-04-06T10:30:49Z</time>
      </trkpt>
      <trkpt lat="44.53625" lon="6.86232">
        <ele>2900.44</ele>
        <time>2015-04-06T10:31:03Z</time>
      </trkpt>
      <trkpt lat="44.53626" lon="6.8624">
        <ele>2901.4</ele>
        <time>2015-04-06T10:31:14Z</time>
      </trkpt>
      <trkpt lat="44.53627" lon="6.86251">
        <ele>2902.36</ele>
        <time>2015-04-06T10:31:29Z</time>
      </trkpt>
      <trkpt lat="44.53629" lon="6.8626">
        <ele>2903.8</ele>
        <time>2015-04-06T10:31:45Z</time>
      </trkpt>
      <trkpt lat="44.53629" lon="6.86267">
        <ele>2904.76</ele>
        <time>2015-04-06T10:32:03Z</time>
      </trkpt>
      <trkpt lat="44.53628" lon="6.8627">
        <ele>2905.24</ele>
        <time>2015-04-06T10:32:22Z</time>
      </trkpt>
      <trkpt lat="44.53631" lon="6.86282">
        <ele>2906.68</ele>
        <time>2015-04-06T10:32:41Z</time>
      </trkpt>
      <trkpt lat="44.53631" lon="6.86287">
        <ele>2907.16</ele>
        <time>2015-04-06T10:32:59Z</time>
      </trkpt>
      <trkpt lat="44.53631" lon="6.86287">
        <ele>2907.16</ele>
        <time>2015-04-06T10:33:19Z</time>
      </trkpt>
      <trkpt lat="44.5363" lon="6.86293">
        <ele>2908.13</ele>
        <time>2015-04-06T10:33:31Z</time>
      </trkpt>
      <trkpt lat="44.53632" lon="6.86304">
        <ele>2909.57</ele>
        <time>2015-04-06T10:33:45Z</time>
      </trkpt>
      <trkpt lat="44.53631" lon="6.86303">
        <ele>2909.57</ele>
        <time>2015-04-06T10:34:04Z</time>
      </trkpt>
      <trkpt lat="44.53631" lon="6.86313">
        <ele>2911.01</ele>
        <time>2015-04-06T10:34:22Z</time>
      </trkpt>
      <trkpt lat="44.53631" lon="6.86312">
        <ele>2911.01</ele>
        <time>2015-04-06T10:34:37Z</time>
      </trkpt>
      <trkpt lat="44.53629" lon="6.86309">
        <ele>2911.97</ele>
        <time>2015-04-06T10:34:52Z</time>
      </trkpt>
      <trkpt lat="44.53627" lon="6.86307">
        <ele>2912.45</ele>
        <time>2015-04-06T10:35:20Z</time>
      </trkpt>
      <trkpt lat="44.53625" lon="6.86303">
        <ele>2913.41</ele>
        <time>2015-04-06T10:35:32Z</time>
      </trkpt>
      <trkpt lat="44.53626" lon="6.86311">
        <ele>2914.37</ele>
        <time>2015-04-06T10:35:44Z</time>
      </trkpt>
      <trkpt lat="44.53626" lon="6.86327">
        <ele>2916.78</ele>
        <time>2015-04-06T10:36:06Z</time>
      </trkpt>
      <trkpt lat="44.53623" lon="6.86338">
        <ele>2918.7</ele>
        <time>2015-04-06T10:36:22Z</time>
      </trkpt>
      <trkpt lat="44.53617" lon="6.86333">
        <ele>2920.14</ele>
        <time>2015-04-06T10:36:37Z</time>
      </trkpt>
      <trkpt lat="44.53604" lon="6.86329">
        <ele>2923.03</ele>
        <time>2015-04-06T10:36:57Z</time>
      </trkpt>
      <trkpt lat="44.53594" lon="6.8633">
        <ele>2925.43</ele>
        <time>2015-04-06T10:37:13Z</time>
      </trkpt>
      <trkpt lat="44.53586" lon="6.86333">
        <ele>2928.31</ele>
        <time>2015-04-06T10:37:33Z</time>
      </trkpt>
      <trkpt lat="44.5358" lon="6.86345">
        <ele>2928.79</ele>
        <time>2015-04-06T10:37:45Z</time>
      </trkpt>
      <trkpt lat="44.53579" lon="6.86349">
        <ele>2928.79</ele>
        <time>2015-04-06T10:38:09Z</time>
      </trkpt>
      <trkpt lat="44.53578" lon="6.86354">
        <ele>2929.27</ele>
        <time>2015-04-06T10:38:28Z</time>
      </trkpt>
      <trkpt lat="44.53578" lon="6.86356">
        <ele>2929.27</ele>
        <time>2015-04-06T10:38:58Z</time>
      </trkpt>
      <trkpt lat="44.53578" lon="6.86355">
        <ele>2929.27</ele>
        <time>2015-04-06T10:39:17Z</time>
      </trkpt>
      <trkpt lat="44.53579" lon="6.86355">
        <ele>2924.47</ele>
        <time>2015-04-06T10:39:20Z</time>
      </trkpt>
      <trkpt lat="44.53579" lon="6.86354">
        <ele>2927.83</ele>
        <time>2015-04-06T10:39:21Z</time>
      </trkpt>
      <trkpt lat="44.53577" lon="6.86355">
        <ele>2928.31</ele>
        <time>2015-04-06T10:39:38Z</time>
      </trkpt>
      <trkpt lat="44.53577" lon="6.86352">
        <ele>2928.31</ele>
        <time>2015-04-06T10:40:12Z</time>
      </trkpt>
      <trkpt lat="44.53578" lon="6.86353">
        <ele>2927.35</ele>
        <time>2015-04-06T10:40:14Z</time>
      </trkpt>
      <trkpt lat="44.53578" lon="6.86353">
        <ele>2929.27</ele>
        <time>2015-04-06T10:40:16Z</time>
      </trkpt>
      <trkpt lat="44.53578" lon="6.86354">
        <ele>2929.27</ele>
        <time>2015-04-06T10:40:33Z</time>
      </trkpt>
      <trkpt lat="44.53578" lon="6.86355">
        <ele>2929.27</ele>
        <time>2015-04-06T10:41:01Z</time>
      </trkpt>
      <trkpt lat="44.53579" lon="6.86355">
        <ele>2929.27</ele>
        <time>2015-04-06T10:41:34Z</time>
      </trkpt>
      <trkpt lat="44.53578" lon="6.86354">
        <ele>2929.27</ele>
        <time>2015-04-06T10:42:02Z</time>
      </trkpt>
      <trkpt lat="44.53578" lon="6.86354">
        <ele>2928.31</ele>
        <time>2015-04-06T10:42:36Z</time>
      </trkpt>
      <trkpt lat="44.53578" lon="6.86355">
        <ele>2928.31</ele>
        <time>2015-04-06T10:43:08Z</time>
      </trkpt>
      <trkpt lat="44.53578" lon="6.86353">
        <ele>2928.79</ele>
        <time>2015-04-06T10:43:28Z</time>
      </trkpt>
      <trkpt lat="44.5358" lon="6.86355">
        <ele>2925.91</ele>
        <time>2015-04-06T10:43:51Z</time>
      </trkpt>
      <trkpt lat="44.5358" lon="6.86355">
        <ele>2930.24</ele>
        <time>2015-04-06T10:43:52Z</time>
      </trkpt>
      <trkpt lat="44.5358" lon="6.86355">
        <ele>2930.24</ele>
        <time>2015-04-06T10:43:53Z</time>
      </trkpt>
      <trkpt lat="44.5358" lon="6.86354">
        <ele>2928.31</ele>
        <time>2015-04-06T10:43:55Z</time>
      </trkpt>
      <trkpt lat="44.53579" lon="6.86353">
        <ele>2928.31</ele>
        <time>2015-04-06T10:44:34Z</time>
      </trkpt>
      <trkpt lat="44.53578" lon="6.86353">
        <ele>2929.27</ele>
        <time>2015-04-06T10:45:13Z</time>
      </trkpt>
      <trkpt lat="44.53579" lon="6.86355">
        <ele>2929.75</ele>
        <time>2015-04-06T10:45:56Z</time>
      </trkpt>
      <trkpt lat="44.53579" lon="6.86353">
        <ele>2928.31</ele>
        <time>2015-04-06T10:46:24Z</time>
      </trkpt>
      <trkpt lat="44.53579" lon="6.86353">
        <ele>2928.31</ele>
        <time>2015-04-06T10:47:08Z</time>
      </trkpt>
      <trkpt lat="44.53579" lon="6.86353">
        <ele>2929.75</ele>
        <time>2015-04-06T10:47:11Z</time>
      </trkpt>
      <trkpt lat="44.53579" lon="6.86353">
        <ele>2930.72</ele>
        <time>2015-04-06T10:47:56Z</time>
      </trkpt>
      <trkpt lat="44.53578" lon="6.86354">
        <ele>2930.72</ele>
        <time>2015-04-06T10:48:22Z</time>
      </trkpt>
      <trkpt lat="44.53579" lon="6.86354">
        <ele>2930.72</ele>
        <time>2015-04-06T10:49:03Z</time>
      </trkpt>
      <trkpt lat="44.5358" lon="6.86355">
        <ele>2930.72</ele>
        <time>2015-04-06T10:49:41Z</time>
      </trkpt>
      <trkpt lat="44.53579" lon="6.86354">
        <ele>2931.2</ele>
        <time>2015-04-06T10:50:28Z</time>
      </trkpt>
      <trkpt lat="44.53578" lon="6.86352">
        <ele>2931.2</ele>
        <time>2015-04-06T10:51:07Z</time>
      </trkpt>
      <trkpt lat="44.5358" lon="6.86356">
        <ele>2931.2</ele>
        <time>2015-04-06T10:51:57Z</time>
      </trkpt>
      <trkpt lat="44.53578" lon="6.86353">
        <ele>2931.2</ele>
        <time>2015-04-06T10:52:37Z</time>
      </trkpt>
      <trkpt lat="44.53579" lon="6.86354">
        <ele>2930.24</ele>
        <time>2015-04-06T10:53:17Z</time>
      </trkpt>
      <trkpt lat="44.53579" lon="6.86353">
        <ele>2930.24</ele>
        <time>2015-04-06T10:53:56Z</time>
      </trkpt>
      <trkpt lat="44.53579" lon="6.86354">
        <ele>2931.2</ele>
        <time>2015-04-06T10:54:38Z</time>
      </trkpt>
      <trkpt lat="44.53579" lon="6.86353">
        <ele>2931.2</ele>
        <time>2015-04-06T10:55:22Z</time>
      </trkpt>
      <trkpt lat="44.53579" lon="6.86354">
        <ele>2931.2</ele>
        <time>2015-04-06T10:55:56Z</time>
      </trkpt>
      <trkpt lat="44.53581" lon="6.86355">
        <ele>2930.72</ele>
        <time>2015-04-06T10:56:32Z</time>
      </trkpt>
      <trkpt lat="44.53579" lon="6.86353">
        <ele>2930.72</ele>
        <time>2015-04-06T10:57:03Z</time>
      </trkpt>
      <trkpt lat="44.53578" lon="6.86352">
        <ele>2930.72</ele>
        <time>2015-04-06T10:57:38Z</time>
      </trkpt>
      <trkpt lat="44.53579" lon="6.86353">
        <ele>2930.72</ele>
        <time>2015-04-06T10:58:13Z</time>
      </trkpt>
      <trkpt lat="44.53578" lon="6.86353">
        <ele>2931.2</ele>
        <time>2015-04-06T10:58:48Z</time>
      </trkpt>
      <trkpt lat="44.53578" lon="6.86353">
        <ele>2931.2</ele>
        <time>2015-04-06T10:59:26Z</time>
      </trkpt>
      <trkpt lat="44.53579" lon="6.86354">
        <ele>2931.2</ele>
        <time>2015-04-06T11:00:06Z</time>
      </trkpt>
      <trkpt lat="44.53579" lon="6.86354">
        <ele>2932.64</ele>
        <time>2015-04-06T11:00:21Z</time>
      </trkpt>
      <trkpt lat="44.53579" lon="6.86354">
        <ele>2927.83</ele>
        <time>2015-04-06T11:00:23Z</time>
      </trkpt>
      <trkpt lat="44.53579" lon="6.86354">
        <ele>2932.64</ele>
        <time>2015-04-06T11:00:24Z</time>
      </trkpt>
      <trkpt lat="44.53579" lon="6.86355">
        <ele>2931.68</ele>
        <time>2015-04-06T11:00:38Z</time>
      </trkpt>
      <trkpt lat="44.53579" lon="6.86354">
        <ele>2932.16</ele>
        <time>2015-04-06T11:01:06Z</time>
      </trkpt>
      <trkpt lat="44.5358" lon="6.86355">
        <ele>2932.16</ele>
        <time>2015-04-06T11:01:48Z</time>
      </trkpt>
      <trkpt lat="44.53579" lon="6.86354">
        <ele>2932.16</ele>
        <time>2015-04-06T11:02:31Z</time>
      </trkpt>
      <trkpt lat="44.53579" lon="6.86355">
        <ele>2932.64</ele>
        <time>2015-04-06T11:03:16Z</time>
      </trkpt>
      <trkpt lat="44.53581" lon="6.86355">
        <ele>2932.64</ele>
        <time>2015-04-06T11:03:47Z</time>
      </trkpt>
      <trkpt lat="44.53579" lon="6.86355">
        <ele>2932.64</ele>
        <time>2015-04-06T11:04:25Z</time>
      </trkpt>
      <trkpt lat="44.53579" lon="6.86354">
        <ele>2932.64</ele>
        <time>2015-04-06T11:04:53Z</time>
      </trkpt>
      <trkpt lat="44.5358" lon="6.86355">
        <ele>2933.12</ele>
        <time>2015-04-06T11:05:28Z</time>
      </trkpt>
      <trkpt lat="44.5358" lon="6.86355">
        <ele>2931.2</ele>
        <time>2015-04-06T11:05:31Z</time>
      </trkpt>
      <trkpt lat="44.53579" lon="6.86354">
        <ele>2931.68</ele>
        <time>2015-04-06T11:06:02Z</time>
      </trkpt>
      <trkpt lat="44.53579" lon="6.86354">
        <ele>2931.68</ele>
        <time>2015-04-06T11:06:33Z</time>
      </trkpt>
      <trkpt lat="44.5358" lon="6.86355">
        <ele>2931.68</ele>
        <time>2015-04-06T11:07:10Z</time>
      </trkpt>
      <trkpt lat="44.53579" lon="6.86355">
        <ele>2931.68</ele>
        <time>2015-04-06T11:07:51Z</time>
      </trkpt>
      <trkpt lat="44.53578" lon="6.86355">
        <ele>2931.68</ele>
        <time>2015-04-06T11:08:25Z</time>
      </trkpt>
      <trkpt lat="44.53579" lon="6.86354">
        <ele>2931.68</ele>
        <time>2015-04-06T11:09:01Z</time>
      </trkpt>
      <trkpt lat="44.5358" lon="6.86354">
        <ele>2933.12</ele>
        <time>2015-04-06T11:09:29Z</time>
      </trkpt>
      <trkpt lat="44.5358" lon="6.86355">
        <ele>2933.12</ele>
        <time>2015-04-06T11:10:08Z</time>
      </trkpt>
      <trkpt lat="44.53579" lon="6.86355">
        <ele>2933.12</ele>
        <time>2015-04-06T11:10:43Z</time>
      </trkpt>
      <trkpt lat="44.53579" lon="6.86354">
        <ele>2933.12</ele>
        <time>2015-04-06T11:11:21Z</time>
      </trkpt>
      <trkpt lat="44.53579" lon="6.86354">
        <ele>2930.72</ele>
        <time>2015-04-06T11:11:39Z</time>
      </trkpt>
      <trkpt lat="44.53579" lon="6.86354">
        <ele>2933.6</ele>
        <time>2015-04-06T11:11:40Z</time>
      </trkpt>
      <trkpt lat="44.53579" lon="6.86354">
        <ele>2933.6</ele>
        <time>2015-04-06T11:11:41Z</time>
      </trkpt>
      <trkpt lat="44.53578" lon="6.86355">
        <ele>2932.64</ele>
        <time>2015-04-06T11:11:46Z</time>
      </trkpt>
      <trkpt lat="44.53578" lon="6.86354">
        <ele>2933.6</ele>
        <time>2015-04-06T11:11:58Z</time>
      </trkpt>
      <trkpt lat="44.53579" lon="6.86354">
        <ele>2933.12</ele>
        <time>2015-04-06T11:12:06Z</time>
      </trkpt>
      <trkpt lat="44.53579" lon="6.86354">
        <ele>2933.6</ele>
        <time>2015-04-06T11:12:50Z</time>
      </trkpt>
      <trkpt lat="44.53578" lon="6.86356">
        <ele>2932.16</ele>
        <time>2015-04-06T11:13:28Z</time>
      </trkpt>
      <trkpt lat="44.53578" lon="6.86354">
        <ele>2932.64</ele>
        <time>2015-04-06T11:14:08Z</time>
      </trkpt>
      <trkpt lat="44.53579" lon="6.86355">
        <ele>2932.16</ele>
        <time>2015-04-06T11:14:42Z</time>
      </trkpt>
      <trkpt lat="44.53579" lon="6.86352">
        <ele>2932.16</ele>
        <time>2015-04-06T11:15:19Z</time>
      </trkpt>
      <trkpt lat="44.53578" lon="6.86353">
        <ele>2933.6</ele>
        <time>2015-04-06T11:15:29Z</time>
      </trkpt>
      <trkpt lat="44.53579" lon="6.86353">
        <ele>2934.08</ele>
        <time>2015-04-06T11:15:31Z</time>
      </trkpt>
      <trkpt lat="44.53577" lon="6.86353">
        <ele>2934.08</ele>
        <time>2015-04-06T11:15:50Z</time>
      </trkpt>
      <trkpt lat="44.53579" lon="6.86355">
        <ele>2933.12</ele>
        <time>2015-04-06T11:16:11Z</time>
      </trkpt>
      <trkpt lat="44.53578" lon="6.86355">
        <ele>2932.64</ele>
        <time>2015-04-06T11:16:25Z</time>
      </trkpt>
      <trkpt lat="44.53578" lon="6.86354">
        <ele>2932.64</ele>
        <time>2015-04-06T11:16:38Z</time>
      </trkpt>
      <trkpt lat="44.53577" lon="6.86354">
        <ele>2934.08</ele>
        <time>2015-04-06T11:16:55Z</time>
      </trkpt>
      <trkpt lat="44.53578" lon="6.86353">
        <ele>2934.08</ele>
        <time>2015-04-06T11:17:12Z</time>
      </trkpt>
      <trkpt lat="44.53577" lon="6.86353">
        <ele>2934.08</ele>
        <time>2015-04-06T11:17:38Z</time>
      </trkpt>
      <trkpt lat="44.53576" lon="6.86352">
        <ele>2934.08</ele>
        <time>2015-04-06T11:17:54Z</time>
      </trkpt>
      <trkpt lat="44.53575" lon="6.86348">
        <ele>2932.64</ele>
        <time>2015-04-06T11:18:09Z</time>
      </trkpt>
      <trkpt lat="44.53573" lon="6.8635">
        <ele>2932.64</ele>
        <time>2015-04-06T11:18:19Z</time>
      </trkpt>
      <trkpt lat="44.53563" lon="6.86348">
        <ele>2931.2</ele>
        <time>2015-04-06T11:18:26Z</time>
      </trkpt>
      <trkpt lat="44.53559" lon="6.86347">
        <ele>2930.72</ele>
        <time>2015-04-06T11:18:28Z</time>
      </trkpt>
      <trkpt lat="44.53552" lon="6.8635">
        <ele>2927.83</ele>
        <time>2015-04-06T11:18:32Z</time>
      </trkpt>
      <trkpt lat="44.5355" lon="6.8636">
        <ele>2925.43</ele>
        <time>2015-04-06T11:18:37Z</time>
      </trkpt>
      <trkpt lat="44.53549" lon="6.86378">
        <ele>2922.06</ele>
        <time>2015-04-06T11:18:43Z</time>
      </trkpt>
      <trkpt lat="44.53546" lon="6.86377">
        <ele>2921.1</ele>
        <time>2015-04-06T11:18:44Z</time>
      </trkpt>
      <trkpt lat="44.53543" lon="6.86377">
        <ele>2921.1</ele>
        <time>2015-04-06T11:18:45Z</time>
      </trkpt>
      <trkpt lat="44.53533" lon="6.86375">
        <ele>2918.7</ele>
        <time>2015-04-06T11:18:48Z</time>
      </trkpt>
      <trkpt lat="44.53529" lon="6.86373">
        <ele>2918.7</ele>
        <time>2015-04-06T11:18:49Z</time>
      </trkpt>
      <trkpt lat="44.53526" lon="6.86371">
        <ele>2918.22</ele>
        <time>2015-04-06T11:18:50Z</time>
      </trkpt>
      <trkpt lat="44.53522" lon="6.86368">
        <ele>2917.26</ele>
        <time>2015-04-06T11:18:51Z</time>
      </trkpt>
      <trkpt lat="44.53519" lon="6.86366">
        <ele>2916.78</ele>
        <time>2015-04-06T11:18:52Z</time>
      </trkpt>
      <trkpt lat="44.53516" lon="6.86364">
        <ele>2916.3</ele>
        <time>2015-04-06T11:18:53Z</time>
      </trkpt>
      <trkpt lat="44.53512" lon="6.86362">
        <ele>2915.82</ele>
        <time>2015-04-06T11:18:54Z</time>
      </trkpt>
      <trkpt lat="44.53508" lon="6.8636">
        <ele>2915.34</ele>
        <time>2015-04-06T11:18:55Z</time>
      </trkpt>
      <trkpt lat="44.53504" lon="6.86359">
        <ele>2914.85</ele>
        <time>2015-04-06T11:18:56Z</time>
      </trkpt>
      <trkpt lat="44.53496" lon="6.86357">
        <ele>2913.89</ele>
        <time>2015-04-06T11:18:58Z</time>
      </trkpt>
      <trkpt lat="44.53493" lon="6.86357">
        <ele>2912.93</ele>
        <time>2015-04-06T11:18:59Z</time>
      </trkpt>
      <trkpt lat="44.53489" lon="6.86357">
        <ele>2912.45</ele>
        <time>2015-04-06T11:19:00Z</time>
      </trkpt>
      <trkpt lat="44.53486" lon="6.86359">
        <ele>2912.45</ele>
        <time>2015-04-06T11:19:01Z</time>
      </trkpt>
      <trkpt lat="44.53474" lon="6.86359">
        <ele>2909.09</ele>
        <time>2015-04-06T11:19:04Z</time>
      </trkpt>
      <trkpt lat="44.53466" lon="6.86363">
        <ele>2907.65</ele>
        <time>2015-04-06T11:19:06Z</time>
      </trkpt>
      <trkpt lat="44.53454" lon="6.86366">
        <ele>2903.8</ele>
        <time>2015-04-06T11:19:09Z</time>
      </trkpt>
      <trkpt lat="44.53436" lon="6.8637">
        <ele>2900.92</ele>
        <time>2015-04-06T11:19:13Z</time>
      </trkpt>
      <trkpt lat="44.53427" lon="6.8637">
        <ele>2898.99</ele>
        <time>2015-04-06T11:19:15Z</time>
      </trkpt>
      <trkpt lat="44.53401" lon="6.86369">
        <ele>2895.63</ele>
        <time>2015-04-06T11:19:21Z</time>
      </trkpt>
      <trkpt lat="44.53373" lon="6.86362">
        <ele>2893.23</ele>
        <time>2015-04-06T11:19:33Z</time>
      </trkpt>
      <trkpt lat="44.53363" lon="6.86361">
        <ele>2892.26</ele>
        <time>2015-04-06T11:19:37Z</time>
      </trkpt>
      <trkpt lat="44.53342" lon="6.86351">
        <ele>2888.9</ele>
        <time>2015-04-06T11:19:45Z</time>
      </trkpt>
      <trkpt lat="44.53337" lon="6.86353">
        <ele>2888.42</ele>
        <time>2015-04-06T11:19:47Z</time>
      </trkpt>
      <trkpt lat="44.53332" lon="6.86357">
        <ele>2886.98</ele>
        <time>2015-04-06T11:19:49Z</time>
      </trkpt>
      <trkpt lat="44.53325" lon="6.86361">
        <ele>2884.09</ele>
        <time>2015-04-06T11:19:53Z</time>
      </trkpt>
      <trkpt lat="44.53324" lon="6.86362">
        <ele>2883.61</ele>
        <time>2015-04-06T11:20:04Z</time>
      </trkpt>
      <trkpt lat="44.53318" lon="6.86364">
        <ele>2881.21</ele>
        <time>2015-04-06T11:20:09Z</time>
      </trkpt>
      <trkpt lat="44.53315" lon="6.86373">
        <ele>2877.84</ele>
        <time>2015-04-06T11:20:13Z</time>
      </trkpt>
      <trkpt lat="44.53315" lon="6.86378">
        <ele>2877.36</ele>
        <time>2015-04-06T11:20:14Z</time>
      </trkpt>
      <trkpt lat="44.53314" lon="6.86385">
        <ele>2876.4</ele>
        <time>2015-04-06T11:20:16Z</time>
      </trkpt>
      <trkpt lat="44.53307" lon="6.86384">
        <ele>2872.08</ele>
        <time>2015-04-06T11:20:20Z</time>
      </trkpt>
      <trkpt lat="44.53305" lon="6.86384">
        <ele>2872.08</ele>
        <time>2015-04-06T11:20:21Z</time>
      </trkpt>
      <trkpt lat="44.53296" lon="6.86382">
        <ele>2864.87</ele>
        <time>2015-04-06T11:20:26Z</time>
      </trkpt>
      <trkpt lat="44.53292" lon="6.86386">
        <ele>2863.9</ele>
        <time>2015-04-06T11:20:28Z</time>
      </trkpt>
      <trkpt lat="44.53286" lon="6.86385">
        <ele>2859.58</ele>
        <time>2015-04-06T11:20:30Z</time>
      </trkpt>
      <trkpt lat="44.53278" lon="6.86387">
        <ele>2855.73</ele>
        <time>2015-04-06T11:20:33Z</time>
      </trkpt>
      <trkpt lat="44.53276" lon="6.86389">
        <ele>2855.73</ele>
        <time>2015-04-06T11:20:34Z</time>
      </trkpt>
      <trkpt lat="44.53273" lon="6.86388">
        <ele>2852.85</ele>
        <time>2015-04-06T11:20:36Z</time>
      </trkpt>
      <trkpt lat="44.53267" lon="6.86387">
        <ele>2849.97</ele>
        <time>2015-04-06T11:20:38Z</time>
      </trkpt>
      <trkpt lat="44.53264" lon="6.86388">
        <ele>2849.48</ele>
        <time>2015-04-06T11:20:39Z</time>
      </trkpt>
      <trkpt lat="44.53258" lon="6.86389">
        <ele>2846.12</ele>
        <time>2015-04-06T11:20:41Z</time>
      </trkpt>
      <trkpt lat="44.53249" lon="6.86391">
        <ele>2841.79</ele>
        <time>2015-04-06T11:20:44Z</time>
      </trkpt>
      <trkpt lat="44.53242" lon="6.86387">
        <ele>2839.39</ele>
        <time>2015-04-06T11:20:46Z</time>
      </trkpt>
      <trkpt lat="44.53223" lon="6.86389">
        <ele>2834.1</ele>
        <time>2015-04-06T11:20:49Z</time>
      </trkpt>
      <trkpt lat="44.53203" lon="6.86389">
        <ele>2831.22</ele>
        <time>2015-04-06T11:20:52Z</time>
      </trkpt>
      <trkpt lat="44.53183" lon="6.86384">
        <ele>2832.18</ele>
        <time>2015-04-06T11:21:00Z</time>
      </trkpt>
      <trkpt lat="44.53172" lon="6.86381">
        <ele>2831.7</ele>
        <time>2015-04-06T11:21:12Z</time>
      </trkpt>
      <trkpt lat="44.53164" lon="6.8638">
        <ele>2831.22</ele>
        <time>2015-04-06T11:21:27Z</time>
      </trkpt>
      <trkpt lat="44.53164" lon="6.86379">
        <ele>2831.22</ele>
        <time>2015-04-06T11:21:45Z</time>
      </trkpt>
      <trkpt lat="44.53164" lon="6.86378">
        <ele>2830.74</ele>
        <time>2015-04-06T11:22:13Z</time>
      </trkpt>
      <trkpt lat="44.53153" lon="6.86376">
        <ele>2830.74</ele>
        <time>2015-04-06T11:22:33Z</time>
      </trkpt>
      <trkpt lat="44.53143" lon="6.86373">
        <ele>2829.3</ele>
        <time>2015-04-06T11:22:37Z</time>
      </trkpt>
      <trkpt lat="44.53107" lon="6.86367">
        <ele>2826.41</ele>
        <time>2015-04-06T11:22:46Z</time>
      </trkpt>
      <trkpt lat="44.53077" lon="6.86359">
        <ele>2825.93</ele>
        <time>2015-04-06T11:22:59Z</time>
      </trkpt>
      <trkpt lat="44.53049" lon="6.86363">
        <ele>2822.57</ele>
        <time>2015-04-06T11:23:09Z</time>
      </trkpt>
      <trkpt lat="44.5304" lon="6.86361">
        <ele>2822.57</ele>
        <time>2015-04-06T11:23:17Z</time>
      </trkpt>
      <trkpt lat="44.53034" lon="6.86362">
        <ele>2824.01</ele>
        <time>2015-04-06T11:23:26Z</time>
      </trkpt>
      <trkpt lat="44.53028" lon="6.8636">
        <ele>2824.49</ele>
        <time>2015-04-06T11:23:36Z</time>
      </trkpt>
      <trkpt lat="44.53014" lon="6.8636">
        <ele>2824.49</ele>
        <time>2015-04-06T11:23:51Z</time>
      </trkpt>
      <trkpt lat="44.52986" lon="6.86353">
        <ele>2822.09</ele>
        <time>2015-04-06T11:24:08Z</time>
      </trkpt>
      <trkpt lat="44.52971" lon="6.86348">
        <ele>2822.57</ele>
        <time>2015-04-06T11:24:23Z</time>
      </trkpt>
      <trkpt lat="44.52956" lon="6.86342">
        <ele>2821.61</ele>
        <time>2015-04-06T11:24:37Z</time>
      </trkpt>
      <trkpt lat="44.52945" lon="6.86338">
        <ele>2821.61</ele>
        <time>2015-04-06T11:24:49Z</time>
      </trkpt>
      <trkpt lat="44.52937" lon="6.86335">
        <ele>2821.61</ele>
        <time>2015-04-06T11:25:00Z</time>
      </trkpt>
      <trkpt lat="44.52928" lon="6.86329">
        <ele>2821.13</ele>
        <time>2015-04-06T11:25:13Z</time>
      </trkpt>
      <trkpt lat="44.52925" lon="6.8633">
        <ele>2821.13</ele>
        <time>2015-04-06T11:25:36Z</time>
      </trkpt>
      <trkpt lat="44.52914" lon="6.86331">
        <ele>2820.16</ele>
        <time>2015-04-06T11:25:58Z</time>
      </trkpt>
      <trkpt lat="44.52898" lon="6.8634">
        <ele>2817.76</ele>
        <time>2015-04-06T11:26:03Z</time>
      </trkpt>
      <trkpt lat="44.52874" lon="6.86347">
        <ele>2814.4</ele>
        <time>2015-04-06T11:26:08Z</time>
      </trkpt>
      <trkpt lat="44.52859" lon="6.86345">
        <ele>2810.55</ele>
        <time>2015-04-06T11:26:11Z</time>
      </trkpt>
      <trkpt lat="44.52843" lon="6.86343">
        <ele>2807.19</ele>
        <time>2015-04-06T11:26:14Z</time>
      </trkpt>
      <trkpt lat="44.52832" lon="6.8634">
        <ele>2805.75</ele>
        <time>2015-04-06T11:26:16Z</time>
      </trkpt>
      <trkpt lat="44.52801" lon="6.86334">
        <ele>2799.98</ele>
        <time>2015-04-06T11:26:22Z</time>
      </trkpt>
      <trkpt lat="44.52778" lon="6.86334">
        <ele>2797.57</ele>
        <time>2015-04-06T11:26:28Z</time>
      </trkpt>
      <trkpt lat="44.5275" lon="6.86341">
        <ele>2793.25</ele>
        <time>2015-04-06T11:26:35Z</time>
      </trkpt>
      <trkpt lat="44.52731" lon="6.86347">
        <ele>2789.88</ele>
        <time>2015-04-06T11:26:39Z</time>
      </trkpt>
      <trkpt lat="44.52715" lon="6.86353">
        <ele>2786.04</ele>
        <time>2015-04-06T11:26:42Z</time>
      </trkpt>
      <trkpt lat="44.52673" lon="6.86358">
        <ele>2781.23</ele>
        <time>2015-04-06T11:26:51Z</time>
      </trkpt>
      <trkpt lat="44.52639" lon="6.86343">
        <ele>2776.91</ele>
        <time>2015-04-06T11:26:59Z</time>
      </trkpt>
      <trkpt lat="44.52635" lon="6.86341">
        <ele>2776.42</ele>
        <time>2015-04-06T11:27:00Z</time>
      </trkpt>
      <trkpt lat="44.52627" lon="6.86338">
        <ele>2775.46</ele>
        <time>2015-04-06T11:27:02Z</time>
      </trkpt>
      <trkpt lat="44.52609" lon="6.86336">
        <ele>2771.62</ele>
        <time>2015-04-06T11:27:06Z</time>
      </trkpt>
      <trkpt lat="44.526" lon="6.86336">
        <ele>2769.7</ele>
        <time>2015-04-06T11:27:08Z</time>
      </trkpt>
      <trkpt lat="44.5258" lon="6.86333">
        <ele>2766.81</ele>
        <time>2015-04-06T11:27:14Z</time>
      </trkpt>
      <trkpt lat="44.52573" lon="6.86331">
        <ele>2765.37</ele>
        <time>2015-04-06T11:27:18Z</time>
      </trkpt>
      <trkpt lat="44.52555" lon="6.86339">
        <ele>2761.04</ele>
        <time>2015-04-06T11:27:22Z</time>
      </trkpt>
      <trkpt lat="44.52538" lon="6.86344">
        <ele>2757.2</ele>
        <time>2015-04-06T11:27:25Z</time>
      </trkpt>
      <trkpt lat="44.52521" lon="6.86348">
        <ele>2753.83</ele>
        <time>2015-04-06T11:27:28Z</time>
      </trkpt>
      <trkpt lat="44.52513" lon="6.86352">
        <ele>2753.35</ele>
        <time>2015-04-06T11:27:30Z</time>
      </trkpt>
      <trkpt lat="44.52492" lon="6.86359">
        <ele>2752.39</ele>
        <time>2015-04-06T11:27:38Z</time>
      </trkpt>
      <trkpt lat="44.52471" lon="6.86368">
        <ele>2747.59</ele>
        <time>2015-04-06T11:27:43Z</time>
      </trkpt>
      <trkpt lat="44.52456" lon="6.86375">
        <ele>2744.7</ele>
        <time>2015-04-06T11:27:46Z</time>
      </trkpt>
      <trkpt lat="44.52444" lon="6.86381">
        <ele>2743.26</ele>
        <time>2015-04-06T11:27:49Z</time>
      </trkpt>
      <trkpt lat="44.5243" lon="6.86384">
        <ele>2740.38</ele>
        <time>2015-04-06T11:27:53Z</time>
      </trkpt>
      <trkpt lat="44.52419" lon="6.86387">
        <ele>2737.97</ele>
        <time>2015-04-06T11:27:59Z</time>
      </trkpt>
      <trkpt lat="44.52409" lon="6.86392">
        <ele>2736.05</ele>
        <time>2015-04-06T11:28:03Z</time>
      </trkpt>
      <trkpt lat="44.52401" lon="6.86398">
        <ele>2734.13</ele>
        <time>2015-04-06T11:28:05Z</time>
      </trkpt>
      <trkpt lat="44.52388" lon="6.8641">
        <ele>2732.68</ele>
        <time>2015-04-06T11:28:09Z</time>
      </trkpt>
      <trkpt lat="44.52385" lon="6.86413">
        <ele>2732.2</ele>
        <time>2015-04-06T11:28:23Z</time>
      </trkpt>
      <trkpt lat="44.52384" lon="6.86413">
        <ele>2732.2</ele>
        <time>2015-04-06T11:28:33Z</time>
      </trkpt>
      <trkpt lat="44.5238" lon="6.86418">
        <ele>2732.2</ele>
        <time>2015-04-06T11:28:36Z</time>
      </trkpt>
      <trkpt lat="44.52369" lon="6.86419">
        <ele>2729.8</ele>
        <time>2015-04-06T11:28:40Z</time>
      </trkpt>
      <trkpt lat="44.52362" lon="6.86417">
        <ele>2726.92</ele>
        <time>2015-04-06T11:28:42Z</time>
      </trkpt>
      <trkpt lat="44.52358" lon="6.86416">
        <ele>2724.03</ele>
        <time>2015-04-06T11:28:43Z</time>
      </trkpt>
      <trkpt lat="44.52352" lon="6.86414">
        <ele>2719.71</ele>
        <time>2015-04-06T11:28:45Z</time>
      </trkpt>
      <trkpt lat="44.52349" lon="6.86412">
        <ele>2719.71</ele>
        <time>2015-04-06T11:28:46Z</time>
      </trkpt>
      <trkpt lat="44.52346" lon="6.86412">
        <ele>2715.86</ele>
        <time>2015-04-06T11:28:47Z</time>
      </trkpt>
      <trkpt lat="44.52343" lon="6.86411">
        <ele>2715.86</ele>
        <time>2015-04-06T11:28:48Z</time>
      </trkpt>
      <trkpt lat="44.52336" lon="6.86409">
        <ele>2712.98</ele>
        <time>2015-04-06T11:28:50Z</time>
      </trkpt>
      <trkpt lat="44.52329" lon="6.86406">
        <ele>2709.61</ele>
        <time>2015-04-06T11:28:52Z</time>
      </trkpt>
      <trkpt lat="44.52323" lon="6.86402">
        <ele>2706.25</ele>
        <time>2015-04-06T11:28:54Z</time>
      </trkpt>
      <trkpt lat="44.52305" lon="6.86407">
        <ele>2702.88</ele>
        <time>2015-04-06T11:28:59Z</time>
      </trkpt>
      <trkpt lat="44.52288" lon="6.86414">
        <ele>2699.52</ele>
        <time>2015-04-06T11:29:03Z</time>
      </trkpt>
      <trkpt lat="44.52278" lon="6.86414">
        <ele>2697.6</ele>
        <time>2015-04-06T11:29:05Z</time>
      </trkpt>
      <trkpt lat="44.52268" lon="6.86412">
        <ele>2695.67</ele>
        <time>2015-04-06T11:29:07Z</time>
      </trkpt>
      <trkpt lat="44.52258" lon="6.86413">
        <ele>2692.79</ele>
        <time>2015-04-06T11:29:09Z</time>
      </trkpt>
      <trkpt lat="44.52239" lon="6.86412">
        <ele>2688.94</ele>
        <time>2015-04-06T11:29:13Z</time>
      </trkpt>
      <trkpt lat="44.52211" lon="6.86427">
        <ele>2683.66</ele>
        <time>2015-04-06T11:29:20Z</time>
      </trkpt>
      <trkpt lat="44.5221" lon="6.8643">
        <ele>2683.66</ele>
        <time>2015-04-06T11:29:21Z</time>
      </trkpt>
      <trkpt lat="44.52213" lon="6.86427">
        <ele>2683.66</ele>
        <time>2015-04-06T11:29:43Z</time>
      </trkpt>
      <trkpt lat="44.52213" lon="6.86426">
        <ele>2683.66</ele>
        <time>2015-04-06T11:30:07Z</time>
      </trkpt>
      <trkpt lat="44.52208" lon="6.86429">
        <ele>2683.18</ele>
        <time>2015-04-06T11:30:11Z</time>
      </trkpt>
      <trkpt lat="44.52194" lon="6.86436">
        <ele>2681.25</ele>
        <time>2015-04-06T11:30:16Z</time>
      </trkpt>
      <trkpt lat="44.52176" lon="6.8644">
        <ele>2678.85</ele>
        <time>2015-04-06T11:30:20Z</time>
      </trkpt>
      <trkpt lat="44.52162" lon="6.8644">
        <ele>2674.52</ele>
        <time>2015-04-06T11:30:23Z</time>
      </trkpt>
      <trkpt lat="44.52144" lon="6.86443">
        <ele>2670.68</ele>
        <time>2015-04-06T11:30:27Z</time>
      </trkpt>
      <trkpt lat="44.52137" lon="6.86444">
        <ele>2669.24</ele>
        <time>2015-04-06T11:30:29Z</time>
      </trkpt>
      <trkpt lat="44.52126" lon="6.86445">
        <ele>2666.83</ele>
        <time>2015-04-06T11:30:31Z</time>
      </trkpt>
      <trkpt lat="44.52121" lon="6.86445">
        <ele>2665.39</ele>
        <time>2015-04-06T11:30:32Z</time>
      </trkpt>
      <trkpt lat="44.52095" lon="6.8645">
        <ele>2660.11</ele>
        <time>2015-04-06T11:30:37Z</time>
      </trkpt>
      <trkpt lat="44.5209" lon="6.86451">
        <ele>2660.11</ele>
        <time>2015-04-06T11:30:38Z</time>
      </trkpt>
      <trkpt lat="44.5208" lon="6.86451">
        <ele>2658.18</ele>
        <time>2015-04-06T11:30:40Z</time>
      </trkpt>
      <trkpt lat="44.52056" lon="6.86455">
        <ele>2653.86</ele>
        <time>2015-04-06T11:30:45Z</time>
      </trkpt>
      <trkpt lat="44.52045" lon="6.86462">
        <ele>2652.42</ele>
        <time>2015-04-06T11:30:48Z</time>
      </trkpt>
      <trkpt lat="44.52024" lon="6.86481">
        <ele>2649.53</ele>
        <time>2015-04-06T11:31:00Z</time>
      </trkpt>
      <trkpt lat="44.52022" lon="6.86485">
        <ele>2649.05</ele>
        <time>2015-04-06T11:31:14Z</time>
      </trkpt>
      <trkpt lat="44.52025" lon="6.86481">
        <ele>2649.53</ele>
        <time>2015-04-06T11:31:36Z</time>
      </trkpt>
      <trkpt lat="44.52027" lon="6.86477">
        <ele>2649.53</ele>
        <time>2015-04-06T11:32:04Z</time>
      </trkpt>
      <trkpt lat="44.52017" lon="6.86497">
        <ele>2647.61</ele>
        <time>2015-04-06T11:32:13Z</time>
      </trkpt>
      <trkpt lat="44.52" lon="6.86509">
        <ele>2643.76</ele>
        <time>2015-04-06T11:32:18Z</time>
      </trkpt>
      <trkpt lat="44.51992" lon="6.86511">
        <ele>2641.36</ele>
        <time>2015-04-06T11:32:20Z</time>
      </trkpt>
      <trkpt lat="44.51983" lon="6.86511">
        <ele>2638.96</ele>
        <time>2015-04-06T11:32:22Z</time>
      </trkpt>
      <trkpt lat="44.5197" lon="6.86515">
        <ele>2632.71</ele>
        <time>2015-04-06T11:32:25Z</time>
      </trkpt>
      <trkpt lat="44.51967" lon="6.86517">
        <ele>2634.15</ele>
        <time>2015-04-06T11:32:26Z</time>
      </trkpt>
      <trkpt lat="44.51963" lon="6.86519">
        <ele>2629.82</ele>
        <time>2015-04-06T11:32:27Z</time>
      </trkpt>
      <trkpt lat="44.51951" lon="6.86523">
        <ele>2625.02</ele>
        <time>2015-04-06T11:32:30Z</time>
      </trkpt>
      <trkpt lat="44.51941" lon="6.86532">
        <ele>2620.21</ele>
        <time>2015-04-06T11:32:33Z</time>
      </trkpt>
      <trkpt lat="44.51937" lon="6.86535">
        <ele>2620.21</ele>
        <time>2015-04-06T11:32:34Z</time>
      </trkpt>
      <trkpt lat="44.51934" lon="6.86538">
        <ele>2617.33</ele>
        <time>2015-04-06T11:32:35Z</time>
      </trkpt>
      <trkpt lat="44.5193" lon="6.86541">
        <ele>2617.33</ele>
        <time>2015-04-06T11:32:36Z</time>
      </trkpt>
      <trkpt lat="44.51926" lon="6.86544">
        <ele>2613.96</ele>
        <time>2015-04-06T11:32:37Z</time>
      </trkpt>
      <trkpt lat="44.51923" lon="6.86547">
        <ele>2613.96</ele>
        <time>2015-04-06T11:32:38Z</time>
      </trkpt>
      <trkpt lat="44.5192" lon="6.86548">
        <ele>2610.12</ele>
        <time>2015-04-06T11:32:39Z</time>
      </trkpt>
      <trkpt lat="44.51908" lon="6.86554">
        <ele>2606.75</ele>
        <time>2015-04-06T11:32:43Z</time>
      </trkpt>
      <trkpt lat="44.51901" lon="6.86555">
        <ele>2605.31</ele>
        <time>2015-04-06T11:32:45Z</time>
      </trkpt>
      <trkpt lat="44.51897" lon="6.86556">
        <ele>2603.39</ele>
        <time>2015-04-06T11:32:46Z</time>
      </trkpt>
      <trkpt lat="44.51893" lon="6.86558">
        <ele>2601.46</ele>
        <time>2015-04-06T11:32:47Z</time>
      </trkpt>
      <trkpt lat="44.51874" lon="6.8656">
        <ele>2598.1</ele>
        <time>2015-04-06T11:32:50Z</time>
      </trkpt>
      <trkpt lat="44.51868" lon="6.8656">
        <ele>2597.62</ele>
        <time>2015-04-06T11:32:51Z</time>
      </trkpt>
      <trkpt lat="44.51839" lon="6.8655">
        <ele>2592.81</ele>
        <time>2015-04-06T11:32:55Z</time>
      </trkpt>
      <trkpt lat="44.51818" lon="6.86543">
        <ele>2589.45</ele>
        <time>2015-04-06T11:32:58Z</time>
      </trkpt>
      <trkpt lat="44.51806" lon="6.8654">
        <ele>2588.49</ele>
        <time>2015-04-06T11:33:00Z</time>
      </trkpt>
      <trkpt lat="44.51799" lon="6.86536">
        <ele>2588.97</ele>
        <time>2015-04-06T11:33:07Z</time>
      </trkpt>
      <trkpt lat="44.51794" lon="6.86538">
        <ele>2589.45</ele>
        <time>2015-04-06T11:33:30Z</time>
      </trkpt>
      <trkpt lat="44.51794" lon="6.86533">
        <ele>2589.45</ele>
        <time>2015-04-06T11:33:47Z</time>
      </trkpt>
      <trkpt lat="44.51794" lon="6.86532">
        <ele>2589.45</ele>
        <time>2015-04-06T11:34:02Z</time>
      </trkpt>
      <trkpt lat="44.51793" lon="6.86534">
        <ele>2589.45</ele>
        <time>2015-04-06T11:34:21Z</time>
      </trkpt>
      <trkpt lat="44.51794" lon="6.86528">
        <ele>2590.41</ele>
        <time>2015-04-06T11:34:37Z</time>
      </trkpt>
      <trkpt lat="44.51793" lon="6.86529">
        <ele>2586.08</ele>
        <time>2015-04-06T11:34:46Z</time>
      </trkpt>
      <trkpt lat="44.51793" lon="6.8653">
        <ele>2588.01</ele>
        <time>2015-04-06T11:34:47Z</time>
      </trkpt>
      <trkpt lat="44.51793" lon="6.86531">
        <ele>2592.33</ele>
        <time>2015-04-06T11:34:50Z</time>
      </trkpt>
      <trkpt lat="44.51792" lon="6.8653">
        <ele>2590.89</ele>
        <time>2015-04-06T11:34:53Z</time>
      </trkpt>
      <trkpt lat="44.51795" lon="6.86533">
        <ele>2590.41</ele>
        <time>2015-04-06T11:35:19Z</time>
      </trkpt>
      <trkpt lat="44.51794" lon="6.86533">
        <ele>2590.41</ele>
        <time>2015-04-06T11:35:50Z</time>
      </trkpt>
      <trkpt lat="44.51796" lon="6.86528">
        <ele>2590.41</ele>
        <time>2015-04-06T11:36:20Z</time>
      </trkpt>
      <trkpt lat="44.51797" lon="6.86526">
        <ele>2590.41</ele>
        <time>2015-04-06T11:36:42Z</time>
      </trkpt>
      <trkpt lat="44.51795" lon="6.86528">
        <ele>2590.41</ele>
        <time>2015-04-06T11:37:10Z</time>
      </trkpt>
      <trkpt lat="44.51791" lon="6.86528">
        <ele>2590.41</ele>
        <time>2015-04-06T11:37:40Z</time>
      </trkpt>
      <trkpt lat="44.51794" lon="6.86531">
        <ele>2590.41</ele>
        <time>2015-04-06T11:37:59Z</time>
      </trkpt>
      <trkpt lat="44.51792" lon="6.86529">
        <ele>2590.41</ele>
        <time>2015-04-06T11:38:27Z</time>
      </trkpt>
      <trkpt lat="44.51793" lon="6.86528">
        <ele>2590.41</ele>
        <time>2015-04-06T11:38:58Z</time>
      </trkpt>
      <trkpt lat="44.51794" lon="6.86524">
        <ele>2590.41</ele>
        <time>2015-04-06T11:39:25Z</time>
      </trkpt>
      <trkpt lat="44.51794" lon="6.86525">
        <ele>2589.93</ele>
        <time>2015-04-06T11:39:49Z</time>
      </trkpt>
      <trkpt lat="44.51796" lon="6.86526">
        <ele>2589.93</ele>
        <time>2015-04-06T11:40:17Z</time>
      </trkpt>
      <trkpt lat="44.51797" lon="6.86528">
        <ele>2589.93</ele>
        <time>2015-04-06T11:40:47Z</time>
      </trkpt>
      <trkpt lat="44.51799" lon="6.86523">
        <ele>2589.93</ele>
        <time>2015-04-06T11:41:21Z</time>
      </trkpt>
      <trkpt lat="44.51796" lon="6.86522">
        <ele>2589.93</ele>
        <time>2015-04-06T11:41:59Z</time>
      </trkpt>
      <trkpt lat="44.51794" lon="6.86525">
        <ele>2591.37</ele>
        <time>2015-04-06T11:42:30Z</time>
      </trkpt>
      <trkpt lat="44.51795" lon="6.86525">
        <ele>2590.41</ele>
        <time>2015-04-06T11:42:32Z</time>
      </trkpt>
      <trkpt lat="44.51794" lon="6.86528">
        <ele>2592.33</ele>
        <time>2015-04-06T11:43:06Z</time>
      </trkpt>
      <trkpt lat="44.51794" lon="6.86528">
        <ele>2592.33</ele>
        <time>2015-04-06T11:43:07Z</time>
      </trkpt>
      <trkpt lat="44.51794" lon="6.86527">
        <ele>2591.37</ele>
        <time>2015-04-06T11:43:19Z</time>
      </trkpt>
      <trkpt lat="44.51794" lon="6.86526">
        <ele>2590.41</ele>
        <time>2015-04-06T11:43:31Z</time>
      </trkpt>
      <trkpt lat="44.51794" lon="6.86527">
        <ele>2591.85</ele>
        <time>2015-04-06T11:43:35Z</time>
      </trkpt>
      <trkpt lat="44.51793" lon="6.86528">
        <ele>2591.85</ele>
        <time>2015-04-06T11:44:10Z</time>
      </trkpt>
      <trkpt lat="44.51793" lon="6.86522">
        <ele>2590.89</ele>
        <time>2015-04-06T11:44:41Z</time>
      </trkpt>
      <trkpt lat="44.51793" lon="6.86525">
        <ele>2591.37</ele>
        <time>2015-04-06T11:45:08Z</time>
      </trkpt>
      <trkpt lat="44.51793" lon="6.86525">
        <ele>2588.01</ele>
        <time>2015-04-06T11:45:11Z</time>
      </trkpt>
      <trkpt lat="44.51793" lon="6.86526">
        <ele>2591.85</ele>
        <time>2015-04-06T11:45:12Z</time>
      </trkpt>
      <trkpt lat="44.51794" lon="6.86526">
        <ele>2590.41</ele>
        <time>2015-04-06T11:45:20Z</time>
      </trkpt>
      <trkpt lat="44.51792" lon="6.86529">
        <ele>2590.89</ele>
        <time>2015-04-06T11:45:37Z</time>
      </trkpt>
      <trkpt lat="44.51793" lon="6.8653">
        <ele>2590.89</ele>
        <time>2015-04-06T11:46:03Z</time>
      </trkpt>
      <trkpt lat="44.51793" lon="6.86528">
        <ele>2590.89</ele>
        <time>2015-04-06T11:46:40Z</time>
      </trkpt>
      <trkpt lat="44.51793" lon="6.86527">
        <ele>2590.89</ele>
        <time>2015-04-06T11:46:41Z</time>
      </trkpt>
      <trkpt lat="44.51794" lon="6.86527">
        <ele>2592.33</ele>
        <time>2015-04-06T11:46:44Z</time>
      </trkpt>
      <trkpt lat="44.51796" lon="6.86525">
        <ele>2592.81</ele>
        <time>2015-04-06T11:47:03Z</time>
      </trkpt>
      <trkpt lat="44.51793" lon="6.86521">
        <ele>2593.29</ele>
        <time>2015-04-06T11:47:23Z</time>
      </trkpt>
      <trkpt lat="44.5179" lon="6.86517">
        <ele>2593.77</ele>
        <time>2015-04-06T11:47:35Z</time>
      </trkpt>
      <trkpt lat="44.51788" lon="6.86516">
        <ele>2593.77</ele>
        <time>2015-04-06T11:47:37Z</time>
      </trkpt>
      <trkpt lat="44.5178" lon="6.86504">
        <ele>2593.77</ele>
        <time>2015-04-06T11:47:51Z</time>
      </trkpt>
      <trkpt lat="44.5178" lon="6.86503">
        <ele>2593.77</ele>
        <time>2015-04-06T11:47:52Z</time>
      </trkpt>
      <trkpt lat="44.51769" lon="6.86492">
        <ele>2593.77</ele>
        <time>2015-04-06T11:48:07Z</time>
      </trkpt>
      <trkpt lat="44.51758" lon="6.86482">
        <ele>2593.77</ele>
        <time>2015-04-06T11:48:22Z</time>
      </trkpt>
      <trkpt lat="44.51755" lon="6.86479">
        <ele>2593.77</ele>
        <time>2015-04-06T11:48:26Z</time>
      </trkpt>
      <trkpt lat="44.51745" lon="6.8648">
        <ele>2593.77</ele>
        <time>2015-04-06T11:48:38Z</time>
      </trkpt>
      <trkpt lat="44.51735" lon="6.86482">
        <ele>2594.74</ele>
        <time>2015-04-06T11:48:49Z</time>
      </trkpt>
      <trkpt lat="44.51725" lon="6.86483">
        <ele>2594.74</ele>
        <time>2015-04-06T11:49:02Z</time>
      </trkpt>
      <trkpt lat="44.51718" lon="6.86485">
        <ele>2595.7</ele>
        <time>2015-04-06T11:49:16Z</time>
      </trkpt>
      <trkpt lat="44.51707" lon="6.86482">
        <ele>2596.66</ele>
        <time>2015-04-06T11:49:30Z</time>
      </trkpt>
      <trkpt lat="44.51701" lon="6.86481">
        <ele>2596.66</ele>
        <time>2015-04-06T11:49:37Z</time>
      </trkpt>
      <trkpt lat="44.51685" lon="6.86479">
        <ele>2596.66</ele>
        <time>2015-04-06T11:49:53Z</time>
      </trkpt>
      <trkpt lat="44.51671" lon="6.86477">
        <ele>2594.25</ele>
        <time>2015-04-06T11:50:07Z</time>
      </trkpt>
      <trkpt lat="44.51659" lon="6.86477">
        <ele>2594.25</ele>
        <time>2015-04-06T11:50:22Z</time>
      </trkpt>
      <trkpt lat="44.51648" lon="6.86478">
        <ele>2594.25</ele>
        <time>2015-04-06T11:50:36Z</time>
      </trkpt>
      <trkpt lat="44.51638" lon="6.8648">
        <ele>2596.18</ele>
        <time>2015-04-06T11:50:51Z</time>
      </trkpt>
      <trkpt lat="44.51624" lon="6.86477">
        <ele>2597.14</ele>
        <time>2015-04-06T11:51:05Z</time>
      </trkpt>
      <trkpt lat="44.51614" lon="6.86473">
        <ele>2597.62</ele>
        <time>2015-04-06T11:51:17Z</time>
      </trkpt>
      <trkpt lat="44.51605" lon="6.86472">
        <ele>2598.58</ele>
        <time>2015-04-06T11:51:28Z</time>
      </trkpt>
      <trkpt lat="44.51594" lon="6.86469">
        <ele>2599.54</ele>
        <time>2015-04-06T11:51:42Z</time>
      </trkpt>
      <trkpt lat="44.51582" lon="6.86468">
        <ele>2600.02</ele>
        <time>2015-04-06T11:51:56Z</time>
      </trkpt>
      <trkpt lat="44.51577" lon="6.86468">
        <ele>2600.5</ele>
        <time>2015-04-06T11:52:01Z</time>
      </trkpt>
      <trkpt lat="44.51565" lon="6.86469">
        <ele>2601.95</ele>
        <time>2015-04-06T11:52:16Z</time>
      </trkpt>
      <trkpt lat="44.51558" lon="6.86479">
        <ele>2603.39</ele>
        <time>2015-04-06T11:52:32Z</time>
      </trkpt>
      <trkpt lat="44.51546" lon="6.86479">
        <ele>2604.83</ele>
        <time>2015-04-06T11:52:48Z</time>
      </trkpt>
      <trkpt lat="44.51535" lon="6.86479">
        <ele>2606.75</ele>
        <time>2015-04-06T11:53:05Z</time>
      </trkpt>
      <trkpt lat="44.51524" lon="6.86479">
        <ele>2607.71</ele>
        <time>2015-04-06T11:53:20Z</time>
      </trkpt>
      <trkpt lat="44.51515" lon="6.86484">
        <ele>2608.67</ele>
        <time>2015-04-06T11:53:34Z</time>
      </trkpt>
      <trkpt lat="44.51507" lon="6.86485">
        <ele>2609.64</ele>
        <time>2015-04-06T11:53:49Z</time>
      </trkpt>
      <trkpt lat="44.51499" lon="6.86485">
        <ele>2610.12</ele>
        <time>2015-04-06T11:53:58Z</time>
      </trkpt>
      <trkpt lat="44.51498" lon="6.86488">
        <ele>2610.12</ele>
        <time>2015-04-06T11:54:15Z</time>
      </trkpt>
      <trkpt lat="44.51492" lon="6.86489">
        <ele>2610.6</ele>
        <time>2015-04-06T11:54:30Z</time>
      </trkpt>
      <trkpt lat="44.51481" lon="6.86491">
        <ele>2612.52</ele>
        <time>2015-04-06T11:54:46Z</time>
      </trkpt>
      <trkpt lat="44.51471" lon="6.86497">
        <ele>2613.96</ele>
        <time>2015-04-06T11:55:02Z</time>
      </trkpt>
      <trkpt lat="44.51461" lon="6.86503">
        <ele>2614.92</ele>
        <time>2015-04-06T11:55:17Z</time>
      </trkpt>
      <trkpt lat="44.51453" lon="6.86508">
        <ele>2617.33</ele>
        <time>2015-04-06T11:55:33Z</time>
      </trkpt>
      <trkpt lat="44.51444" lon="6.86505">
        <ele>2618.77</ele>
        <time>2015-04-06T11:55:49Z</time>
      </trkpt>
      <trkpt lat="44.51435" lon="6.86507">
        <ele>2619.73</ele>
        <time>2015-04-06T11:56:02Z</time>
      </trkpt>
      <trkpt lat="44.51422" lon="6.86511">
        <ele>2621.65</ele>
        <time>2015-04-06T11:56:18Z</time>
      </trkpt>
      <trkpt lat="44.51413" lon="6.86511">
        <ele>2622.61</ele>
        <time>2015-04-06T11:56:34Z</time>
      </trkpt>
      <trkpt lat="44.51406" lon="6.86506">
        <ele>2624.06</ele>
        <time>2015-04-06T11:56:51Z</time>
      </trkpt>
      <trkpt lat="44.51398" lon="6.86503">
        <ele>2625.98</ele>
        <time>2015-04-06T11:57:05Z</time>
      </trkpt>
      <trkpt lat="44.51392" lon="6.865">
        <ele>2626.94</ele>
        <time>2015-04-06T11:57:19Z</time>
      </trkpt>
      <trkpt lat="44.51382" lon="6.86497">
        <ele>2629.34</ele>
        <time>2015-04-06T11:57:34Z</time>
      </trkpt>
      <trkpt lat="44.51374" lon="6.86496">
        <ele>2630.79</ele>
        <time>2015-04-06T11:57:48Z</time>
      </trkpt>
      <trkpt lat="44.51365" lon="6.86496">
        <ele>2632.23</ele>
        <time>2015-04-06T11:58:02Z</time>
      </trkpt>
      <trkpt lat="44.51356" lon="6.86499">
        <ele>2634.63</ele>
        <time>2015-04-06T11:58:17Z</time>
      </trkpt>
      <trkpt lat="44.51349" lon="6.86501">
        <ele>2636.07</ele>
        <time>2015-04-06T11:58:33Z</time>
      </trkpt>
      <trkpt lat="44.5134" lon="6.86506">
        <ele>2637.99</ele>
        <time>2015-04-06T11:58:47Z</time>
      </trkpt>
      <trkpt lat="44.51332" lon="6.86504">
        <ele>2639.92</ele>
        <time>2015-04-06T11:59:02Z</time>
      </trkpt>
      <trkpt lat="44.51329" lon="6.86504">
        <ele>2640.88</ele>
        <time>2015-04-06T11:59:17Z</time>
      </trkpt>
      <trkpt lat="44.51325" lon="6.86502">
        <ele>2642.32</ele>
        <time>2015-04-06T11:59:35Z</time>
      </trkpt>
      <trkpt lat="44.51315" lon="6.86502">
        <ele>2644.72</ele>
        <time>2015-04-06T11:59:53Z</time>
      </trkpt>
      <trkpt lat="44.51305" lon="6.86503">
        <ele>2646.65</ele>
        <time>2015-04-06T12:00:10Z</time>
      </trkpt>
      <trkpt lat="44.513" lon="6.86507">
        <ele>2648.57</ele>
        <time>2015-04-06T12:00:23Z</time>
      </trkpt>
      <trkpt lat="44.51293" lon="6.8651">
        <ele>2650.49</ele>
        <time>2015-04-06T12:00:40Z</time>
      </trkpt>
      <trkpt lat="44.51285" lon="6.86514">
        <ele>2652.42</ele>
        <time>2015-04-06T12:00:57Z</time>
      </trkpt>
      <trkpt lat="44.51279" lon="6.8652">
        <ele>2654.34</ele>
        <time>2015-04-06T12:01:13Z</time>
      </trkpt>
      <trkpt lat="44.51274" lon="6.86525">
        <ele>2656.74</ele>
        <time>2015-04-06T12:01:32Z</time>
      </trkpt>
      <trkpt lat="44.51269" lon="6.86533">
        <ele>2659.14</ele>
        <time>2015-04-06T12:01:50Z</time>
      </trkpt>
      <trkpt lat="44.51265" lon="6.86537">
        <ele>2660.11</ele>
        <time>2015-04-06T12:02:05Z</time>
      </trkpt>
      <trkpt lat="44.5126" lon="6.86544">
        <ele>2661.55</ele>
        <time>2015-04-06T12:02:21Z</time>
      </trkpt>
      <trkpt lat="44.51254" lon="6.86553">
        <ele>2663.95</ele>
        <time>2015-04-06T12:02:38Z</time>
      </trkpt>
      <trkpt lat="44.5125" lon="6.86559">
        <ele>2665.87</ele>
        <time>2015-04-06T12:02:52Z</time>
      </trkpt>
      <trkpt lat="44.51243" lon="6.86568">
        <ele>2668.28</ele>
        <time>2015-04-06T12:03:09Z</time>
      </trkpt>
      <trkpt lat="44.51234" lon="6.8657">
        <ele>2669.24</ele>
        <time>2015-04-06T12:03:24Z</time>
      </trkpt>
      <trkpt lat="44.51226" lon="6.86569">
        <ele>2670.68</ele>
        <time>2015-04-06T12:03:39Z</time>
      </trkpt>
      <trkpt lat="44.51217" lon="6.86568">
        <ele>2673.56</ele>
        <time>2015-04-06T12:04:01Z</time>
      </trkpt>
      <trkpt lat="44.51209" lon="6.86567">
        <ele>2675.01</ele>
        <time>2015-04-06T12:04:16Z</time>
      </trkpt>
      <trkpt lat="44.512" lon="6.86569">
        <ele>2676.93</ele>
        <time>2015-04-06T12:04:32Z</time>
      </trkpt>
      <trkpt lat="44.51191" lon="6.8657">
        <ele>2678.85</ele>
        <time>2015-04-06T12:04:49Z</time>
      </trkpt>
      <trkpt lat="44.51184" lon="6.8657">
        <ele>2680.77</ele>
        <time>2015-04-06T12:05:04Z</time>
      </trkpt>
      <trkpt lat="44.51174" lon="6.8657">
        <ele>2682.7</ele>
        <time>2015-04-06T12:05:21Z</time>
      </trkpt>
      <trkpt lat="44.51171" lon="6.86571">
        <ele>2684.62</ele>
        <time>2015-04-06T12:05:36Z</time>
      </trkpt>
      <trkpt lat="44.51165" lon="6.86572">
        <ele>2685.58</ele>
        <time>2015-04-06T12:05:50Z</time>
      </trkpt>
      <trkpt lat="44.51158" lon="6.8657">
        <ele>2687.02</ele>
        <time>2015-04-06T12:06:04Z</time>
      </trkpt>
      <trkpt lat="44.51149" lon="6.86565">
        <ele>2687.5</ele>
        <time>2015-04-06T12:06:18Z</time>
      </trkpt>
      <trkpt lat="44.51145" lon="6.86557">
        <ele>2687.98</ele>
        <time>2015-04-06T12:06:31Z</time>
      </trkpt>
      <trkpt lat="44.5114" lon="6.86549">
        <ele>2687.98</ele>
        <time>2015-04-06T12:06:43Z</time>
      </trkpt>
      <trkpt lat="44.51131" lon="6.86537">
        <ele>2687.98</ele>
        <time>2015-04-06T12:06:56Z</time>
      </trkpt>
      <trkpt lat="44.51124" lon="6.86533">
        <ele>2687.98</ele>
        <time>2015-04-06T12:07:15Z</time>
      </trkpt>
      <trkpt lat="44.51122" lon="6.86524">
        <ele>2687.98</ele>
        <time>2015-04-06T12:07:29Z</time>
      </trkpt>
      <trkpt lat="44.51117" lon="6.86512">
        <ele>2686.54</ele>
        <time>2015-04-06T12:07:43Z</time>
      </trkpt>
      <trkpt lat="44.51115" lon="6.86512">
        <ele>2686.54</ele>
        <time>2015-04-06T12:07:57Z</time>
      </trkpt>
      <trkpt lat="44.51113" lon="6.86505">
        <ele>2686.54</ele>
        <time>2015-04-06T12:08:15Z</time>
      </trkpt>
      <trkpt lat="44.51106" lon="6.865">
        <ele>2687.5</ele>
        <time>2015-04-06T12:08:26Z</time>
      </trkpt>
      <trkpt lat="44.51099" lon="6.86494">
        <ele>2688.46</ele>
        <time>2015-04-06T12:08:39Z</time>
      </trkpt>
      <trkpt lat="44.51093" lon="6.8649">
        <ele>2689.43</ele>
        <time>2015-04-06T12:08:51Z</time>
      </trkpt>
      <trkpt lat="44.51088" lon="6.86481">
        <ele>2691.35</ele>
        <time>2015-04-06T12:09:05Z</time>
      </trkpt>
      <trkpt lat="44.51081" lon="6.86475">
        <ele>2692.79</ele>
        <time>2015-04-06T12:09:18Z</time>
      </trkpt>
      <trkpt lat="44.51073" lon="6.86468">
        <ele>2694.23</ele>
        <time>2015-04-06T12:09:32Z</time>
      </trkpt>
      <trkpt lat="44.51064" lon="6.86462">
        <ele>2696.64</ele>
        <time>2015-04-06T12:09:48Z</time>
      </trkpt>
      <trkpt lat="44.51052" lon="6.86451">
        <ele>2698.08</ele>
        <time>2015-04-06T12:10:06Z</time>
      </trkpt>
      <trkpt lat="44.51044" lon="6.86448">
        <ele>2699.52</ele>
        <time>2015-04-06T12:10:22Z</time>
      </trkpt>
      <trkpt lat="44.51035" lon="6.86443">
        <ele>2701.44</ele>
        <time>2015-04-06T12:10:37Z</time>
      </trkpt>
      <trkpt lat="44.51029" lon="6.86439">
        <ele>2702.4</ele>
        <time>2015-04-06T12:10:49Z</time>
      </trkpt>
      <trkpt lat="44.51023" lon="6.86439">
        <ele>2703.36</ele>
        <time>2015-04-06T12:11:02Z</time>
      </trkpt>
      <trkpt lat="44.51016" lon="6.8644">
        <ele>2705.29</ele>
        <time>2015-04-06T12:11:18Z</time>
      </trkpt>
      <trkpt lat="44.51002" lon="6.86443">
        <ele>2707.21</ele>
        <time>2015-04-06T12:11:34Z</time>
      </trkpt>
      <trkpt lat="44.50996" lon="6.86436">
        <ele>2709.13</ele>
        <time>2015-04-06T12:11:48Z</time>
      </trkpt>
      <trkpt lat="44.50991" lon="6.86436">
        <ele>2711.54</ele>
        <time>2015-04-06T12:12:05Z</time>
      </trkpt>
      <trkpt lat="44.50987" lon="6.86433">
        <ele>2712.5</ele>
        <time>2015-04-06T12:12:17Z</time>
      </trkpt>
      <trkpt lat="44.50982" lon="6.8643">
        <ele>2714.9</ele>
        <time>2015-04-06T12:12:41Z</time>
      </trkpt>
      <trkpt lat="44.50975" lon="6.86426">
        <ele>2717.3</ele>
        <time>2015-04-06T12:12:58Z</time>
      </trkpt>
      <trkpt lat="44.50968" lon="6.86423">
        <ele>2719.71</ele>
        <time>2015-04-06T12:13:13Z</time>
      </trkpt>
      <trkpt lat="44.50958" lon="6.86419">
        <ele>2722.11</ele>
        <time>2015-04-06T12:13:32Z</time>
      </trkpt>
      <trkpt lat="44.50952" lon="6.86416">
        <ele>2723.55</ele>
        <time>2015-04-06T12:13:49Z</time>
      </trkpt>
      <trkpt lat="44.50945" lon="6.86411">
        <ele>2724.99</ele>
        <time>2015-04-06T12:14:04Z</time>
      </trkpt>
      <trkpt lat="44.50939" lon="6.86406">
        <ele>2726.92</ele>
        <time>2015-04-06T12:14:18Z</time>
      </trkpt>
      <trkpt lat="44.50932" lon="6.86406">
        <ele>2728.84</ele>
        <time>2015-04-06T12:14:35Z</time>
      </trkpt>
      <trkpt lat="44.50924" lon="6.86406">
        <ele>2730.28</ele>
        <time>2015-04-06T12:14:52Z</time>
      </trkpt>
      <trkpt lat="44.5092" lon="6.86407">
        <ele>2731.24</ele>
        <time>2015-04-06T12:15:07Z</time>
      </trkpt>
      <trkpt lat="44.50912" lon="6.86406">
        <ele>2733.17</ele>
        <time>2015-04-06T12:15:23Z</time>
      </trkpt>
      <trkpt lat="44.50904" lon="6.86404">
        <ele>2734.61</ele>
        <time>2015-04-06T12:15:40Z</time>
      </trkpt>
      <trkpt lat="44.50895" lon="6.86405">
        <ele>2736.53</ele>
        <time>2015-04-06T12:15:58Z</time>
      </trkpt>
      <trkpt lat="44.50891" lon="6.86403">
        <ele>2738.45</ele>
        <time>2015-04-06T12:16:15Z</time>
      </trkpt>
      <trkpt lat="44.50881" lon="6.86404">
        <ele>2740.86</ele>
        <time>2015-04-06T12:16:34Z</time>
      </trkpt>
      <trkpt lat="44.50871" lon="6.86403">
        <ele>2742.78</ele>
        <time>2015-04-06T12:16:49Z</time>
      </trkpt>
      <trkpt lat="44.50863" lon="6.86401">
        <ele>2743.74</ele>
        <time>2015-04-06T12:17:05Z</time>
      </trkpt>
      <trkpt lat="44.50856" lon="6.86399">
        <ele>2745.18</ele>
        <time>2015-04-06T12:17:19Z</time>
      </trkpt>
      <trkpt lat="44.50854" lon="6.86399">
        <ele>2745.66</ele>
        <time>2015-04-06T12:17:39Z</time>
      </trkpt>
      <trkpt lat="44.50854" lon="6.86393">
        <ele>2746.14</ele>
        <time>2015-04-06T12:18:14Z</time>
      </trkpt>
      <trkpt lat="44.50845" lon="6.86395">
        <ele>2746.14</ele>
        <time>2015-04-06T12:18:27Z</time>
      </trkpt>
      <trkpt lat="44.50838" lon="6.8639">
        <ele>2746.62</ele>
        <time>2015-04-06T12:18:39Z</time>
      </trkpt>
      <trkpt lat="44.5083" lon="6.86385">
        <ele>2747.1</ele>
        <time>2015-04-06T12:18:53Z</time>
      </trkpt>
      <trkpt lat="44.50827" lon="6.86378">
        <ele>2748.07</ele>
        <time>2015-04-06T12:19:08Z</time>
      </trkpt>
      <trkpt lat="44.50822" lon="6.86368">
        <ele>2750.47</ele>
        <time>2015-04-06T12:19:21Z</time>
      </trkpt>
      <trkpt lat="44.50814" lon="6.86359">
        <ele>2749.99</ele>
        <time>2015-04-06T12:19:34Z</time>
      </trkpt>
      <trkpt lat="44.50808" lon="6.8635">
        <ele>2751.91</ele>
        <time>2015-04-06T12:19:52Z</time>
      </trkpt>
      <trkpt lat="44.50807" lon="6.86335">
        <ele>2754.8</ele>
        <time>2015-04-06T12:20:12Z</time>
      </trkpt>
      <trkpt lat="44.50802" lon="6.86325">
        <ele>2757.2</ele>
        <time>2015-04-06T12:20:30Z</time>
      </trkpt>
      <trkpt lat="44.50796" lon="6.86317">
        <ele>2758.64</ele>
        <time>2015-04-06T12:20:50Z</time>
      </trkpt>
      <trkpt lat="44.50791" lon="6.8631">
        <ele>2760.08</ele>
        <time>2015-04-06T12:21:07Z</time>
      </trkpt>
      <trkpt lat="44.50783" lon="6.86298">
        <ele>2762</ele>
        <time>2015-04-06T12:21:25Z</time>
      </trkpt>
      <trkpt lat="44.50779" lon="6.86284">
        <ele>2763.93</ele>
        <time>2015-04-06T12:21:44Z</time>
      </trkpt>
      <trkpt lat="44.50776" lon="6.86275">
        <ele>2767.29</ele>
        <time>2015-04-06T12:22:02Z</time>
      </trkpt>
      <trkpt lat="44.50773" lon="6.86266">
        <ele>2769.21</ele>
        <time>2015-04-06T12:22:23Z</time>
      </trkpt>
      <trkpt lat="44.50768" lon="6.86264">
        <ele>2771.62</ele>
        <time>2015-04-06T12:22:38Z</time>
      </trkpt>
      <trkpt lat="44.50763" lon="6.86258">
        <ele>2772.1</ele>
        <time>2015-04-06T12:22:51Z</time>
      </trkpt>
      <trkpt lat="44.50759" lon="6.86253">
        <ele>2774.02</ele>
        <time>2015-04-06T12:23:07Z</time>
      </trkpt>
      <trkpt lat="44.50752" lon="6.86249">
        <ele>2775.94</ele>
        <time>2015-04-06T12:23:22Z</time>
      </trkpt>
      <trkpt lat="44.50746" lon="6.86244">
        <ele>2777.87</ele>
        <time>2015-04-06T12:23:37Z</time>
      </trkpt>
      <trkpt lat="44.50744" lon="6.8624">
        <ele>2780.75</ele>
        <time>2015-04-06T12:23:45Z</time>
      </trkpt>
      <trkpt lat="44.50744" lon="6.8624">
        <ele>2780.75</ele>
        <time>2015-04-06T12:23:46Z</time>
      </trkpt>
      <trkpt lat="44.50744" lon="6.86239">
        <ele>2779.31</ele>
        <time>2015-04-06T12:23:48Z</time>
      </trkpt>
      <trkpt lat="44.50739" lon="6.86234">
        <ele>2780.27</ele>
        <time>2015-04-06T12:23:59Z</time>
      </trkpt>
      <trkpt lat="44.50737" lon="6.86237">
        <ele>2780.75</ele>
        <time>2015-04-06T12:24:15Z</time>
      </trkpt>
      <trkpt lat="44.50731" lon="6.86223">
        <ele>2783.63</ele>
        <time>2015-04-06T12:24:35Z</time>
      </trkpt>
      <trkpt lat="44.50726" lon="6.8621">
        <ele>2786.04</ele>
        <time>2015-04-06T12:24:54Z</time>
      </trkpt>
      <trkpt lat="44.50725" lon="6.86199">
        <ele>2789.4</ele>
        <time>2015-04-06T12:25:11Z</time>
      </trkpt>
      <trkpt lat="44.50726" lon="6.86189">
        <ele>2789.88</ele>
        <time>2015-04-06T12:25:28Z</time>
      </trkpt>
      <trkpt lat="44.50725" lon="6.86183">
        <ele>2792.29</ele>
        <time>2015-04-06T12:25:43Z</time>
      </trkpt>
      <trkpt lat="44.50725" lon="6.86174">
        <ele>2794.21</ele>
        <time>2015-04-06T12:25:59Z</time>
      </trkpt>
      <trkpt lat="44.50723" lon="6.86167">
        <ele>2796.61</ele>
        <time>2015-04-06T12:26:13Z</time>
      </trkpt>
      <trkpt lat="44.50721" lon="6.8616">
        <ele>2798.54</ele>
        <time>2015-04-06T12:26:30Z</time>
      </trkpt>
      <trkpt lat="44.50717" lon="6.86155">
        <ele>2800.46</ele>
        <time>2015-04-06T12:26:47Z</time>
      </trkpt>
      <trkpt lat="44.50715" lon="6.86146">
        <ele>2801.9</ele>
        <time>2015-04-06T12:27:06Z</time>
      </trkpt>
      <trkpt lat="44.50712" lon="6.86138">
        <ele>2803.82</ele>
        <time>2015-04-06T12:27:22Z</time>
      </trkpt>
      <trkpt lat="44.5071" lon="6.8613">
        <ele>2805.26</ele>
        <time>2015-04-06T12:27:37Z</time>
      </trkpt>
      <trkpt lat="44.50708" lon="6.86125">
        <ele>2807.19</ele>
        <time>2015-04-06T12:27:52Z</time>
      </trkpt>
      <trkpt lat="44.50706" lon="6.86118">
        <ele>2809.11</ele>
        <time>2015-04-06T12:28:07Z</time>
      </trkpt>
      <trkpt lat="44.50705" lon="6.86111">
        <ele>2811.03</ele>
        <time>2015-04-06T12:28:24Z</time>
      </trkpt>
      <trkpt lat="44.50702" lon="6.86103">
        <ele>2813.44</ele>
        <time>2015-04-06T12:28:41Z</time>
      </trkpt>
      <trkpt lat="44.50701" lon="6.86095">
        <ele>2815.84</ele>
        <time>2015-04-06T12:28:56Z</time>
      </trkpt>
      <trkpt lat="44.507" lon="6.86093">
        <ele>2816.8</ele>
        <time>2015-04-06T12:29:13Z</time>
      </trkpt>
      <trkpt lat="44.50697" lon="6.86086">
        <ele>2819.2</ele>
        <time>2015-04-06T12:29:30Z</time>
      </trkpt>
      <trkpt lat="44.50695" lon="6.86077">
        <ele>2821.61</ele>
        <time>2015-04-06T12:29:47Z</time>
      </trkpt>
      <trkpt lat="44.50692" lon="6.8607">
        <ele>2824.01</ele>
        <time>2015-04-06T12:30:04Z</time>
      </trkpt>
      <trkpt lat="44.5069" lon="6.8607">
        <ele>2824.97</ele>
        <time>2015-04-06T12:30:20Z</time>
      </trkpt>
      <trkpt lat="44.50688" lon="6.86065">
        <ele>2825.93</ele>
        <time>2015-04-06T12:30:36Z</time>
      </trkpt>
      <trkpt lat="44.50687" lon="6.86062">
        <ele>2825.93</ele>
        <time>2015-04-06T12:31:03Z</time>
      </trkpt>
      <trkpt lat="44.50685" lon="6.86057">
        <ele>2827.85</ele>
        <time>2015-04-06T12:31:19Z</time>
      </trkpt>
      <trkpt lat="44.50683" lon="6.8605">
        <ele>2830.26</ele>
        <time>2015-04-06T12:31:38Z</time>
      </trkpt>
      <trkpt lat="44.50679" lon="6.86044">
        <ele>2832.18</ele>
        <time>2015-04-06T12:31:55Z</time>
      </trkpt>
      <trkpt lat="44.50676" lon="6.86035">
        <ele>2834.1</ele>
        <time>2015-04-06T12:32:16Z</time>
      </trkpt>
      <trkpt lat="44.50674" lon="6.86025">
        <ele>2836.03</ele>
        <time>2015-04-06T12:32:34Z</time>
      </trkpt>
      <trkpt lat="44.50672" lon="6.86018">
        <ele>2837.95</ele>
        <time>2015-04-06T12:32:49Z</time>
      </trkpt>
      <trkpt lat="44.50673" lon="6.86011">
        <ele>2839.39</ele>
        <time>2015-04-06T12:33:03Z</time>
      </trkpt>
      <trkpt lat="44.50675" lon="6.86005">
        <ele>2841.31</ele>
        <time>2015-04-06T12:33:19Z</time>
      </trkpt>
      <trkpt lat="44.50676" lon="6.85998">
        <ele>2844.2</ele>
        <time>2015-04-06T12:33:32Z</time>
      </trkpt>
      <trkpt lat="44.50675" lon="6.85989">
        <ele>2846.12</ele>
        <time>2015-04-06T12:33:49Z</time>
      </trkpt>
      <trkpt lat="44.50673" lon="6.85982">
        <ele>2848.04</ele>
        <time>2015-04-06T12:34:05Z</time>
      </trkpt>
      <trkpt lat="44.50672" lon="6.85976">
        <ele>2849.48</ele>
        <time>2015-04-06T12:34:18Z</time>
      </trkpt>
      <trkpt lat="44.50669" lon="6.8597">
        <ele>2850.45</ele>
        <time>2015-04-06T12:34:32Z</time>
      </trkpt>
      <trkpt lat="44.50666" lon="6.85963">
        <ele>2852.37</ele>
        <time>2015-04-06T12:34:47Z</time>
      </trkpt>
      <trkpt lat="44.50663" lon="6.85959">
        <ele>2854.29</ele>
        <time>2015-04-06T12:35:01Z</time>
      </trkpt>
      <trkpt lat="44.50661" lon="6.85955">
        <ele>2856.21</ele>
        <time>2015-04-06T12:35:15Z</time>
      </trkpt>
      <trkpt lat="44.50657" lon="6.8595">
        <ele>2857.66</ele>
        <time>2015-04-06T12:35:29Z</time>
      </trkpt>
      <trkpt lat="44.50653" lon="6.85944">
        <ele>2860.06</ele>
        <time>2015-04-06T12:35:45Z</time>
      </trkpt>
      <trkpt lat="44.50648" lon="6.8594">
        <ele>2861.5</ele>
        <time>2015-04-06T12:36:00Z</time>
      </trkpt>
      <trkpt lat="44.50642" lon="6.85937">
        <ele>2863.42</ele>
        <time>2015-04-06T12:36:16Z</time>
      </trkpt>
      <trkpt lat="44.50636" lon="6.85932">
        <ele>2865.35</ele>
        <time>2015-04-06T12:36:29Z</time>
      </trkpt>
      <trkpt lat="44.5063" lon="6.85926">
        <ele>2867.75</ele>
        <time>2015-04-06T12:36:44Z</time>
      </trkpt>
      <trkpt lat="44.50625" lon="6.85921">
        <ele>2868.71</ele>
        <time>2015-04-06T12:36:58Z</time>
      </trkpt>
      <trkpt lat="44.50623" lon="6.8592">
        <ele>2869.67</ele>
        <time>2015-04-06T12:37:10Z</time>
      </trkpt>
      <trkpt lat="44.50622" lon="6.85918">
        <ele>2869.67</ele>
        <time>2015-04-06T12:37:23Z</time>
      </trkpt>
      <trkpt lat="44.5062" lon="6.85918">
        <ele>2870.15</ele>
        <time>2015-04-06T12:37:40Z</time>
      </trkpt>
      <trkpt lat="44.5062" lon="6.85918">
        <ele>2868.71</ele>
        <time>2015-04-06T12:37:44Z</time>
      </trkpt>
      <trkpt lat="44.5062" lon="6.85916">
        <ele>2870.63</ele>
        <time>2015-04-06T12:38:00Z</time>
      </trkpt>
      <trkpt lat="44.5062" lon="6.85916">
        <ele>2866.31</ele>
        <time>2015-04-06T12:38:01Z</time>
      </trkpt>
      <trkpt lat="44.5062" lon="6.85916">
        <ele>2872.08</ele>
        <time>2015-04-06T12:38:02Z</time>
      </trkpt>
      <trkpt lat="44.5062" lon="6.85916">
        <ele>2872.08</ele>
        <time>2015-04-06T12:38:03Z</time>
      </trkpt>
      <trkpt lat="44.50621" lon="6.85915">
        <ele>2870.15</ele>
        <time>2015-04-06T12:38:06Z</time>
      </trkpt>
      <trkpt lat="44.5062" lon="6.85912">
        <ele>2868.23</ele>
        <time>2015-04-06T12:38:39Z</time>
      </trkpt>
      <trkpt lat="44.5062" lon="6.85917">
        <ele>2867.27</ele>
        <time>2015-04-06T12:39:12Z</time>
      </trkpt>
      <trkpt lat="44.5062" lon="6.85918">
        <ele>2867.27</ele>
        <time>2015-04-06T12:39:44Z</time>
      </trkpt>
      <trkpt lat="44.50618" lon="6.85919">
        <ele>2867.27</ele>
        <time>2015-04-06T12:40:12Z</time>
      </trkpt>
      <trkpt lat="44.50615" lon="6.85917">
        <ele>2866.79</ele>
        <time>2015-04-06T12:40:42Z</time>
      </trkpt>
      <trkpt lat="44.50619" lon="6.85918">
        <ele>2866.79</ele>
        <time>2015-04-06T12:40:59Z</time>
      </trkpt>
      <trkpt lat="44.50618" lon="6.85919">
        <ele>2866.79</ele>
        <time>2015-04-06T12:41:42Z</time>
      </trkpt>
      <trkpt lat="44.5062" lon="6.85915">
        <ele>2866.79</ele>
        <time>2015-04-06T12:42:15Z</time>
      </trkpt>
      <trkpt lat="44.50619" lon="6.85919">
        <ele>2865.35</ele>
        <time>2015-04-06T12:42:54Z</time>
      </trkpt>
      <trkpt lat="44.5062" lon="6.85918">
        <ele>2869.19</ele>
        <time>2015-04-06T12:42:57Z</time>
      </trkpt>
      <trkpt lat="44.5062" lon="6.85918">
        <ele>2867.27</ele>
        <time>2015-04-06T12:42:58Z</time>
      </trkpt>
      <trkpt lat="44.5062" lon="6.85918">
        <ele>2866.31</ele>
        <time>2015-04-06T12:43:00Z</time>
      </trkpt>
      <trkpt lat="44.5062" lon="6.85918">
        <ele>2867.75</ele>
        <time>2015-04-06T12:43:02Z</time>
      </trkpt>
      <trkpt lat="44.50619" lon="6.85919">
        <ele>2868.23</ele>
        <time>2015-04-06T12:43:36Z</time>
      </trkpt>
      <trkpt lat="44.50619" lon="6.85919">
        <ele>2864.87</ele>
        <time>2015-04-06T12:43:38Z</time>
      </trkpt>
      <trkpt lat="44.50619" lon="6.85919">
        <ele>2864.87</ele>
        <time>2015-04-06T12:43:39Z</time>
      </trkpt>
      <trkpt lat="44.50619" lon="6.85919">
        <ele>2867.27</ele>
        <time>2015-04-06T12:43:41Z</time>
      </trkpt>
      <trkpt lat="44.50618" lon="6.85918">
        <ele>2866.31</ele>
        <time>2015-04-06T12:44:00Z</time>
      </trkpt>
      <trkpt lat="44.50618" lon="6.85918">
        <ele>2866.79</ele>
        <time>2015-04-06T12:44:31Z</time>
      </trkpt>
      <trkpt lat="44.50619" lon="6.85916">
        <ele>2867.27</ele>
        <time>2015-04-06T12:45:00Z</time>
      </trkpt>
      <trkpt lat="44.50617" lon="6.85913">
        <ele>2867.27</ele>
        <time>2015-04-06T12:45:38Z</time>
      </trkpt>
      <trkpt lat="44.5062" lon="6.85917">
        <ele>2865.83</ele>
        <time>2015-04-06T12:46:15Z</time>
      </trkpt>
      <trkpt lat="44.50616" lon="6.85916">
        <ele>2865.83</ele>
        <time>2015-04-06T12:46:52Z</time>
      </trkpt>
      <trkpt lat="44.50619" lon="6.85922">
        <ele>2867.27</ele>
        <time>2015-04-06T12:47:09Z</time>
      </trkpt>
      <trkpt lat="44.50622" lon="6.85915">
        <ele>2867.75</ele>
        <time>2015-04-06T12:47:43Z</time>
      </trkpt>
      <trkpt lat="44.50623" lon="6.85916">
        <ele>2866.79</ele>
        <time>2015-04-06T12:48:03Z</time>
      </trkpt>
      <trkpt lat="44.5062" lon="6.85916">
        <ele>2865.83</ele>
        <time>2015-04-06T12:48:38Z</time>
      </trkpt>
      <trkpt lat="44.50625" lon="6.85917">
        <ele>2865.35</ele>
        <time>2015-04-06T12:49:11Z</time>
      </trkpt>
      <trkpt lat="44.50627" lon="6.85919">
        <ele>2865.35</ele>
        <time>2015-04-06T12:49:36Z</time>
      </trkpt>
      <trkpt lat="44.50626" lon="6.85917">
        <ele>2866.31</ele>
        <time>2015-04-06T12:49:52Z</time>
      </trkpt>
      <trkpt lat="44.50625" lon="6.85918">
        <ele>2867.75</ele>
        <time>2015-04-06T12:49:55Z</time>
      </trkpt>
      <trkpt lat="44.50623" lon="6.85916">
        <ele>2867.75</ele>
        <time>2015-04-06T12:50:09Z</time>
      </trkpt>
      <trkpt lat="44.50622" lon="6.85919">
        <ele>2866.31</ele>
        <time>2015-04-06T12:50:19Z</time>
      </trkpt>
      <trkpt lat="44.50621" lon="6.85919">
        <ele>2866.31</ele>
        <time>2015-04-06T12:50:31Z</time>
      </trkpt>
      <trkpt lat="44.50621" lon="6.85919">
        <ele>2866.31</ele>
        <time>2015-04-06T12:50:54Z</time>
      </trkpt>
      <trkpt lat="44.50618" lon="6.85917">
        <ele>2867.75</ele>
        <time>2015-04-06T12:51:07Z</time>
      </trkpt>
      <trkpt lat="44.50618" lon="6.85917">
        <ele>2862.46</ele>
        <time>2015-04-06T12:51:13Z</time>
      </trkpt>
      <trkpt lat="44.50618" lon="6.85916">
        <ele>2867.75</ele>
        <time>2015-04-06T12:51:16Z</time>
      </trkpt>
      <trkpt lat="44.5062" lon="6.85917">
        <ele>2865.83</ele>
        <time>2015-04-06T12:51:47Z</time>
      </trkpt>
      <trkpt lat="44.5062" lon="6.85917">
        <ele>2867.27</ele>
        <time>2015-04-06T12:52:27Z</time>
      </trkpt>
      <trkpt lat="44.5062" lon="6.85917">
        <ele>2865.83</ele>
        <time>2015-04-06T12:52:29Z</time>
      </trkpt>
      <trkpt lat="44.50619" lon="6.85917">
        <ele>2867.27</ele>
        <time>2015-04-06T12:52:46Z</time>
      </trkpt>
      <trkpt lat="44.5062" lon="6.85917">
        <ele>2867.27</ele>
        <time>2015-04-06T12:53:20Z</time>
      </trkpt>
      <trkpt lat="44.50619" lon="6.85917">
        <ele>2865.35</ele>
        <time>2015-04-06T12:53:35Z</time>
      </trkpt>
      <trkpt lat="44.50619" lon="6.85916">
        <ele>2866.79</ele>
        <time>2015-04-06T12:53:45Z</time>
      </trkpt>
      <trkpt lat="44.50615" lon="6.85913">
        <ele>2866.79</ele>
        <time>2015-04-06T12:53:53Z</time>
      </trkpt>
      <trkpt lat="44.5061" lon="6.85909">
        <ele>2864.87</ele>
        <time>2015-04-06T12:54:02Z</time>
      </trkpt>
      <trkpt lat="44.50607" lon="6.85904">
        <ele>2862.94</ele>
        <time>2015-04-06T12:54:06Z</time>
      </trkpt>
      <trkpt lat="44.50598" lon="6.85907">
        <ele>2860.54</ele>
        <time>2015-04-06T12:54:12Z</time>
      </trkpt>
      <trkpt lat="44.50597" lon="6.85901">
        <ele>2857.66</ele>
        <time>2015-04-06T12:54:15Z</time>
      </trkpt>
      <trkpt lat="44.50599" lon="6.85892">
        <ele>2855.25</ele>
        <time>2015-04-06T12:54:24Z</time>
      </trkpt>
      <trkpt lat="44.50599" lon="6.8589">
        <ele>2854.29</ele>
        <time>2015-04-06T12:54:31Z</time>
      </trkpt>
      <trkpt lat="44.50592" lon="6.85891">
        <ele>2851.89</ele>
        <time>2015-04-06T12:54:36Z</time>
      </trkpt>
      <trkpt lat="44.50593" lon="6.85886">
        <ele>2849.97</ele>
        <time>2015-04-06T12:54:44Z</time>
      </trkpt>
      <trkpt lat="44.50594" lon="6.85878">
        <ele>2849</ele>
        <time>2015-04-06T12:54:54Z</time>
      </trkpt>
      <trkpt lat="44.5059" lon="6.85879">
        <ele>2847.08</ele>
        <time>2015-04-06T12:54:57Z</time>
      </trkpt>
      <trkpt lat="44.50588" lon="6.8588">
        <ele>2846.12</ele>
        <time>2015-04-06T12:55:11Z</time>
      </trkpt>
      <trkpt lat="44.50573" lon="6.85885">
        <ele>2842.28</ele>
        <time>2015-04-06T12:55:18Z</time>
      </trkpt>
      <trkpt lat="44.5057" lon="6.85886">
        <ele>2841.79</ele>
        <time>2015-04-06T12:55:20Z</time>
      </trkpt>
      <trkpt lat="44.50558" lon="6.85889">
        <ele>2837.95</ele>
        <time>2015-04-06T12:55:27Z</time>
      </trkpt>
      <trkpt lat="44.50549" lon="6.85889">
        <ele>2834.58</ele>
        <time>2015-04-06T12:55:30Z</time>
      </trkpt>
      <trkpt lat="44.50538" lon="6.8589">
        <ele>2831.22</ele>
        <time>2015-04-06T12:55:34Z</time>
      </trkpt>
      <trkpt lat="44.50524" lon="6.85889">
        <ele>2828.34</ele>
        <time>2015-04-06T12:55:40Z</time>
      </trkpt>
      <trkpt lat="44.50515" lon="6.85888">
        <ele>2824.49</ele>
        <time>2015-04-06T12:55:43Z</time>
      </trkpt>
      <trkpt lat="44.5051" lon="6.85888">
        <ele>2823.53</ele>
        <time>2015-04-06T12:55:45Z</time>
      </trkpt>
      <trkpt lat="44.50495" lon="6.85886">
        <ele>2819.68</ele>
        <time>2015-04-06T12:55:51Z</time>
      </trkpt>
      <trkpt lat="44.50483" lon="6.85885">
        <ele>2816.32</ele>
        <time>2015-04-06T12:55:55Z</time>
      </trkpt>
      <trkpt lat="44.50469" lon="6.85882">
        <ele>2812.96</ele>
        <time>2015-04-06T12:56:00Z</time>
      </trkpt>
      <trkpt lat="44.50459" lon="6.8588">
        <ele>2811.03</ele>
        <time>2015-04-06T12:56:03Z</time>
      </trkpt>
      <trkpt lat="44.50451" lon="6.85876">
        <ele>2809.59</ele>
        <time>2015-04-06T12:56:13Z</time>
      </trkpt>
      <trkpt lat="44.50447" lon="6.85875">
        <ele>2809.59</ele>
        <time>2015-04-06T12:56:38Z</time>
      </trkpt>
      <trkpt lat="44.50425" lon="6.85858">
        <ele>2806.23</ele>
        <time>2015-04-06T12:56:51Z</time>
      </trkpt>
      <trkpt lat="44.50406" lon="6.85843">
        <ele>2802.86</ele>
        <time>2015-04-06T12:57:02Z</time>
      </trkpt>
      <trkpt lat="44.50398" lon="6.85835">
        <ele>2801.42</ele>
        <time>2015-04-06T12:57:07Z</time>
      </trkpt>
      <trkpt lat="44.50382" lon="6.85819">
        <ele>2798.05</ele>
        <time>2015-04-06T12:57:16Z</time>
      </trkpt>
      <trkpt lat="44.5038" lon="6.85816">
        <ele>2798.05</ele>
        <time>2015-04-06T12:57:17Z</time>
      </trkpt>
      <trkpt lat="44.50373" lon="6.85809">
        <ele>2795.65</ele>
        <time>2015-04-06T12:57:28Z</time>
      </trkpt>
      <trkpt lat="44.50371" lon="6.85811">
        <ele>2795.65</ele>
        <time>2015-04-06T12:57:37Z</time>
      </trkpt>
      <trkpt lat="44.50366" lon="6.858">
        <ele>2793.73</ele>
        <time>2015-04-06T12:57:42Z</time>
      </trkpt>
      <trkpt lat="44.50367" lon="6.85793">
        <ele>2790.36</ele>
        <time>2015-04-06T12:57:46Z</time>
      </trkpt>
      <trkpt lat="44.50369" lon="6.8579">
        <ele>2786.04</ele>
        <time>2015-04-06T12:57:48Z</time>
      </trkpt>
      <trkpt lat="44.5037" lon="6.85788">
        <ele>2786.04</ele>
        <time>2015-04-06T12:57:49Z</time>
      </trkpt>
      <trkpt lat="44.50371" lon="6.85782">
        <ele>2782.19</ele>
        <time>2015-04-06T12:57:51Z</time>
      </trkpt>
      <trkpt lat="44.50372" lon="6.85781">
        <ele>2782.19</ele>
        <time>2015-04-06T12:57:52Z</time>
      </trkpt>
      <trkpt lat="44.50373" lon="6.85774">
        <ele>2778.35</ele>
        <time>2015-04-06T12:57:54Z</time>
      </trkpt>
      <trkpt lat="44.50375" lon="6.85768">
        <ele>2774.5</ele>
        <time>2015-04-06T12:57:56Z</time>
      </trkpt>
      <trkpt lat="44.50375" lon="6.85765">
        <ele>2774.5</ele>
        <time>2015-04-06T12:57:57Z</time>
      </trkpt>
      <trkpt lat="44.50376" lon="6.85761">
        <ele>2770.66</ele>
        <time>2015-04-06T12:57:59Z</time>
      </trkpt>
      <trkpt lat="44.50376" lon="6.85757">
        <ele>2770.66</ele>
        <time>2015-04-06T12:58:00Z</time>
      </trkpt>
      <trkpt lat="44.50379" lon="6.85753">
        <ele>2765.85</ele>
        <time>2015-04-06T12:58:02Z</time>
      </trkpt>
      <trkpt lat="44.50381" lon="6.85744">
        <ele>2762.49</ele>
        <time>2015-04-06T12:58:06Z</time>
      </trkpt>
      <trkpt lat="44.50384" lon="6.8574">
        <ele>2758.16</ele>
        <time>2015-04-06T12:58:08Z</time>
      </trkpt>
      <trkpt lat="44.50385" lon="6.85737">
        <ele>2758.64</ele>
        <time>2015-04-06T12:58:09Z</time>
      </trkpt>
      <trkpt lat="44.50388" lon="6.85732">
        <ele>2754.31</ele>
        <time>2015-04-06T12:58:11Z</time>
      </trkpt>
      <trkpt lat="44.5039" lon="6.85731">
        <ele>2754.31</ele>
        <time>2015-04-06T12:58:12Z</time>
      </trkpt>
      <trkpt lat="44.50393" lon="6.85725">
        <ele>2750.47</ele>
        <time>2015-04-06T12:58:14Z</time>
      </trkpt>
      <trkpt lat="44.50395" lon="6.85722">
        <ele>2750.95</ele>
        <time>2015-04-06T12:58:15Z</time>
      </trkpt>
      <trkpt lat="44.50399" lon="6.85717">
        <ele>2746.14</ele>
        <time>2015-04-06T12:58:17Z</time>
      </trkpt>
      <trkpt lat="44.50398" lon="6.85711">
        <ele>2745.66</ele>
        <time>2015-04-06T12:58:19Z</time>
      </trkpt>
      <trkpt lat="44.50403" lon="6.85703">
        <ele>2740.86</ele>
        <time>2015-04-06T12:58:22Z</time>
      </trkpt>
      <trkpt lat="44.50402" lon="6.85702">
        <ele>2739.41</ele>
        <time>2015-04-06T12:58:24Z</time>
      </trkpt>
      <trkpt lat="44.50394" lon="6.85702">
        <ele>2739.41</ele>
        <time>2015-04-06T12:58:42Z</time>
      </trkpt>
      <trkpt lat="44.50393" lon="6.85701">
        <ele>2739.41</ele>
        <time>2015-04-06T12:59:10Z</time>
      </trkpt>
      <trkpt lat="44.50397" lon="6.857">
        <ele>2739.41</ele>
        <time>2015-04-06T12:59:45Z</time>
      </trkpt>
      <trkpt lat="44.50401" lon="6.85702">
        <ele>2739.41</ele>
        <time>2015-04-06T13:00:19Z</time>
      </trkpt>
      <trkpt lat="44.50401" lon="6.857">
        <ele>2739.41</ele>
        <time>2015-04-06T13:00:43Z</time>
      </trkpt>
      <trkpt lat="44.50399" lon="6.85705">
        <ele>2739.41</ele>
        <time>2015-04-06T13:01:19Z</time>
      </trkpt>
      <trkpt lat="44.50399" lon="6.85701">
        <ele>2739.41</ele>
        <time>2015-04-06T13:01:32Z</time>
      </trkpt>
      <trkpt lat="44.50397" lon="6.8569">
        <ele>2737.97</ele>
        <time>2015-04-06T13:01:41Z</time>
      </trkpt>
      <trkpt lat="44.50401" lon="6.85678">
        <ele>2735.57</ele>
        <time>2015-04-06T13:01:44Z</time>
      </trkpt>
      <trkpt lat="44.50405" lon="6.8567">
        <ele>2730.28</ele>
        <time>2015-04-06T13:01:46Z</time>
      </trkpt>
      <trkpt lat="44.50407" lon="6.85662">
        <ele>2725.96</ele>
        <time>2015-04-06T13:01:48Z</time>
      </trkpt>
      <trkpt lat="44.50407" lon="6.85659">
        <ele>2725.96</ele>
        <time>2015-04-06T13:01:49Z</time>
      </trkpt>
      <trkpt lat="44.50408" lon="6.85652">
        <ele>2722.59</ele>
        <time>2015-04-06T13:01:51Z</time>
      </trkpt>
      <trkpt lat="44.50412" lon="6.85644">
        <ele>2718.27</ele>
        <time>2015-04-06T13:01:53Z</time>
      </trkpt>
      <trkpt lat="44.50415" lon="6.85642">
        <ele>2718.27</ele>
        <time>2015-04-06T13:01:54Z</time>
      </trkpt>
      <trkpt lat="44.50418" lon="6.85634">
        <ele>2714.42</ele>
        <time>2015-04-06T13:01:56Z</time>
      </trkpt>
      <trkpt lat="44.50422" lon="6.85626">
        <ele>2709.61</ele>
        <time>2015-04-06T13:01:58Z</time>
      </trkpt>
      <trkpt lat="44.50423" lon="6.85624">
        <ele>2709.61</ele>
        <time>2015-04-06T13:01:59Z</time>
      </trkpt>
      <trkpt lat="44.50426" lon="6.85612">
        <ele>2704.33</ele>
        <time>2015-04-06T13:02:02Z</time>
      </trkpt>
      <trkpt lat="44.50425" lon="6.85601">
        <ele>2700.48</ele>
        <time>2015-04-06T13:02:05Z</time>
      </trkpt>
      <trkpt lat="44.50428" lon="6.85592">
        <ele>2696.64</ele>
        <time>2015-04-06T13:02:08Z</time>
      </trkpt>
      <trkpt lat="44.50428" lon="6.85592">
        <ele>2697.12</ele>
        <time>2015-04-06T13:02:09Z</time>
      </trkpt>
      <trkpt lat="44.50431" lon="6.85593">
        <ele>2697.12</ele>
        <time>2015-04-06T13:02:30Z</time>
      </trkpt>
      <trkpt lat="44.50413" lon="6.85566">
        <ele>2693.75</ele>
        <time>2015-04-06T13:02:38Z</time>
      </trkpt>
      <trkpt lat="44.50401" lon="6.8555">
        <ele>2690.39</ele>
        <time>2015-04-06T13:02:42Z</time>
      </trkpt>
      <trkpt lat="44.50399" lon="6.85546">
        <ele>2689.91</ele>
        <time>2015-04-06T13:02:43Z</time>
      </trkpt>
      <trkpt lat="44.50399" lon="6.85534">
        <ele>2686.06</ele>
        <time>2015-04-06T13:02:46Z</time>
      </trkpt>
      <trkpt lat="44.50402" lon="6.85524">
        <ele>2682.7</ele>
        <time>2015-04-06T13:02:48Z</time>
      </trkpt>
      <trkpt lat="44.50401" lon="6.855">
        <ele>2675.49</ele>
        <time>2015-04-06T13:02:52Z</time>
      </trkpt>
      <trkpt lat="44.50402" lon="6.85488">
        <ele>2672.12</ele>
        <time>2015-04-06T13:02:54Z</time>
      </trkpt>
      <trkpt lat="44.50402" lon="6.85482">
        <ele>2672.12</ele>
        <time>2015-04-06T13:02:55Z</time>
      </trkpt>
      <trkpt lat="44.50401" lon="6.85469">
        <ele>2668.76</ele>
        <time>2015-04-06T13:02:57Z</time>
      </trkpt>
      <trkpt lat="44.504" lon="6.85462">
        <ele>2667.31</ele>
        <time>2015-04-06T13:02:58Z</time>
      </trkpt>
      <trkpt lat="44.50398" lon="6.85439">
        <ele>2662.51</ele>
        <time>2015-04-06T13:03:02Z</time>
      </trkpt>
      <trkpt lat="44.50397" lon="6.85428">
        <ele>2658.18</ele>
        <time>2015-04-06T13:03:04Z</time>
      </trkpt>
      <trkpt lat="44.50398" lon="6.85416">
        <ele>2654.82</ele>
        <time>2015-04-06T13:03:06Z</time>
      </trkpt>
      <trkpt lat="44.50399" lon="6.85404">
        <ele>2651.45</ele>
        <time>2015-04-06T13:03:08Z</time>
      </trkpt>
      <trkpt lat="44.504" lon="6.85394">
        <ele>2648.09</ele>
        <time>2015-04-06T13:03:10Z</time>
      </trkpt>
      <trkpt lat="44.50402" lon="6.85383">
        <ele>2643.76</ele>
        <time>2015-04-06T13:03:12Z</time>
      </trkpt>
      <trkpt lat="44.50405" lon="6.85372">
        <ele>2640.4</ele>
        <time>2015-04-06T13:03:14Z</time>
      </trkpt>
      <trkpt lat="44.50405" lon="6.85365">
        <ele>2640.4</ele>
        <time>2015-04-06T13:03:15Z</time>
      </trkpt>
      <trkpt lat="44.50405" lon="6.85357">
        <ele>2637.51</ele>
        <time>2015-04-06T13:03:16Z</time>
      </trkpt>
      <trkpt lat="44.50406" lon="6.8535">
        <ele>2636.07</ele>
        <time>2015-04-06T13:03:17Z</time>
      </trkpt>
      <trkpt lat="44.50406" lon="6.85343">
        <ele>2635.59</ele>
        <time>2015-04-06T13:03:18Z</time>
      </trkpt>
      <trkpt lat="44.50407" lon="6.85336">
        <ele>2634.15</ele>
        <time>2015-04-06T13:03:19Z</time>
      </trkpt>
      <trkpt lat="44.50405" lon="6.8533">
        <ele>2633.67</ele>
        <time>2015-04-06T13:03:20Z</time>
      </trkpt>
      <trkpt lat="44.50403" lon="6.85327">
        <ele>2633.67</ele>
        <time>2015-04-06T13:03:21Z</time>
      </trkpt>
      <trkpt lat="44.50401" lon="6.85323">
        <ele>2631.75</ele>
        <time>2015-04-06T13:03:22Z</time>
      </trkpt>
      <trkpt lat="44.50401" lon="6.85317">
        <ele>2631.75</ele>
        <time>2015-04-06T13:03:23Z</time>
      </trkpt>
      <trkpt lat="44.504" lon="6.85311">
        <ele>2630.3</ele>
        <time>2015-04-06T13:03:24Z</time>
      </trkpt>
      <trkpt lat="44.50397" lon="6.85308">
        <ele>2628.86</ele>
        <time>2015-04-06T13:03:25Z</time>
      </trkpt>
      <trkpt lat="44.50395" lon="6.85308">
        <ele>2628.38</ele>
        <time>2015-04-06T13:03:26Z</time>
      </trkpt>
      <trkpt lat="44.50394" lon="6.85308">
        <ele>2628.38</ele>
        <time>2015-04-06T13:03:27Z</time>
      </trkpt>
      <trkpt lat="44.50394" lon="6.85311">
        <ele>2628.86</ele>
        <time>2015-04-06T13:03:50Z</time>
      </trkpt>
      <trkpt lat="44.50392" lon="6.8531">
        <ele>2628.86</ele>
        <time>2015-04-06T13:03:53Z</time>
      </trkpt>
      <trkpt lat="44.50392" lon="6.85309">
        <ele>2627.9</ele>
        <time>2015-04-06T13:04:03Z</time>
      </trkpt>
      <trkpt lat="44.50393" lon="6.85306">
        <ele>2627.9</ele>
        <time>2015-04-06T13:04:24Z</time>
      </trkpt>
      <trkpt lat="44.50393" lon="6.85305">
        <ele>2627.9</ele>
        <time>2015-04-06T13:04:41Z</time>
      </trkpt>
      <trkpt lat="44.50393" lon="6.85306">
        <ele>2628.38</ele>
        <time>2015-04-06T13:05:09Z</time>
      </trkpt>
      <trkpt lat="44.50392" lon="6.85305">
        <ele>2628.38</ele>
        <time>2015-04-06T13:05:36Z</time>
      </trkpt>
      <trkpt lat="44.50391" lon="6.85307">
        <ele>2622.61</ele>
        <time>2015-04-06T13:05:47Z</time>
      </trkpt>
      <trkpt lat="44.50391" lon="6.85307">
        <ele>2629.34</ele>
        <time>2015-04-06T13:05:48Z</time>
      </trkpt>
      <trkpt lat="44.50392" lon="6.85307">
        <ele>2628.38</ele>
        <time>2015-04-06T13:05:56Z</time>
      </trkpt>
      <trkpt lat="44.50392" lon="6.85307">
        <ele>2628.38</ele>
        <time>2015-04-06T13:06:10Z</time>
      </trkpt>
      <trkpt lat="44.50392" lon="6.85307">
        <ele>2627.42</ele>
        <time>2015-04-06T13:06:45Z</time>
      </trkpt>
      <trkpt lat="44.50392" lon="6.85307">
        <ele>2627.42</ele>
        <time>2015-04-06T13:06:46Z</time>
      </trkpt>
      <trkpt lat="44.50392" lon="6.85307">
        <ele>2628.38</ele>
        <time>2015-04-06T13:07:19Z</time>
      </trkpt>
      <trkpt lat="44.50392" lon="6.85308">
        <ele>2628.38</ele>
        <time>2015-04-06T13:07:54Z</time>
      </trkpt>
      <trkpt lat="44.50391" lon="6.85307">
        <ele>2628.38</ele>
        <time>2015-04-06T13:08:26Z</time>
      </trkpt>
      <trkpt lat="44.5039" lon="6.85306">
        <ele>2628.38</ele>
        <time>2015-04-06T13:08:46Z</time>
      </trkpt>
      <trkpt lat="44.50392" lon="6.85308">
        <ele>2627.9</ele>
        <time>2015-04-06T13:09:01Z</time>
      </trkpt>
      <trkpt lat="44.50392" lon="6.85308">
        <ele>2627.9</ele>
        <time>2015-04-06T13:09:24Z</time>
      </trkpt>
      <trkpt lat="44.50391" lon="6.8531">
        <ele>2629.34</ele>
        <time>2015-04-06T13:09:36Z</time>
      </trkpt>
      <trkpt lat="44.50391" lon="6.85306">
        <ele>2629.34</ele>
        <time>2015-04-06T13:09:47Z</time>
      </trkpt>
      <trkpt lat="44.50391" lon="6.85304">
        <ele>2629.34</ele>
        <time>2015-04-06T13:10:03Z</time>
      </trkpt>
      <trkpt lat="44.50391" lon="6.85301">
        <ele>2629.34</ele>
        <time>2015-04-06T13:10:28Z</time>
      </trkpt>
      <trkpt lat="44.50391" lon="6.853">
        <ele>2629.34</ele>
        <time>2015-04-06T13:10:51Z</time>
      </trkpt>
      <trkpt lat="44.50393" lon="6.85297">
        <ele>2629.34</ele>
        <time>2015-04-06T13:11:10Z</time>
      </trkpt>
      <trkpt lat="44.50396" lon="6.8529">
        <ele>2628.38</ele>
        <time>2015-04-06T13:11:13Z</time>
      </trkpt>
      <trkpt lat="44.50394" lon="6.85287">
        <ele>2626.94</ele>
        <time>2015-04-06T13:11:14Z</time>
      </trkpt>
      <trkpt lat="44.50392" lon="6.85284">
        <ele>2626.46</ele>
        <time>2015-04-06T13:11:15Z</time>
      </trkpt>
      <trkpt lat="44.50393" lon="6.8528">
        <ele>2625.5</ele>
        <time>2015-04-06T13:11:16Z</time>
      </trkpt>
      <trkpt lat="44.50394" lon="6.85277">
        <ele>2624.54</ele>
        <time>2015-04-06T13:11:17Z</time>
      </trkpt>
      <trkpt lat="44.50393" lon="6.85273">
        <ele>2624.06</ele>
        <time>2015-04-06T13:11:18Z</time>
      </trkpt>
      <trkpt lat="44.50394" lon="6.85269">
        <ele>2622.13</ele>
        <time>2015-04-06T13:11:19Z</time>
      </trkpt>
      <trkpt lat="44.50396" lon="6.85267">
        <ele>2621.65</ele>
        <time>2015-04-06T13:11:20Z</time>
      </trkpt>
      <trkpt lat="44.50397" lon="6.85265">
        <ele>2620.69</ele>
        <time>2015-04-06T13:11:21Z</time>
      </trkpt>
      <trkpt lat="44.50395" lon="6.85263">
        <ele>2619.73</ele>
        <time>2015-04-06T13:11:22Z</time>
      </trkpt>
      <trkpt lat="44.5039" lon="6.85262">
        <ele>2618.77</ele>
        <time>2015-04-06T13:11:25Z</time>
      </trkpt>
      <trkpt lat="44.50384" lon="6.85261">
        <ele>2616.85</ele>
        <time>2015-04-06T13:11:27Z</time>
      </trkpt>
      <trkpt lat="44.50383" lon="6.85248">
        <ele>2613</ele>
        <time>2015-04-06T13:11:32Z</time>
      </trkpt>
      <trkpt lat="44.50385" lon="6.85239">
        <ele>2608.19</ele>
        <time>2015-04-06T13:11:35Z</time>
      </trkpt>
      <trkpt lat="44.50385" lon="6.85236">
        <ele>2607.71</ele>
        <time>2015-04-06T13:11:36Z</time>
      </trkpt>
      <trkpt lat="44.50385" lon="6.85231">
        <ele>2605.79</ele>
        <time>2015-04-06T13:11:37Z</time>
      </trkpt>
      <trkpt lat="44.50386" lon="6.85228">
        <ele>2604.83</ele>
        <time>2015-04-06T13:11:38Z</time>
      </trkpt>
      <trkpt lat="44.50385" lon="6.85225">
        <ele>2602.91</ele>
        <time>2015-04-06T13:11:39Z</time>
      </trkpt>
      <trkpt lat="44.50384" lon="6.85222">
        <ele>2601.46</ele>
        <time>2015-04-06T13:11:40Z</time>
      </trkpt>
      <trkpt lat="44.50386" lon="6.85219">
        <ele>2600.02</ele>
        <time>2015-04-06T13:11:41Z</time>
      </trkpt>
      <trkpt lat="44.50388" lon="6.85216">
        <ele>2599.06</ele>
        <time>2015-04-06T13:11:42Z</time>
      </trkpt>
      <trkpt lat="44.50386" lon="6.85213">
        <ele>2598.1</ele>
        <time>2015-04-06T13:11:43Z</time>
      </trkpt>
      <trkpt lat="44.50383" lon="6.8521">
        <ele>2597.62</ele>
        <time>2015-04-06T13:11:44Z</time>
      </trkpt>
      <trkpt lat="44.50383" lon="6.85206">
        <ele>2595.7</ele>
        <time>2015-04-06T13:11:45Z</time>
      </trkpt>
      <trkpt lat="44.50383" lon="6.85203">
        <ele>2594.74</ele>
        <time>2015-04-06T13:11:46Z</time>
      </trkpt>
      <trkpt lat="44.5038" lon="6.85201">
        <ele>2594.25</ele>
        <time>2015-04-06T13:11:47Z</time>
      </trkpt>
      <trkpt lat="44.50376" lon="6.85199">
        <ele>2593.29</ele>
        <time>2015-04-06T13:11:48Z</time>
      </trkpt>
      <trkpt lat="44.50374" lon="6.85196">
        <ele>2592.81</ele>
        <time>2015-04-06T13:11:49Z</time>
      </trkpt>
      <trkpt lat="44.50374" lon="6.85192">
        <ele>2590.89</ele>
        <time>2015-04-06T13:11:50Z</time>
      </trkpt>
      <trkpt lat="44.50375" lon="6.85188">
        <ele>2588.97</ele>
        <time>2015-04-06T13:11:51Z</time>
      </trkpt>
      <trkpt lat="44.50378" lon="6.85187">
        <ele>2588.49</ele>
        <time>2015-04-06T13:11:53Z</time>
      </trkpt>
      <trkpt lat="44.50381" lon="6.85187">
        <ele>2588.97</ele>
        <time>2015-04-06T13:12:03Z</time>
      </trkpt>
      <trkpt lat="44.5038" lon="6.85184">
        <ele>2588.01</ele>
        <time>2015-04-06T13:12:04Z</time>
      </trkpt>
      <trkpt lat="44.50378" lon="6.85182">
        <ele>2587.04</ele>
        <time>2015-04-06T13:12:05Z</time>
      </trkpt>
      <trkpt lat="44.50375" lon="6.8518">
        <ele>2586.56</ele>
        <time>2015-04-06T13:12:06Z</time>
      </trkpt>
      <trkpt lat="44.50374" lon="6.85177">
        <ele>2585.6</ele>
        <time>2015-04-06T13:12:07Z</time>
      </trkpt>
      <trkpt lat="44.50375" lon="6.85173">
        <ele>2583.68</ele>
        <time>2015-04-06T13:12:08Z</time>
      </trkpt>
      <trkpt lat="44.50378" lon="6.85171">
        <ele>2583.2</ele>
        <time>2015-04-06T13:12:09Z</time>
      </trkpt>
      <trkpt lat="44.50379" lon="6.85167">
        <ele>2583.2</ele>
        <time>2015-04-06T13:12:10Z</time>
      </trkpt>
      <trkpt lat="44.50378" lon="6.85164">
        <ele>2581.76</ele>
        <time>2015-04-06T13:12:11Z</time>
      </trkpt>
      <trkpt lat="44.50375" lon="6.85162">
        <ele>2580.8</ele>
        <time>2015-04-06T13:12:12Z</time>
      </trkpt>
      <trkpt lat="44.50373" lon="6.85159">
        <ele>2579.35</ele>
        <time>2015-04-06T13:12:13Z</time>
      </trkpt>
      <trkpt lat="44.50375" lon="6.85156">
        <ele>2577.43</ele>
        <time>2015-04-06T13:12:14Z</time>
      </trkpt>
      <trkpt lat="44.50378" lon="6.85153">
        <ele>2575.99</ele>
        <time>2015-04-06T13:12:15Z</time>
      </trkpt>
      <trkpt lat="44.50387" lon="6.85146">
        <ele>2574.07</ele>
        <time>2015-04-06T13:12:18Z</time>
      </trkpt>
      <trkpt lat="44.50388" lon="6.85142">
        <ele>2572.63</ele>
        <time>2015-04-06T13:12:19Z</time>
      </trkpt>
      <trkpt lat="44.50388" lon="6.85139">
        <ele>2570.7</ele>
        <time>2015-04-06T13:12:20Z</time>
      </trkpt>
      <trkpt lat="44.50387" lon="6.85134">
        <ele>2569.74</ele>
        <time>2015-04-06T13:12:21Z</time>
      </trkpt>
      <trkpt lat="44.50388" lon="6.8513">
        <ele>2567.34</ele>
        <time>2015-04-06T13:12:22Z</time>
      </trkpt>
      <trkpt lat="44.50394" lon="6.8512">
        <ele>2563.49</ele>
        <time>2015-04-06T13:12:25Z</time>
      </trkpt>
      <trkpt lat="44.50396" lon="6.85116">
        <ele>2562.05</ele>
        <time>2015-04-06T13:12:26Z</time>
      </trkpt>
      <trkpt lat="44.50397" lon="6.8511">
        <ele>2559.65</ele>
        <time>2015-04-06T13:12:28Z</time>
      </trkpt>
      <trkpt lat="44.50383" lon="6.85096">
        <ele>2557.24</ele>
        <time>2015-04-06T13:12:31Z</time>
      </trkpt>
      <trkpt lat="44.50384" lon="6.85091">
        <ele>2555.8</ele>
        <time>2015-04-06T13:12:32Z</time>
      </trkpt>
      <trkpt lat="44.50382" lon="6.85085">
        <ele>2554.84</ele>
        <time>2015-04-06T13:12:33Z</time>
      </trkpt>
      <trkpt lat="44.5038" lon="6.85081">
        <ele>2554.36</ele>
        <time>2015-04-06T13:12:34Z</time>
      </trkpt>
      <trkpt lat="44.50377" lon="6.85079">
        <ele>2552.92</ele>
        <time>2015-04-06T13:12:35Z</time>
      </trkpt>
      <trkpt lat="44.50375" lon="6.85077">
        <ele>2552.92</ele>
        <time>2015-04-06T13:12:36Z</time>
      </trkpt>
      <trkpt lat="44.50375" lon="6.85074">
        <ele>2551</ele>
        <time>2015-04-06T13:12:37Z</time>
      </trkpt>
      <trkpt lat="44.50376" lon="6.85072">
        <ele>2550.51</ele>
        <time>2015-04-06T13:12:38Z</time>
      </trkpt>
      <trkpt lat="44.50377" lon="6.85069">
        <ele>2551</ele>
        <time>2015-04-06T13:12:39Z</time>
      </trkpt>
      <trkpt lat="44.50377" lon="6.85064">
        <ele>2550.03</ele>
        <time>2015-04-06T13:12:40Z</time>
      </trkpt>
      <trkpt lat="44.50375" lon="6.85061">
        <ele>2549.55</ele>
        <time>2015-04-06T13:12:41Z</time>
      </trkpt>
      <trkpt lat="44.50373" lon="6.85062">
        <ele>2548.59</ele>
        <time>2015-04-06T13:12:42Z</time>
      </trkpt>
      <trkpt lat="44.50373" lon="6.85064">
        <ele>2547.63</ele>
        <time>2015-04-06T13:12:43Z</time>
      </trkpt>
      <trkpt lat="44.50372" lon="6.85065">
        <ele>2547.63</ele>
        <time>2015-04-06T13:12:44Z</time>
      </trkpt>
      <trkpt lat="44.50373" lon="6.85065">
        <ele>2547.63</ele>
        <time>2015-04-06T13:12:52Z</time>
      </trkpt>
      <trkpt lat="44.50372" lon="6.85065">
        <ele>2547.63</ele>
        <time>2015-04-06T13:12:53Z</time>
      </trkpt>
      <trkpt lat="44.50369" lon="6.85063">
        <ele>2547.63</ele>
        <time>2015-04-06T13:12:54Z</time>
      </trkpt>
      <trkpt lat="44.50364" lon="6.85059">
        <ele>2546.19</ele>
        <time>2015-04-06T13:12:55Z</time>
      </trkpt>
      <trkpt lat="44.50358" lon="6.85052">
        <ele>2544.27</ele>
        <time>2015-04-06T13:12:56Z</time>
      </trkpt>
      <trkpt lat="44.50352" lon="6.85045">
        <ele>2542.82</ele>
        <time>2015-04-06T13:12:57Z</time>
      </trkpt>
      <trkpt lat="44.50329" lon="6.85012">
        <ele>2538.02</ele>
        <time>2015-04-06T13:13:01Z</time>
      </trkpt>
      <trkpt lat="44.50316" lon="6.84993">
        <ele>2536.58</ele>
        <time>2015-04-06T13:13:05Z</time>
      </trkpt>
      <trkpt lat="44.50314" lon="6.84988">
        <ele>2535.61</ele>
        <time>2015-04-06T13:13:06Z</time>
      </trkpt>
      <trkpt lat="44.50312" lon="6.84982">
        <ele>2535.13</ele>
        <time>2015-04-06T13:13:07Z</time>
      </trkpt>
      <trkpt lat="44.50312" lon="6.84949">
        <ele>2532.73</ele>
        <time>2015-04-06T13:13:15Z</time>
      </trkpt>
      <trkpt lat="44.50328" lon="6.84898">
        <ele>2529.37</ele>
        <time>2015-04-06T13:13:28Z</time>
      </trkpt>
      <trkpt lat="44.5033" lon="6.84887">
        <ele>2527.44</ele>
        <time>2015-04-06T13:13:30Z</time>
      </trkpt>
      <trkpt lat="44.50334" lon="6.84844">
        <ele>2524.08</ele>
        <time>2015-04-06T13:13:39Z</time>
      </trkpt>
      <trkpt lat="44.50338" lon="6.84802">
        <ele>2520.71</ele>
        <time>2015-04-06T13:13:50Z</time>
      </trkpt>
      <trkpt lat="44.50344" lon="6.84764">
        <ele>2517.35</ele>
        <time>2015-04-06T13:13:57Z</time>
      </trkpt>
      <trkpt lat="44.50345" lon="6.84759">
        <ele>2517.35</ele>
        <time>2015-04-06T13:13:58Z</time>
      </trkpt>
      <trkpt lat="44.50346" lon="6.84718">
        <ele>2513.98</ele>
        <time>2015-04-06T13:14:06Z</time>
      </trkpt>
      <trkpt lat="44.50344" lon="6.84694">
        <ele>2510.62</ele>
        <time>2015-04-06T13:14:13Z</time>
      </trkpt>
      <trkpt lat="44.50343" lon="6.84693">
        <ele>2510.62</ele>
        <time>2015-04-06T13:14:14Z</time>
      </trkpt>
      <trkpt lat="44.50346" lon="6.8469">
        <ele>2510.62</ele>
        <time>2015-04-06T13:14:33Z</time>
      </trkpt>
      <trkpt lat="44.50347" lon="6.84691">
        <ele>2510.14</ele>
        <time>2015-04-06T13:15:00Z</time>
      </trkpt>
      <trkpt lat="44.50347" lon="6.8469">
        <ele>2510.14</ele>
        <time>2015-04-06T13:15:02Z</time>
      </trkpt>
      <trkpt lat="44.50347" lon="6.84675">
        <ele>2509.18</ele>
        <time>2015-04-06T13:15:06Z</time>
      </trkpt>
      <trkpt lat="44.50353" lon="6.84641">
        <ele>2504.37</ele>
        <time>2015-04-06T13:15:12Z</time>
      </trkpt>
      <trkpt lat="44.50356" lon="6.84618">
        <ele>2500.53</ele>
        <time>2015-04-06T13:15:16Z</time>
      </trkpt>
      <trkpt lat="44.50354" lon="6.84614">
        <ele>2500.53</ele>
        <time>2015-04-06T13:15:17Z</time>
      </trkpt>
      <trkpt lat="44.50352" lon="6.84604">
        <ele>2499.08</ele>
        <time>2015-04-06T13:15:19Z</time>
      </trkpt>
      <trkpt lat="44.50348" lon="6.84585">
        <ele>2496.2</ele>
        <time>2015-04-06T13:15:22Z</time>
      </trkpt>
      <trkpt lat="44.50347" lon="6.84577">
        <ele>2494.76</ele>
        <time>2015-04-06T13:15:24Z</time>
      </trkpt>
      <trkpt lat="44.50347" lon="6.84575">
        <ele>2494.76</ele>
        <time>2015-04-06T13:15:34Z</time>
      </trkpt>
      <trkpt lat="44.5035" lon="6.84576">
        <ele>2493.8</ele>
        <time>2015-04-06T13:16:13Z</time>
      </trkpt>
      <trkpt lat="44.50354" lon="6.84577">
        <ele>2493.8</ele>
        <time>2015-04-06T13:16:34Z</time>
      </trkpt>
      <trkpt lat="44.50356" lon="6.84576">
        <ele>2493.8</ele>
        <time>2015-04-06T13:16:40Z</time>
      </trkpt>
      <trkpt lat="44.50355" lon="6.84564">
        <ele>2493.32</ele>
        <time>2015-04-06T13:16:44Z</time>
      </trkpt>
      <trkpt lat="44.50359" lon="6.84546">
        <ele>2488.51</ele>
        <time>2015-04-06T13:16:48Z</time>
      </trkpt>
      <trkpt lat="44.50366" lon="6.84529">
        <ele>2484.18</ele>
        <time>2015-04-06T13:16:51Z</time>
      </trkpt>
      <trkpt lat="44.50368" lon="6.84516">
        <ele>2480.34</ele>
        <time>2015-04-06T13:16:53Z</time>
      </trkpt>
      <trkpt lat="44.50367" lon="6.84497">
        <ele>2476.49</ele>
        <time>2015-04-06T13:16:56Z</time>
      </trkpt>
      <trkpt lat="44.50366" lon="6.84486">
        <ele>2473.61</ele>
        <time>2015-04-06T13:16:58Z</time>
      </trkpt>
      <trkpt lat="44.50372" lon="6.84479">
        <ele>2471.69</ele>
        <time>2015-04-06T13:17:01Z</time>
      </trkpt>
      <trkpt lat="44.5037" lon="6.84469">
        <ele>2469.28</ele>
        <time>2015-04-06T13:17:05Z</time>
      </trkpt>
      <trkpt lat="44.50364" lon="6.84457">
        <ele>2468.8</ele>
        <time>2015-04-06T13:17:09Z</time>
      </trkpt>
      <trkpt lat="44.50371" lon="6.84454">
        <ele>2465.92</ele>
        <time>2015-04-06T13:17:15Z</time>
      </trkpt>
      <trkpt lat="44.5037" lon="6.84453">
        <ele>2466.4</ele>
        <time>2015-04-06T13:17:19Z</time>
      </trkpt>
      <trkpt lat="44.50368" lon="6.84436">
        <ele>2463.04</ele>
        <time>2015-04-06T13:17:26Z</time>
      </trkpt>
      <trkpt lat="44.50365" lon="6.84427">
        <ele>2460.63</ele>
        <time>2015-04-06T13:17:37Z</time>
      </trkpt>
      <trkpt lat="44.50369" lon="6.84418">
        <ele>2456.31</ele>
        <time>2015-04-06T13:17:41Z</time>
      </trkpt>
      <trkpt lat="44.50375" lon="6.84408">
        <ele>2452.46</ele>
        <time>2015-04-06T13:17:44Z</time>
      </trkpt>
      <trkpt lat="44.50377" lon="6.84402">
        <ele>2448.62</ele>
        <time>2015-04-06T13:17:46Z</time>
      </trkpt>
      <trkpt lat="44.50379" lon="6.84396">
        <ele>2445.25</ele>
        <time>2015-04-06T13:17:48Z</time>
      </trkpt>
      <trkpt lat="44.50383" lon="6.84389">
        <ele>2441.41</ele>
        <time>2015-04-06T13:17:50Z</time>
      </trkpt>
      <trkpt lat="44.50389" lon="6.84386">
        <ele>2438.04</ele>
        <time>2015-04-06T13:17:52Z</time>
      </trkpt>
      <trkpt lat="44.50393" lon="6.84381">
        <ele>2434.2</ele>
        <time>2015-04-06T13:17:54Z</time>
      </trkpt>
      <trkpt lat="44.50397" lon="6.84374">
        <ele>2428.91</ele>
        <time>2015-04-06T13:17:56Z</time>
      </trkpt>
      <trkpt lat="44.50402" lon="6.84372">
        <ele>2425.06</ele>
        <time>2015-04-06T13:17:58Z</time>
      </trkpt>
      <trkpt lat="44.50408" lon="6.84366">
        <ele>2421.7</ele>
        <time>2015-04-06T13:18:00Z</time>
      </trkpt>
      <trkpt lat="44.50411" lon="6.84368">
        <ele>2417.85</ele>
        <time>2015-04-06T13:18:01Z</time>
      </trkpt>
      <trkpt lat="44.50418" lon="6.84364">
        <ele>2414.01</ele>
        <time>2015-04-06T13:18:03Z</time>
      </trkpt>
      <trkpt lat="44.50422" lon="6.84354">
        <ele>2409.68</ele>
        <time>2015-04-06T13:18:05Z</time>
      </trkpt>
      <trkpt lat="44.50431" lon="6.84354">
        <ele>2405.36</ele>
        <time>2015-04-06T13:18:07Z</time>
      </trkpt>
      <trkpt lat="44.50432" lon="6.84333">
        <ele>2400.07</ele>
        <time>2015-04-06T13:18:14Z</time>
      </trkpt>
      <trkpt lat="44.50434" lon="6.8433">
        <ele>2400.55</ele>
        <time>2015-04-06T13:18:32Z</time>
      </trkpt>
      <trkpt lat="44.50431" lon="6.84328">
        <ele>2401.03</ele>
        <time>2015-04-06T13:19:07Z</time>
      </trkpt>
      <trkpt lat="44.50432" lon="6.84329">
        <ele>2401.03</ele>
        <time>2015-04-06T13:19:33Z</time>
      </trkpt>
      <trkpt lat="44.50432" lon="6.84322">
        <ele>2401.51</ele>
        <time>2015-04-06T13:19:36Z</time>
      </trkpt>
      <trkpt lat="44.50444" lon="6.84307">
        <ele>2395.74</ele>
        <time>2015-04-06T13:19:40Z</time>
      </trkpt>
      <trkpt lat="44.50451" lon="6.84296">
        <ele>2392.38</ele>
        <time>2015-04-06T13:19:42Z</time>
      </trkpt>
      <trkpt lat="44.50455" lon="6.84276">
        <ele>2390.46</ele>
        <time>2015-04-06T13:19:45Z</time>
      </trkpt>
      <trkpt lat="44.50458" lon="6.84247">
        <ele>2386.61</ele>
        <time>2015-04-06T13:19:49Z</time>
      </trkpt>
      <trkpt lat="44.5046" lon="6.84225">
        <ele>2382.76</ele>
        <time>2015-04-06T13:19:52Z</time>
      </trkpt>
      <trkpt lat="44.50465" lon="6.84192">
        <ele>2378.92</ele>
        <time>2015-04-06T13:19:56Z</time>
      </trkpt>
      <trkpt lat="44.50468" lon="6.84176">
        <ele>2377</ele>
        <time>2015-04-06T13:19:58Z</time>
      </trkpt>
      <trkpt lat="44.50474" lon="6.84134">
        <ele>2371.71</ele>
        <time>2015-04-06T13:20:03Z</time>
      </trkpt>
      <trkpt lat="44.50476" lon="6.84115">
        <ele>2370.27</ele>
        <time>2015-04-06T13:20:05Z</time>
      </trkpt>
      <trkpt lat="44.50483" lon="6.84068">
        <ele>2365.46</ele>
        <time>2015-04-06T13:20:10Z</time>
      </trkpt>
      <trkpt lat="44.50488" lon="6.84039">
        <ele>2363.54</ele>
        <time>2015-04-06T13:20:13Z</time>
      </trkpt>
      <trkpt lat="44.50491" lon="6.84004">
        <ele>2360.17</ele>
        <time>2015-04-06T13:20:17Z</time>
      </trkpt>
      <trkpt lat="44.50491" lon="6.83971">
        <ele>2357.29</ele>
        <time>2015-04-06T13:20:21Z</time>
      </trkpt>
      <trkpt lat="44.50493" lon="6.83925">
        <ele>2351.04</ele>
        <time>2015-04-06T13:20:25Z</time>
      </trkpt>
      <trkpt lat="44.50492" lon="6.83903">
        <ele>2350.08</ele>
        <time>2015-04-06T13:20:27Z</time>
      </trkpt>
      <trkpt lat="44.50494" lon="6.8389">
        <ele>2349.6</ele>
        <time>2015-04-06T13:20:29Z</time>
      </trkpt>
      <trkpt lat="44.50495" lon="6.83884">
        <ele>2349.6</ele>
        <time>2015-04-06T13:20:30Z</time>
      </trkpt>
      <trkpt lat="44.50495" lon="6.83843">
        <ele>2347.68</ele>
        <time>2015-04-06T13:20:42Z</time>
      </trkpt>
      <trkpt lat="44.50493" lon="6.83844">
        <ele>2347.68</ele>
        <time>2015-04-06T13:20:57Z</time>
      </trkpt>
      <trkpt lat="44.50491" lon="6.83839">
        <ele>2347.68</ele>
        <time>2015-04-06T13:21:16Z</time>
      </trkpt>
      <trkpt lat="44.50489" lon="6.83842">
        <ele>2347.68</ele>
        <time>2015-04-06T13:21:44Z</time>
      </trkpt>
      <trkpt lat="44.50486" lon="6.83823">
        <ele>2347.2</ele>
        <time>2015-04-06T13:21:53Z</time>
      </trkpt>
      <trkpt lat="44.50484" lon="6.83812">
        <ele>2345.75</ele>
        <time>2015-04-06T13:21:55Z</time>
      </trkpt>
      <trkpt lat="44.50481" lon="6.83794">
        <ele>2344.31</ele>
        <time>2015-04-06T13:21:57Z</time>
      </trkpt>
      <trkpt lat="44.50475" lon="6.83774">
        <ele>2341.91</ele>
        <time>2015-04-06T13:22:00Z</time>
      </trkpt>
      <trkpt lat="44.50472" lon="6.83745">
        <ele>2339.99</ele>
        <time>2015-04-06T13:22:04Z</time>
      </trkpt>
      <trkpt lat="44.5047" lon="6.83705">
        <ele>2336.62</ele>
        <time>2015-04-06T13:22:09Z</time>
      </trkpt>
      <trkpt lat="44.50467" lon="6.8369">
        <ele>2334.7</ele>
        <time>2015-04-06T13:22:11Z</time>
      </trkpt>
      <trkpt lat="44.50467" lon="6.83677">
        <ele>2332.78</ele>
        <time>2015-04-06T13:22:13Z</time>
      </trkpt>
      <trkpt lat="44.50463" lon="6.83649">
        <ele>2328.93</ele>
        <time>2015-04-06T13:22:18Z</time>
      </trkpt>
      <trkpt lat="44.5046" lon="6.83635">
        <ele>2325.09</ele>
        <time>2015-04-06T13:22:21Z</time>
      </trkpt>
      <trkpt lat="44.50454" lon="6.83612">
        <ele>2321.24</ele>
        <time>2015-04-06T13:22:25Z</time>
      </trkpt>
      <trkpt lat="44.50449" lon="6.83593">
        <ele>2318.36</ele>
        <time>2015-04-06T13:22:28Z</time>
      </trkpt>
      <trkpt lat="44.50446" lon="6.8359">
        <ele>2318.36</ele>
        <time>2015-04-06T13:22:29Z</time>
      </trkpt>
      <trkpt lat="44.50404" lon="6.8356">
        <ele>2314.51</ele>
        <time>2015-04-06T13:22:41Z</time>
      </trkpt>
      <trkpt lat="44.50395" lon="6.83557">
        <ele>2313.07</ele>
        <time>2015-04-06T13:22:47Z</time>
      </trkpt>
      <trkpt lat="44.50395" lon="6.83543">
        <ele>2309.22</ele>
        <time>2015-04-06T13:22:52Z</time>
      </trkpt>
      <trkpt lat="44.50398" lon="6.83529">
        <ele>2304.42</ele>
        <time>2015-04-06T13:22:55Z</time>
      </trkpt>
      <trkpt lat="44.50404" lon="6.83522">
        <ele>2302.49</ele>
        <time>2015-04-06T13:22:57Z</time>
      </trkpt>
      <trkpt lat="44.50396" lon="6.83504">
        <ele>2298.17</ele>
        <time>2015-04-06T13:23:01Z</time>
      </trkpt>
      <trkpt lat="44.50388" lon="6.8348">
        <ele>2293.36</ele>
        <time>2015-04-06T13:23:05Z</time>
      </trkpt>
      <trkpt lat="44.50384" lon="6.83467">
        <ele>2291.44</ele>
        <time>2015-04-06T13:23:07Z</time>
      </trkpt>
      <trkpt lat="44.50366" lon="6.8344">
        <ele>2287.59</ele>
        <time>2015-04-06T13:23:12Z</time>
      </trkpt>
      <trkpt lat="44.50364" lon="6.83426">
        <ele>2286.15</ele>
        <time>2015-04-06T13:23:15Z</time>
      </trkpt>
      <trkpt lat="44.50363" lon="6.83409">
        <ele>2283.75</ele>
        <time>2015-04-06T13:23:17Z</time>
      </trkpt>
      <trkpt lat="44.50365" lon="6.83387">
        <ele>2280.38</ele>
        <time>2015-04-06T13:23:19Z</time>
      </trkpt>
      <trkpt lat="44.50369" lon="6.83371">
        <ele>2279.42</ele>
        <time>2015-04-06T13:23:21Z</time>
      </trkpt>
      <trkpt lat="44.50379" lon="6.83356">
        <ele>2278.46</ele>
        <time>2015-04-06T13:23:24Z</time>
      </trkpt>
      <trkpt lat="44.504" lon="6.8331">
        <ele>2275.58</ele>
        <time>2015-04-06T13:23:36Z</time>
      </trkpt>
      <trkpt lat="44.50404" lon="6.83301">
        <ele>2275.1</ele>
        <time>2015-04-06T13:23:38Z</time>
      </trkpt>
      <trkpt lat="44.50419" lon="6.83272">
        <ele>2271.25</ele>
        <time>2015-04-06T13:23:43Z</time>
      </trkpt>
      <trkpt lat="44.50426" lon="6.8326">
        <ele>2270.29</ele>
        <time>2015-04-06T13:23:45Z</time>
      </trkpt>
      <trkpt lat="44.50439" lon="6.83241">
        <ele>2268.37</ele>
        <time>2015-04-06T13:23:48Z</time>
      </trkpt>
      <trkpt lat="44.50456" lon="6.83205">
        <ele>2265.96</ele>
        <time>2015-04-06T13:23:57Z</time>
      </trkpt>
      <trkpt lat="44.50464" lon="6.83173">
        <ele>2264.04</ele>
        <time>2015-04-06T13:24:06Z</time>
      </trkpt>
      <trkpt lat="44.50467" lon="6.83159">
        <ele>2262.12</ele>
        <time>2015-04-06T13:24:10Z</time>
      </trkpt>
      <trkpt lat="44.5047" lon="6.83143">
        <ele>2258.75</ele>
        <time>2015-04-06T13:24:13Z</time>
      </trkpt>
      <trkpt lat="44.50469" lon="6.83138">
        <ele>2257.79</ele>
        <time>2015-04-06T13:24:14Z</time>
      </trkpt>
      <trkpt lat="44.50464" lon="6.83124">
        <ele>2255.87</ele>
        <time>2015-04-06T13:24:17Z</time>
      </trkpt>
      <trkpt lat="44.50462" lon="6.83116">
        <ele>2254.91</ele>
        <time>2015-04-06T13:24:18Z</time>
      </trkpt>
      <trkpt lat="44.50461" lon="6.83107">
        <ele>2253.95</ele>
        <time>2015-04-06T13:24:19Z</time>
      </trkpt>
      <trkpt lat="44.50465" lon="6.83074">
        <ele>2252.51</ele>
        <time>2015-04-06T13:24:23Z</time>
      </trkpt>
      <trkpt lat="44.50467" lon="6.83055">
        <ele>2251.06</ele>
        <time>2015-04-06T13:24:31Z</time>
      </trkpt>
      <trkpt lat="44.50467" lon="6.83054">
        <ele>2251.06</ele>
        <time>2015-04-06T13:24:38Z</time>
      </trkpt>
      <trkpt lat="44.50477" lon="6.83031">
        <ele>2249.14</ele>
        <time>2015-04-06T13:24:46Z</time>
      </trkpt>
      <trkpt lat="44.50493" lon="6.83014">
        <ele>2246.26</ele>
        <time>2015-04-06T13:24:50Z</time>
      </trkpt>
      <trkpt lat="44.50508" lon="6.83006">
        <ele>2242.41</ele>
        <time>2015-04-06T13:24:53Z</time>
      </trkpt>
      <trkpt lat="44.50522" lon="6.82997">
        <ele>2238.09</ele>
        <time>2015-04-06T13:24:56Z</time>
      </trkpt>
      <trkpt lat="44.50531" lon="6.82992">
        <ele>2234.72</ele>
        <time>2015-04-06T13:24:58Z</time>
      </trkpt>
      <trkpt lat="44.50545" lon="6.82985">
        <ele>2230.88</ele>
        <time>2015-04-06T13:25:01Z</time>
      </trkpt>
      <trkpt lat="44.50558" lon="6.82975">
        <ele>2226.07</ele>
        <time>2015-04-06T13:25:04Z</time>
      </trkpt>
      <trkpt lat="44.5057" lon="6.82962">
        <ele>2222.71</ele>
        <time>2015-04-06T13:25:07Z</time>
      </trkpt>
      <trkpt lat="44.50575" lon="6.82959">
        <ele>2220.78</ele>
        <time>2015-04-06T13:25:08Z</time>
      </trkpt>
      <trkpt lat="44.50593" lon="6.8295">
        <ele>2216.94</ele>
        <time>2015-04-06T13:25:11Z</time>
      </trkpt>
      <trkpt lat="44.506" lon="6.82944">
        <ele>2215.01</ele>
        <time>2015-04-06T13:25:12Z</time>
      </trkpt>
      <trkpt lat="44.50607" lon="6.82937">
        <ele>2213.57</ele>
        <time>2015-04-06T13:25:13Z</time>
      </trkpt>
      <trkpt lat="44.50621" lon="6.82921">
        <ele>2209.73</ele>
        <time>2015-04-06T13:25:15Z</time>
      </trkpt>
      <trkpt lat="44.50634" lon="6.82906">
        <ele>2206.36</ele>
        <time>2015-04-06T13:25:17Z</time>
      </trkpt>
      <trkpt lat="44.50658" lon="6.82878">
        <ele>2203.48</ele>
        <time>2015-04-06T13:25:24Z</time>
      </trkpt>
      <trkpt lat="44.50681" lon="6.82853">
        <ele>2203</ele>
        <time>2015-04-06T13:25:35Z</time>
      </trkpt>
      <trkpt lat="44.50698" lon="6.82831">
        <ele>2200.59</ele>
        <time>2015-04-06T13:25:42Z</time>
      </trkpt>
      <trkpt lat="44.50701" lon="6.82829">
        <ele>2199.63</ele>
        <time>2015-04-06T13:25:43Z</time>
      </trkpt>
      <trkpt lat="44.50715" lon="6.82834">
        <ele>2196.27</ele>
        <time>2015-04-06T13:25:46Z</time>
      </trkpt>
      <trkpt lat="44.5072" lon="6.8283">
        <ele>2195.31</ele>
        <time>2015-04-06T13:25:47Z</time>
      </trkpt>
      <trkpt lat="44.50724" lon="6.82825">
        <ele>2194.83</ele>
        <time>2015-04-06T13:25:48Z</time>
      </trkpt>
      <trkpt lat="44.50728" lon="6.8282">
        <ele>2193.87</ele>
        <time>2015-04-06T13:25:49Z</time>
      </trkpt>
      <trkpt lat="44.50731" lon="6.82814">
        <ele>2193.39</ele>
        <time>2015-04-06T13:25:50Z</time>
      </trkpt>
      <trkpt lat="44.50734" lon="6.82809">
        <ele>2192.42</ele>
        <time>2015-04-06T13:25:51Z</time>
      </trkpt>
      <trkpt lat="44.50738" lon="6.82805">
        <ele>2191.94</ele>
        <time>2015-04-06T13:25:52Z</time>
      </trkpt>
      <trkpt lat="44.50761" lon="6.8277">
        <ele>2188.58</ele>
        <time>2015-04-06T13:25:58Z</time>
      </trkpt>
      <trkpt lat="44.50769" lon="6.82759">
        <ele>2187.62</ele>
        <time>2015-04-06T13:26:00Z</time>
      </trkpt>
      <trkpt lat="44.50773" lon="6.82754">
        <ele>2186.18</ele>
        <time>2015-04-06T13:26:01Z</time>
      </trkpt>
      <trkpt lat="44.50778" lon="6.8275">
        <ele>2185.21</ele>
        <time>2015-04-06T13:26:02Z</time>
      </trkpt>
      <trkpt lat="44.50783" lon="6.82745">
        <ele>2184.73</ele>
        <time>2015-04-06T13:26:03Z</time>
      </trkpt>
      <trkpt lat="44.50792" lon="6.82737">
        <ele>2183.77</ele>
        <time>2015-04-06T13:26:05Z</time>
      </trkpt>
      <trkpt lat="44.50805" lon="6.82724">
        <ele>2181.85</ele>
        <time>2015-04-06T13:26:08Z</time>
      </trkpt>
      <trkpt lat="44.50813" lon="6.82715">
        <ele>2181.37</ele>
        <time>2015-04-06T13:26:10Z</time>
      </trkpt>
      <trkpt lat="44.50824" lon="6.82701">
        <ele>2178.97</ele>
        <time>2015-04-06T13:26:13Z</time>
      </trkpt>
      <trkpt lat="44.50844" lon="6.8268">
        <ele>2177.04</ele>
        <time>2015-04-06T13:26:20Z</time>
      </trkpt>
      <trkpt lat="44.50851" lon="6.82671">
        <ele>2175.12</ele>
        <time>2015-04-06T13:26:22Z</time>
      </trkpt>
      <trkpt lat="44.50857" lon="6.82662">
        <ele>2174.64</ele>
        <time>2015-04-06T13:26:24Z</time>
      </trkpt>
      <trkpt lat="44.50864" lon="6.82662">
        <ele>2171.27</ele>
        <time>2015-04-06T13:26:26Z</time>
      </trkpt>
      <trkpt lat="44.5088" lon="6.82653">
        <ele>2167.43</ele>
        <time>2015-04-06T13:26:30Z</time>
      </trkpt>
      <trkpt lat="44.50891" lon="6.8264">
        <ele>2164.55</ele>
        <time>2015-04-06T13:26:34Z</time>
      </trkpt>
      <trkpt lat="44.509" lon="6.82636">
        <ele>2162.14</ele>
        <time>2015-04-06T13:26:36Z</time>
      </trkpt>
      <trkpt lat="44.50903" lon="6.8263">
        <ele>2161.18</ele>
        <time>2015-04-06T13:26:37Z</time>
      </trkpt>
      <trkpt lat="44.50905" lon="6.82622">
        <ele>2159.26</ele>
        <time>2015-04-06T13:26:38Z</time>
      </trkpt>
      <trkpt lat="44.50906" lon="6.82616">
        <ele>2158.3</ele>
        <time>2015-04-06T13:26:39Z</time>
      </trkpt>
      <trkpt lat="44.50908" lon="6.82611">
        <ele>2158.3</ele>
        <time>2015-04-06T13:26:40Z</time>
      </trkpt>
      <trkpt lat="44.5091" lon="6.82607">
        <ele>2158.78</ele>
        <time>2015-04-06T13:26:41Z</time>
      </trkpt>
      <trkpt lat="44.50912" lon="6.82603">
        <ele>2157.82</ele>
        <time>2015-04-06T13:26:42Z</time>
      </trkpt>
      <trkpt lat="44.50914" lon="6.82594">
        <ele>2157.34</ele>
        <time>2015-04-06T13:26:44Z</time>
      </trkpt>
      <trkpt lat="44.50915" lon="6.82582">
        <ele>2155.89</ele>
        <time>2015-04-06T13:26:48Z</time>
      </trkpt>
      <trkpt lat="44.50915" lon="6.8258">
        <ele>2156.37</ele>
        <time>2015-04-06T13:27:02Z</time>
      </trkpt>
      <trkpt lat="44.50919" lon="6.82581">
        <ele>2155.89</ele>
        <time>2015-04-06T13:27:28Z</time>
      </trkpt>
      <trkpt lat="44.50925" lon="6.82584">
        <ele>2155.89</ele>
        <time>2015-04-06T13:27:54Z</time>
      </trkpt>
      <trkpt lat="44.50926" lon="6.82581">
        <ele>2155.89</ele>
        <time>2015-04-06T13:28:12Z</time>
      </trkpt>
      <trkpt lat="44.50927" lon="6.8258">
        <ele>2155.89</ele>
        <time>2015-04-06T13:28:13Z</time>
      </trkpt>
      <trkpt lat="44.50929" lon="6.82573">
        <ele>2155.89</ele>
        <time>2015-04-06T13:28:15Z</time>
      </trkpt>
      <trkpt lat="44.50935" lon="6.82566">
        <ele>2153.97</ele>
        <time>2015-04-06T13:28:17Z</time>
      </trkpt>
      <trkpt lat="44.50937" lon="6.82562">
        <ele>2152.53</ele>
        <time>2015-04-06T13:28:18Z</time>
      </trkpt>
      <trkpt lat="44.50947" lon="6.82556">
        <ele>2149.65</ele>
        <time>2015-04-06T13:28:20Z</time>
      </trkpt>
      <trkpt lat="44.5095" lon="6.82551">
        <ele>2148.2</ele>
        <time>2015-04-06T13:28:21Z</time>
      </trkpt>
      <trkpt lat="44.50952" lon="6.82545">
        <ele>2147.24</ele>
        <time>2015-04-06T13:28:22Z</time>
      </trkpt>
      <trkpt lat="44.50954" lon="6.8254">
        <ele>2146.28</ele>
        <time>2015-04-06T13:28:23Z</time>
      </trkpt>
      <trkpt lat="44.50954" lon="6.82533">
        <ele>2145.32</ele>
        <time>2015-04-06T13:28:24Z</time>
      </trkpt>
      <trkpt lat="44.50954" lon="6.82527">
        <ele>2144.84</ele>
        <time>2015-04-06T13:28:25Z</time>
      </trkpt>
      <trkpt lat="44.50955" lon="6.82522">
        <ele>2144.36</ele>
        <time>2015-04-06T13:28:26Z</time>
      </trkpt>
      <trkpt lat="44.50958" lon="6.82519">
        <ele>2142.92</ele>
        <time>2015-04-06T13:28:27Z</time>
      </trkpt>
      <trkpt lat="44.50962" lon="6.82516">
        <ele>2142.44</ele>
        <time>2015-04-06T13:28:28Z</time>
      </trkpt>
      <trkpt lat="44.50966" lon="6.82516">
        <ele>2140.99</ele>
        <time>2015-04-06T13:28:29Z</time>
      </trkpt>
      <trkpt lat="44.50971" lon="6.82515">
        <ele>2140.51</ele>
        <time>2015-04-06T13:28:30Z</time>
      </trkpt>
      <trkpt lat="44.50976" lon="6.82513">
        <ele>2139.07</ele>
        <time>2015-04-06T13:28:31Z</time>
      </trkpt>
      <trkpt lat="44.50981" lon="6.82512">
        <ele>2137.63</ele>
        <time>2015-04-06T13:28:32Z</time>
      </trkpt>
      <trkpt lat="44.50986" lon="6.8251">
        <ele>2136.19</ele>
        <time>2015-04-06T13:28:33Z</time>
      </trkpt>
      <trkpt lat="44.50991" lon="6.82508">
        <ele>2134.74</ele>
        <time>2015-04-06T13:28:34Z</time>
      </trkpt>
      <trkpt lat="44.50995" lon="6.82506">
        <ele>2133.78</ele>
        <time>2015-04-06T13:28:35Z</time>
      </trkpt>
      <trkpt lat="44.50999" lon="6.82504">
        <ele>2132.82</ele>
        <time>2015-04-06T13:28:36Z</time>
      </trkpt>
      <trkpt lat="44.51003" lon="6.82501">
        <ele>2131.86</ele>
        <time>2015-04-06T13:28:37Z</time>
      </trkpt>
      <trkpt lat="44.51008" lon="6.82497">
        <ele>2130.42</ele>
        <time>2015-04-06T13:28:38Z</time>
      </trkpt>
      <trkpt lat="44.51012" lon="6.82493">
        <ele>2129.46</ele>
        <time>2015-04-06T13:28:39Z</time>
      </trkpt>
      <trkpt lat="44.51015" lon="6.82488">
        <ele>2128.5</ele>
        <time>2015-04-06T13:28:40Z</time>
      </trkpt>
      <trkpt lat="44.51016" lon="6.82482">
        <ele>2128.02</ele>
        <time>2015-04-06T13:28:41Z</time>
      </trkpt>
      <trkpt lat="44.51019" lon="6.82476">
        <ele>2128.02</ele>
        <time>2015-04-06T13:28:42Z</time>
      </trkpt>
      <trkpt lat="44.51034" lon="6.8246">
        <ele>2124.17</ele>
        <time>2015-04-06T13:28:46Z</time>
      </trkpt>
      <trkpt lat="44.51048" lon="6.82451">
        <ele>2120.81</ele>
        <time>2015-04-06T13:28:49Z</time>
      </trkpt>
      <trkpt lat="44.51056" lon="6.82443">
        <ele>2120.32</ele>
        <time>2015-04-06T13:28:51Z</time>
      </trkpt>
      <trkpt lat="44.51067" lon="6.8243">
        <ele>2116.96</ele>
        <time>2015-04-06T13:28:54Z</time>
      </trkpt>
      <trkpt lat="44.51086" lon="6.82413">
        <ele>2113.6</ele>
        <time>2015-04-06T13:28:58Z</time>
      </trkpt>
      <trkpt lat="44.51092" lon="6.82389">
        <ele>2112.63</ele>
        <time>2015-04-06T13:29:02Z</time>
      </trkpt>
      <trkpt lat="44.51099" lon="6.82365">
        <ele>2109.75</ele>
        <time>2015-04-06T13:29:12Z</time>
      </trkpt>
      <trkpt lat="44.5111" lon="6.82364">
        <ele>2108.31</ele>
        <time>2015-04-06T13:29:15Z</time>
      </trkpt>
      <trkpt lat="44.5113" lon="6.8234">
        <ele>2106.39</ele>
        <time>2015-04-06T13:29:22Z</time>
      </trkpt>
      <trkpt lat="44.51136" lon="6.8233">
        <ele>2104.94</ele>
        <time>2015-04-06T13:29:24Z</time>
      </trkpt>
      <trkpt lat="44.51139" lon="6.82325">
        <ele>2104.94</ele>
        <time>2015-04-06T13:29:25Z</time>
      </trkpt>
      <trkpt lat="44.51159" lon="6.82293">
        <ele>2103.5</ele>
        <time>2015-04-06T13:29:34Z</time>
      </trkpt>
      <trkpt lat="44.51161" lon="6.82292">
        <ele>2103.5</ele>
        <time>2015-04-06T13:29:35Z</time>
      </trkpt>
      <trkpt lat="44.51162" lon="6.8229">
        <ele>2103.02</ele>
        <time>2015-04-06T13:29:36Z</time>
      </trkpt>
      <trkpt lat="44.51164" lon="6.82288">
        <ele>2103.02</ele>
        <time>2015-04-06T13:29:37Z</time>
      </trkpt>
      <trkpt lat="44.51166" lon="6.82287">
        <ele>2103.02</ele>
        <time>2015-04-06T13:29:38Z</time>
      </trkpt>
      <trkpt lat="44.51169" lon="6.82284">
        <ele>2103.02</ele>
        <time>2015-04-06T13:29:39Z</time>
      </trkpt>
      <trkpt lat="44.51172" lon="6.82281">
        <ele>2102.06</ele>
        <time>2015-04-06T13:29:40Z</time>
      </trkpt>
      <trkpt lat="44.51189" lon="6.82262">
        <ele>2100.14</ele>
        <time>2015-04-06T13:29:44Z</time>
      </trkpt>
      <trkpt lat="44.51225" lon="6.82216">
        <ele>2097.25</ele>
        <time>2015-04-06T13:29:55Z</time>
      </trkpt>
      <trkpt lat="44.51247" lon="6.82185">
        <ele>2094.37</ele>
        <time>2015-04-06T13:30:03Z</time>
      </trkpt>
      <trkpt lat="44.51266" lon="6.82164">
        <ele>2091.49</ele>
        <time>2015-04-06T13:30:07Z</time>
      </trkpt>
      <trkpt lat="44.51271" lon="6.82159">
        <ele>2091</ele>
        <time>2015-04-06T13:30:08Z</time>
      </trkpt>
      <trkpt lat="44.51276" lon="6.82153">
        <ele>2090.04</ele>
        <time>2015-04-06T13:30:09Z</time>
      </trkpt>
      <trkpt lat="44.5128" lon="6.82146">
        <ele>2089.08</ele>
        <time>2015-04-06T13:30:10Z</time>
      </trkpt>
      <trkpt lat="44.51284" lon="6.82139">
        <ele>2088.6</ele>
        <time>2015-04-06T13:30:11Z</time>
      </trkpt>
      <trkpt lat="44.5129" lon="6.82125">
        <ele>2088.12</ele>
        <time>2015-04-06T13:30:13Z</time>
      </trkpt>
      <trkpt lat="44.513" lon="6.82091">
        <ele>2086.68</ele>
        <time>2015-04-06T13:30:18Z</time>
      </trkpt>
      <trkpt lat="44.51303" lon="6.82085">
        <ele>2086.68</ele>
        <time>2015-04-06T13:30:19Z</time>
      </trkpt>
      <trkpt lat="44.51306" lon="6.8208">
        <ele>2085.72</ele>
        <time>2015-04-06T13:30:20Z</time>
      </trkpt>
      <trkpt lat="44.5131" lon="6.82075">
        <ele>2085.72</ele>
        <time>2015-04-06T13:30:21Z</time>
      </trkpt>
      <trkpt lat="44.51314" lon="6.8207">
        <ele>2085.24</ele>
        <time>2015-04-06T13:30:22Z</time>
      </trkpt>
      <trkpt lat="44.51317" lon="6.82064">
        <ele>2084.76</ele>
        <time>2015-04-06T13:30:23Z</time>
      </trkpt>
      <trkpt lat="44.51319" lon="6.82058">
        <ele>2084.76</ele>
        <time>2015-04-06T13:30:24Z</time>
      </trkpt>
      <trkpt lat="44.51323" lon="6.82047">
        <ele>2084.28</ele>
        <time>2015-04-06T13:30:26Z</time>
      </trkpt>
      <trkpt lat="44.51326" lon="6.82042">
        <ele>2084.28</ele>
        <time>2015-04-06T13:30:27Z</time>
      </trkpt>
      <trkpt lat="44.51328" lon="6.82038">
        <ele>2084.28</ele>
        <time>2015-04-06T13:30:28Z</time>
      </trkpt>
      <trkpt lat="44.51339" lon="6.82019">
        <ele>2082.83</ele>
        <time>2015-04-06T13:30:32Z</time>
      </trkpt>
      <trkpt lat="44.51343" lon="6.82008">
        <ele>2082.35</ele>
        <time>2015-04-06T13:30:34Z</time>
      </trkpt>
      <trkpt lat="44.5136" lon="6.81986">
        <ele>2079.95</ele>
        <time>2015-04-06T13:30:41Z</time>
      </trkpt>
      <trkpt lat="44.51388" lon="6.8196">
        <ele>2078.51</ele>
        <time>2015-04-06T13:30:51Z</time>
      </trkpt>
      <trkpt lat="44.5139" lon="6.81958">
        <ele>2078.51</ele>
        <time>2015-04-06T13:30:52Z</time>
      </trkpt>
      <trkpt lat="44.51391" lon="6.81956">
        <ele>2078.51</ele>
        <time>2015-04-06T13:30:53Z</time>
      </trkpt>
      <trkpt lat="44.51393" lon="6.81954">
        <ele>2078.51</ele>
        <time>2015-04-06T13:30:54Z</time>
      </trkpt>
      <trkpt lat="44.51395" lon="6.81952">
        <ele>2078.51</ele>
        <time>2015-04-06T13:30:55Z</time>
      </trkpt>
      <trkpt lat="44.51397" lon="6.8195">
        <ele>2078.51</ele>
        <time>2015-04-06T13:30:56Z</time>
      </trkpt>
      <trkpt lat="44.51399" lon="6.81947">
        <ele>2078.03</ele>
        <time>2015-04-06T13:30:57Z</time>
      </trkpt>
      <trkpt lat="44.514" lon="6.81944">
        <ele>2078.03</ele>
        <time>2015-04-06T13:30:58Z</time>
      </trkpt>
      <trkpt lat="44.51402" lon="6.81941">
        <ele>2078.03</ele>
        <time>2015-04-06T13:30:59Z</time>
      </trkpt>
      <trkpt lat="44.51403" lon="6.81939">
        <ele>2078.03</ele>
        <time>2015-04-06T13:31:00Z</time>
      </trkpt>
      <trkpt lat="44.51404" lon="6.81937">
        <ele>2078.03</ele>
        <time>2015-04-06T13:31:01Z</time>
      </trkpt>
      <trkpt lat="44.51406" lon="6.81935">
        <ele>2078.03</ele>
        <time>2015-04-06T13:31:02Z</time>
      </trkpt>
      <trkpt lat="44.51407" lon="6.81934">
        <ele>2078.03</ele>
        <time>2015-04-06T13:31:03Z</time>
      </trkpt>
      <trkpt lat="44.51409" lon="6.81932">
        <ele>2078.03</ele>
        <time>2015-04-06T13:31:04Z</time>
      </trkpt>
      <trkpt lat="44.51411" lon="6.81931">
        <ele>2078.03</ele>
        <time>2015-04-06T13:31:05Z</time>
      </trkpt>
      <trkpt lat="44.51412" lon="6.81929">
        <ele>2078.03</ele>
        <time>2015-04-06T13:31:06Z</time>
      </trkpt>
      <trkpt lat="44.51414" lon="6.81928">
        <ele>2078.03</ele>
        <time>2015-04-06T13:31:07Z</time>
      </trkpt>
      <trkpt lat="44.51416" lon="6.81926">
        <ele>2078.03</ele>
        <time>2015-04-06T13:31:08Z</time>
      </trkpt>
      <trkpt lat="44.51418" lon="6.81925">
        <ele>2078.03</ele>
        <time>2015-04-06T13:31:09Z</time>
      </trkpt>
      <trkpt lat="44.51419" lon="6.81924">
        <ele>2078.03</ele>
        <time>2015-04-06T13:31:10Z</time>
      </trkpt>
      <trkpt lat="44.51421" lon="6.81922">
        <ele>2078.03</ele>
        <time>2015-04-06T13:31:11Z</time>
      </trkpt>
      <trkpt lat="44.51423" lon="6.81921">
        <ele>2078.03</ele>
        <time>2015-04-06T13:31:12Z</time>
      </trkpt>
      <trkpt lat="44.51424" lon="6.8192">
        <ele>2078.03</ele>
        <time>2015-04-06T13:31:13Z</time>
      </trkpt>
      <trkpt lat="44.51426" lon="6.81919">
        <ele>2078.03</ele>
        <time>2015-04-06T13:31:14Z</time>
      </trkpt>
      <trkpt lat="44.51434" lon="6.81914">
        <ele>2078.03</ele>
        <time>2015-04-06T13:31:19Z</time>
      </trkpt>
      <trkpt lat="44.51437" lon="6.81913">
        <ele>2078.03</ele>
        <time>2015-04-06T13:31:20Z</time>
      </trkpt>
      <trkpt lat="44.51442" lon="6.8191">
        <ele>2077.55</ele>
        <time>2015-04-06T13:31:22Z</time>
      </trkpt>
      <trkpt lat="44.51445" lon="6.81907">
        <ele>2077.55</ele>
        <time>2015-04-06T13:31:23Z</time>
      </trkpt>
      <trkpt lat="44.51449" lon="6.81905">
        <ele>2077.55</ele>
        <time>2015-04-06T13:31:24Z</time>
      </trkpt>
      <trkpt lat="44.51452" lon="6.81903">
        <ele>2077.55</ele>
        <time>2015-04-06T13:31:25Z</time>
      </trkpt>
      <trkpt lat="44.51456" lon="6.81901">
        <ele>2077.07</ele>
        <time>2015-04-06T13:31:26Z</time>
      </trkpt>
      <trkpt lat="44.51459" lon="6.81898">
        <ele>2077.07</ele>
        <time>2015-04-06T13:31:27Z</time>
      </trkpt>
      <trkpt lat="44.51463" lon="6.81896">
        <ele>2076.59</ele>
        <time>2015-04-06T13:31:28Z</time>
      </trkpt>
      <trkpt lat="44.51508" lon="6.81869">
        <ele>2074.66</ele>
        <time>2015-04-06T13:31:41Z</time>
      </trkpt>
      <trkpt lat="44.51517" lon="6.81862">
        <ele>2073.7</ele>
        <time>2015-04-06T13:31:44Z</time>
      </trkpt>
      <trkpt lat="44.51518" lon="6.8186">
        <ele>2073.7</ele>
        <time>2015-04-06T13:31:45Z</time>
      </trkpt>
      <trkpt lat="44.51519" lon="6.81858">
        <ele>2073.22</ele>
        <time>2015-04-06T13:31:46Z</time>
      </trkpt>
      <trkpt lat="44.51525" lon="6.8186">
        <ele>2073.22</ele>
        <time>2015-04-06T13:32:01Z</time>
      </trkpt>
      <trkpt lat="44.5153" lon="6.81853">
        <ele>2073.22</ele>
        <time>2015-04-06T13:32:25Z</time>
      </trkpt>
      <trkpt lat="44.51557" lon="6.81829">
        <ele>2071.3</ele>
        <time>2015-04-06T13:32:39Z</time>
      </trkpt>
      <trkpt lat="44.51568" lon="6.81821">
        <ele>2070.34</ele>
        <time>2015-04-06T13:32:42Z</time>
      </trkpt>
      <trkpt lat="44.51595" lon="6.81803">
        <ele>2067.93</ele>
        <time>2015-04-06T13:32:48Z</time>
      </trkpt>
      <trkpt lat="44.51615" lon="6.81788">
        <ele>2066.01</ele>
        <time>2015-04-06T13:32:53Z</time>
      </trkpt>
      <trkpt lat="44.51619" lon="6.81784">
        <ele>2066.01</ele>
        <time>2015-04-06T13:32:54Z</time>
      </trkpt>
      <trkpt lat="44.51622" lon="6.81779">
        <ele>2066.01</ele>
        <time>2015-04-06T13:32:55Z</time>
      </trkpt>
      <trkpt lat="44.51625" lon="6.81775">
        <ele>2065.05</ele>
        <time>2015-04-06T13:32:56Z</time>
      </trkpt>
      <trkpt lat="44.51628" lon="6.81771">
        <ele>2065.05</ele>
        <time>2015-04-06T13:32:57Z</time>
      </trkpt>
      <trkpt lat="44.51652" lon="6.81741">
        <ele>2063.13</ele>
        <time>2015-04-06T13:33:05Z</time>
      </trkpt>
      <trkpt lat="44.51656" lon="6.81736">
        <ele>2062.17</ele>
        <time>2015-04-06T13:33:06Z</time>
      </trkpt>
      <trkpt lat="44.5166" lon="6.81731">
        <ele>2061.68</ele>
        <time>2015-04-06T13:33:07Z</time>
      </trkpt>
      <trkpt lat="44.51665" lon="6.81725">
        <ele>2061.68</ele>
        <time>2015-04-06T13:33:08Z</time>
      </trkpt>
      <trkpt lat="44.51671" lon="6.8172">
        <ele>2060.24</ele>
        <time>2015-04-06T13:33:09Z</time>
      </trkpt>
      <trkpt lat="44.51676" lon="6.81716">
        <ele>2059.76</ele>
        <time>2015-04-06T13:33:10Z</time>
      </trkpt>
      <trkpt lat="44.51681" lon="6.8171">
        <ele>2058.32</ele>
        <time>2015-04-06T13:33:11Z</time>
      </trkpt>
      <trkpt lat="44.51686" lon="6.81705">
        <ele>2057.36</ele>
        <time>2015-04-06T13:33:12Z</time>
      </trkpt>
      <trkpt lat="44.51714" lon="6.81678">
        <ele>2054.47</ele>
        <time>2015-04-06T13:33:18Z</time>
      </trkpt>
      <trkpt lat="44.51718" lon="6.81674">
        <ele>2054.47</ele>
        <time>2015-04-06T13:33:19Z</time>
      </trkpt>
      <trkpt lat="44.51721" lon="6.8167">
        <ele>2053.99</ele>
        <time>2015-04-06T13:33:20Z</time>
      </trkpt>
      <trkpt lat="44.51723" lon="6.81667">
        <ele>2053.99</ele>
        <time>2015-04-06T13:33:21Z</time>
      </trkpt>
      <trkpt lat="44.51725" lon="6.81663">
        <ele>2053.99</ele>
        <time>2015-04-06T13:33:22Z</time>
      </trkpt>
      <trkpt lat="44.51728" lon="6.81659">
        <ele>2053.03</ele>
        <time>2015-04-06T13:33:23Z</time>
      </trkpt>
      <trkpt lat="44.5173" lon="6.81654">
        <ele>2052.55</ele>
        <time>2015-04-06T13:33:24Z</time>
      </trkpt>
      <trkpt lat="44.51734" lon="6.8165">
        <ele>2051.59</ele>
        <time>2015-04-06T13:33:25Z</time>
      </trkpt>
      <trkpt lat="44.51738" lon="6.81645">
        <ele>2051.11</ele>
        <time>2015-04-06T13:33:26Z</time>
      </trkpt>
      <trkpt lat="44.51741" lon="6.81639">
        <ele>2051.11</ele>
        <time>2015-04-06T13:33:27Z</time>
      </trkpt>
      <trkpt lat="44.51745" lon="6.81634">
        <ele>2050.15</ele>
        <time>2015-04-06T13:33:28Z</time>
      </trkpt>
      <trkpt lat="44.51748" lon="6.81627">
        <ele>2050.15</ele>
        <time>2015-04-06T13:33:29Z</time>
      </trkpt>
      <trkpt lat="44.51751" lon="6.81621">
        <ele>2048.71</ele>
        <time>2015-04-06T13:33:30Z</time>
      </trkpt>
      <trkpt lat="44.51753" lon="6.81615">
        <ele>2048.71</ele>
        <time>2015-04-06T13:33:31Z</time>
      </trkpt>
      <trkpt lat="44.51754" lon="6.81608">
        <ele>2048.71</ele>
        <time>2015-04-06T13:33:32Z</time>
      </trkpt>
      <trkpt lat="44.51756" lon="6.81602">
        <ele>2048.71</ele>
        <time>2015-04-06T13:33:33Z</time>
      </trkpt>
      <trkpt lat="44.51757" lon="6.81595">
        <ele>2047.26</ele>
        <time>2015-04-06T13:33:34Z</time>
      </trkpt>
      <trkpt lat="44.51758" lon="6.81588">
        <ele>2047.26</ele>
        <time>2015-04-06T13:33:35Z</time>
      </trkpt>
      <trkpt lat="44.51761" lon="6.81575">
        <ele>2045.34</ele>
        <time>2015-04-06T13:33:37Z</time>
      </trkpt>
      <trkpt lat="44.51763" lon="6.81569">
        <ele>2045.34</ele>
        <time>2015-04-06T13:33:38Z</time>
      </trkpt>
      <trkpt lat="44.51768" lon="6.81552">
        <ele>2044.86</ele>
        <time>2015-04-06T13:33:45Z</time>
      </trkpt>
      <trkpt lat="44.51773" lon="6.81544">
        <ele>2044.38</ele>
        <time>2015-04-06T13:33:48Z</time>
      </trkpt>
      <trkpt lat="44.51782" lon="6.81538">
        <ele>2042.94</ele>
        <time>2015-04-06T13:33:50Z</time>
      </trkpt>
      <trkpt lat="44.51788" lon="6.81535">
        <ele>2042.46</ele>
        <time>2015-04-06T13:33:51Z</time>
      </trkpt>
      <trkpt lat="44.51792" lon="6.81531">
        <ele>2041.5</ele>
        <time>2015-04-06T13:33:52Z</time>
      </trkpt>
      <trkpt lat="44.51795" lon="6.81526">
        <ele>2041.5</ele>
        <time>2015-04-06T13:33:53Z</time>
      </trkpt>
      <trkpt lat="44.51797" lon="6.8152">
        <ele>2041.5</ele>
        <time>2015-04-06T13:33:54Z</time>
      </trkpt>
      <trkpt lat="44.51802" lon="6.81507">
        <ele>2039.57</ele>
        <time>2015-04-06T13:33:56Z</time>
      </trkpt>
      <trkpt lat="44.51805" lon="6.81501">
        <ele>2038.61</ele>
        <time>2015-04-06T13:33:57Z</time>
      </trkpt>
      <trkpt lat="44.51808" lon="6.81494">
        <ele>2038.13</ele>
        <time>2015-04-06T13:33:58Z</time>
      </trkpt>
      <trkpt lat="44.51811" lon="6.81487">
        <ele>2037.17</ele>
        <time>2015-04-06T13:33:59Z</time>
      </trkpt>
      <trkpt lat="44.51814" lon="6.81481">
        <ele>2036.21</ele>
        <time>2015-04-06T13:34:00Z</time>
      </trkpt>
      <trkpt lat="44.51816" lon="6.81475">
        <ele>2035.25</ele>
        <time>2015-04-06T13:34:01Z</time>
      </trkpt>
      <trkpt lat="44.51819" lon="6.81469">
        <ele>2035.25</ele>
        <time>2015-04-06T13:34:02Z</time>
      </trkpt>
      <trkpt lat="44.51823" lon="6.81463">
        <ele>2034.29</ele>
        <time>2015-04-06T13:34:03Z</time>
      </trkpt>
      <trkpt lat="44.51826" lon="6.81458">
        <ele>2033.33</ele>
        <time>2015-04-06T13:34:04Z</time>
      </trkpt>
      <trkpt lat="44.51833" lon="6.81445">
        <ele>2030.92</ele>
        <time>2015-04-06T13:34:06Z</time>
      </trkpt>
      <trkpt lat="44.51848" lon="6.81406">
        <ele>2027.56</ele>
        <time>2015-04-06T13:34:11Z</time>
      </trkpt>
      <trkpt lat="44.51851" lon="6.81399">
        <ele>2027.56</ele>
        <time>2015-04-06T13:34:12Z</time>
      </trkpt>
      <trkpt lat="44.51854" lon="6.81392">
        <ele>2026.12</ele>
        <time>2015-04-06T13:34:13Z</time>
      </trkpt>
      <trkpt lat="44.51858" lon="6.81386">
        <ele>2025.64</ele>
        <time>2015-04-06T13:34:14Z</time>
      </trkpt>
      <trkpt lat="44.51864" lon="6.81378">
        <ele>2023.71</ele>
        <time>2015-04-06T13:34:15Z</time>
      </trkpt>
      <trkpt lat="44.5187" lon="6.81369">
        <ele>2021.79</ele>
        <time>2015-04-06T13:34:17Z</time>
      </trkpt>
      <trkpt lat="44.51875" lon="6.81362">
        <ele>2021.79</ele>
        <time>2015-04-06T13:34:18Z</time>
      </trkpt>
      <trkpt lat="44.51879" lon="6.81356">
        <ele>2020.83</ele>
        <time>2015-04-06T13:34:19Z</time>
      </trkpt>
      <trkpt lat="44.51883" lon="6.81349">
        <ele>2020.35</ele>
        <time>2015-04-06T13:34:20Z</time>
      </trkpt>
      <trkpt lat="44.51886" lon="6.81343">
        <ele>2019.39</ele>
        <time>2015-04-06T13:34:21Z</time>
      </trkpt>
      <trkpt lat="44.51906" lon="6.81308">
        <ele>2016.02</ele>
        <time>2015-04-06T13:34:26Z</time>
      </trkpt>
      <trkpt lat="44.5191" lon="6.813">
        <ele>2015.54</ele>
        <time>2015-04-06T13:34:27Z</time>
      </trkpt>
      <trkpt lat="44.51934" lon="6.81246">
        <ele>2014.58</ele>
        <time>2015-04-06T13:34:37Z</time>
      </trkpt>
      <trkpt lat="44.51963" lon="6.81211">
        <ele>2012.66</ele>
        <time>2015-04-06T13:34:49Z</time>
      </trkpt>
      <trkpt lat="44.51986" lon="6.81174">
        <ele>2010.73</ele>
        <time>2015-04-06T13:34:59Z</time>
      </trkpt>
      <trkpt lat="44.52002" lon="6.81152">
        <ele>2009.77</ele>
        <time>2015-04-06T13:35:04Z</time>
      </trkpt>
      <trkpt lat="44.52012" lon="6.81145">
        <ele>2008.33</ele>
        <time>2015-04-06T13:35:06Z</time>
      </trkpt>
      <trkpt lat="44.52034" lon="6.81122">
        <ele>2005.93</ele>
        <time>2015-04-06T13:35:14Z</time>
      </trkpt>
      <trkpt lat="44.52036" lon="6.81118">
        <ele>2005.45</ele>
        <time>2015-04-06T13:35:17Z</time>
      </trkpt>
      <trkpt lat="44.52038" lon="6.81115">
        <ele>2004.97</ele>
        <time>2015-04-06T13:35:18Z</time>
      </trkpt>
      <trkpt lat="44.5204" lon="6.81112">
        <ele>2004.49</ele>
        <time>2015-04-06T13:35:19Z</time>
      </trkpt>
      <trkpt lat="44.52043" lon="6.81108">
        <ele>2004.01</ele>
        <time>2015-04-06T13:35:20Z</time>
      </trkpt>
      <trkpt lat="44.52046" lon="6.81105">
        <ele>2004.01</ele>
        <time>2015-04-06T13:35:21Z</time>
      </trkpt>
      <trkpt lat="44.52049" lon="6.81102">
        <ele>2004.01</ele>
        <time>2015-04-06T13:35:22Z</time>
      </trkpt>
      <trkpt lat="44.52054" lon="6.81098">
        <ele>2003.04</ele>
        <time>2015-04-06T13:35:24Z</time>
      </trkpt>
      <trkpt lat="44.52058" lon="6.81098">
        <ele>2002.08</ele>
        <time>2015-04-06T13:35:26Z</time>
      </trkpt>
      <trkpt lat="44.52061" lon="6.81096">
        <ele>2001.6</ele>
        <time>2015-04-06T13:35:27Z</time>
      </trkpt>
      <trkpt lat="44.52065" lon="6.81093">
        <ele>2001.12</ele>
        <time>2015-04-06T13:35:28Z</time>
      </trkpt>
      <trkpt lat="44.52069" lon="6.81089">
        <ele>2000.16</ele>
        <time>2015-04-06T13:35:29Z</time>
      </trkpt>
      <trkpt lat="44.52073" lon="6.81085">
        <ele>1999.68</ele>
        <time>2015-04-06T13:35:30Z</time>
      </trkpt>
      <trkpt lat="44.52077" lon="6.8108">
        <ele>1998.72</ele>
        <time>2015-04-06T13:35:31Z</time>
      </trkpt>
      <trkpt lat="44.52085" lon="6.81072">
        <ele>1996.8</ele>
        <time>2015-04-06T13:35:33Z</time>
      </trkpt>
      <trkpt lat="44.52088" lon="6.81066">
        <ele>1995.83</ele>
        <time>2015-04-06T13:35:34Z</time>
      </trkpt>
      <trkpt lat="44.52091" lon="6.81062">
        <ele>1995.35</ele>
        <time>2015-04-06T13:35:35Z</time>
      </trkpt>
      <trkpt lat="44.52094" lon="6.81058">
        <ele>1993.91</ele>
        <time>2015-04-06T13:35:36Z</time>
      </trkpt>
      <trkpt lat="44.52097" lon="6.81053">
        <ele>1993.43</ele>
        <time>2015-04-06T13:35:37Z</time>
      </trkpt>
      <trkpt lat="44.52101" lon="6.81049">
        <ele>1992.47</ele>
        <time>2015-04-06T13:35:38Z</time>
      </trkpt>
      <trkpt lat="44.52106" lon="6.81047">
        <ele>1991.51</ele>
        <time>2015-04-06T13:35:39Z</time>
      </trkpt>
      <trkpt lat="44.5211" lon="6.81044">
        <ele>1990.55</ele>
        <time>2015-04-06T13:35:40Z</time>
      </trkpt>
      <trkpt lat="44.5212" lon="6.81037">
        <ele>1989.1</ele>
        <time>2015-04-06T13:35:42Z</time>
      </trkpt>
      <trkpt lat="44.52123" lon="6.81033">
        <ele>1988.62</ele>
        <time>2015-04-06T13:35:43Z</time>
      </trkpt>
      <trkpt lat="44.52127" lon="6.81028">
        <ele>1987.66</ele>
        <time>2015-04-06T13:35:44Z</time>
      </trkpt>
      <trkpt lat="44.5214" lon="6.81005">
        <ele>1984.78</ele>
        <time>2015-04-06T13:35:48Z</time>
      </trkpt>
      <trkpt lat="44.52143" lon="6.80998">
        <ele>1983.34</ele>
        <time>2015-04-06T13:35:49Z</time>
      </trkpt>
      <trkpt lat="44.52147" lon="6.80992">
        <ele>1982.86</ele>
        <time>2015-04-06T13:35:50Z</time>
      </trkpt>
      <trkpt lat="44.5215" lon="6.80987">
        <ele>1981.9</ele>
        <time>2015-04-06T13:35:51Z</time>
      </trkpt>
      <trkpt lat="44.52153" lon="6.80982">
        <ele>1980.93</ele>
        <time>2015-04-06T13:35:52Z</time>
      </trkpt>
      <trkpt lat="44.52156" lon="6.80976">
        <ele>1980.45</ele>
        <time>2015-04-06T13:35:53Z</time>
      </trkpt>
      <trkpt lat="44.52159" lon="6.80969">
        <ele>1979.97</ele>
        <time>2015-04-06T13:35:54Z</time>
      </trkpt>
      <trkpt lat="44.52163" lon="6.80964">
        <ele>1979.01</ele>
        <time>2015-04-06T13:35:55Z</time>
      </trkpt>
      <trkpt lat="44.52165" lon="6.80959">
        <ele>1978.05</ele>
        <time>2015-04-06T13:35:56Z</time>
      </trkpt>
      <trkpt lat="44.52167" lon="6.80955">
        <ele>1977.57</ele>
        <time>2015-04-06T13:35:57Z</time>
      </trkpt>
      <trkpt lat="44.52167" lon="6.8095">
        <ele>1976.61</ele>
        <time>2015-04-06T13:35:58Z</time>
      </trkpt>
      <trkpt lat="44.52168" lon="6.80948">
        <ele>1976.61</ele>
        <time>2015-04-06T13:35:59Z</time>
      </trkpt>
      <trkpt lat="44.52169" lon="6.80944">
        <ele>1977.09</ele>
        <time>2015-04-06T13:36:16Z</time>
      </trkpt>
      <trkpt lat="44.5217" lon="6.80942">
        <ele>1977.09</ele>
        <time>2015-04-06T13:36:17Z</time>
      </trkpt>
      <trkpt lat="44.52171" lon="6.8094">
        <ele>1976.61</ele>
        <time>2015-04-06T13:36:18Z</time>
      </trkpt>
      <trkpt lat="44.52172" lon="6.80938">
        <ele>1976.61</ele>
        <time>2015-04-06T13:36:19Z</time>
      </trkpt>
      <trkpt lat="44.52174" lon="6.80934">
        <ele>1975.65</ele>
        <time>2015-04-06T13:36:20Z</time>
      </trkpt>
      <trkpt lat="44.52177" lon="6.8093">
        <ele>1976.13</ele>
        <time>2015-04-06T13:36:21Z</time>
      </trkpt>
      <trkpt lat="44.52183" lon="6.80921">
        <ele>1974.69</ele>
        <time>2015-04-06T13:36:23Z</time>
      </trkpt>
      <trkpt lat="44.52186" lon="6.80916">
        <ele>1974.2</ele>
        <time>2015-04-06T13:36:24Z</time>
      </trkpt>
      <trkpt lat="44.52189" lon="6.80911">
        <ele>1974.2</ele>
        <time>2015-04-06T13:36:25Z</time>
      </trkpt>
      <trkpt lat="44.52192" lon="6.80905">
        <ele>1972.76</ele>
        <time>2015-04-06T13:36:26Z</time>
      </trkpt>
      <trkpt lat="44.52194" lon="6.809">
        <ele>1971.8</ele>
        <time>2015-04-06T13:36:27Z</time>
      </trkpt>
      <trkpt lat="44.52196" lon="6.80894">
        <ele>1970.84</ele>
        <time>2015-04-06T13:36:28Z</time>
      </trkpt>
      <trkpt lat="44.52198" lon="6.80888">
        <ele>1970.84</ele>
        <time>2015-04-06T13:36:29Z</time>
      </trkpt>
      <trkpt lat="44.522" lon="6.80883">
        <ele>1969.88</ele>
        <time>2015-04-06T13:36:30Z</time>
      </trkpt>
      <trkpt lat="44.52201" lon="6.80878">
        <ele>1969.88</ele>
        <time>2015-04-06T13:36:31Z</time>
      </trkpt>
      <trkpt lat="44.52202" lon="6.80872">
        <ele>1968.92</ele>
        <time>2015-04-06T13:36:32Z</time>
      </trkpt>
      <trkpt lat="44.52204" lon="6.80867">
        <ele>1968.44</ele>
        <time>2015-04-06T13:36:33Z</time>
      </trkpt>
      <trkpt lat="44.52206" lon="6.80861">
        <ele>1967.96</ele>
        <time>2015-04-06T13:36:34Z</time>
      </trkpt>
      <trkpt lat="44.52208" lon="6.80855">
        <ele>1966.99</ele>
        <time>2015-04-06T13:36:35Z</time>
      </trkpt>
      <trkpt lat="44.5221" lon="6.80849">
        <ele>1966.51</ele>
        <time>2015-04-06T13:36:36Z</time>
      </trkpt>
      <trkpt lat="44.52212" lon="6.80843">
        <ele>1965.55</ele>
        <time>2015-04-06T13:36:37Z</time>
      </trkpt>
      <trkpt lat="44.52215" lon="6.80838">
        <ele>1965.55</ele>
        <time>2015-04-06T13:36:38Z</time>
      </trkpt>
      <trkpt lat="44.52217" lon="6.80832">
        <ele>1964.59</ele>
        <time>2015-04-06T13:36:39Z</time>
      </trkpt>
      <trkpt lat="44.52219" lon="6.80826">
        <ele>1964.11</ele>
        <time>2015-04-06T13:36:40Z</time>
      </trkpt>
      <trkpt lat="44.52222" lon="6.8082">
        <ele>1963.15</ele>
        <time>2015-04-06T13:36:41Z</time>
      </trkpt>
      <trkpt lat="44.52223" lon="6.80814">
        <ele>1962.19</ele>
        <time>2015-04-06T13:36:42Z</time>
      </trkpt>
      <trkpt lat="44.52223" lon="6.80808">
        <ele>1962.19</ele>
        <time>2015-04-06T13:36:43Z</time>
      </trkpt>
      <trkpt lat="44.52222" lon="6.80802">
        <ele>1961.71</ele>
        <time>2015-04-06T13:36:44Z</time>
      </trkpt>
      <trkpt lat="44.52222" lon="6.80795">
        <ele>1961.23</ele>
        <time>2015-04-06T13:36:45Z</time>
      </trkpt>
      <trkpt lat="44.52223" lon="6.80789">
        <ele>1960.27</ele>
        <time>2015-04-06T13:36:46Z</time>
      </trkpt>
      <trkpt lat="44.52226" lon="6.80783">
        <ele>1959.78</ele>
        <time>2015-04-06T13:36:47Z</time>
      </trkpt>
      <trkpt lat="44.52229" lon="6.80777">
        <ele>1958.82</ele>
        <time>2015-04-06T13:36:48Z</time>
      </trkpt>
      <trkpt lat="44.52234" lon="6.80772">
        <ele>1957.86</ele>
        <time>2015-04-06T13:36:49Z</time>
      </trkpt>
      <trkpt lat="44.52234" lon="6.80765">
        <ele>1957.86</ele>
        <time>2015-04-06T13:36:50Z</time>
      </trkpt>
      <trkpt lat="44.52236" lon="6.8076">
        <ele>1957.38</ele>
        <time>2015-04-06T13:36:51Z</time>
      </trkpt>
      <trkpt lat="44.52239" lon="6.80757">
        <ele>1956.9</ele>
        <time>2015-04-06T13:36:52Z</time>
      </trkpt>
      <trkpt lat="44.52255" lon="6.80738">
        <ele>1954.98</ele>
        <time>2015-04-06T13:36:56Z</time>
      </trkpt>
      <trkpt lat="44.52275" lon="6.80716">
        <ele>1952.09</ele>
        <time>2015-04-06T13:37:00Z</time>
      </trkpt>
      <trkpt lat="44.52286" lon="6.80701">
        <ele>1950.65</ele>
        <time>2015-04-06T13:37:02Z</time>
      </trkpt>
      <trkpt lat="44.52312" lon="6.80673">
        <ele>1947.29</ele>
        <time>2015-04-06T13:37:08Z</time>
      </trkpt>
      <trkpt lat="44.52321" lon="6.80665">
        <ele>1946.33</ele>
        <time>2015-04-06T13:37:10Z</time>
      </trkpt>
      <trkpt lat="44.52333" lon="6.80649">
        <ele>1944.4</ele>
        <time>2015-04-06T13:37:15Z</time>
      </trkpt>
      <trkpt lat="44.52355" lon="6.80622">
        <ele>1942.48</ele>
        <time>2015-04-06T13:37:30Z</time>
      </trkpt>
      <trkpt lat="44.52359" lon="6.80614">
        <ele>1942.48</ele>
        <time>2015-04-06T13:37:32Z</time>
      </trkpt>
      <trkpt lat="44.52368" lon="6.80602">
        <ele>1940.56</ele>
        <time>2015-04-06T13:37:35Z</time>
      </trkpt>
      <trkpt lat="44.52372" lon="6.80602">
        <ele>1939.6</ele>
        <time>2015-04-06T13:37:36Z</time>
      </trkpt>
      <trkpt lat="44.52409" lon="6.80596">
        <ele>1936.23</ele>
        <time>2015-04-06T13:37:47Z</time>
      </trkpt>
      <trkpt lat="44.5242" lon="6.80592">
        <ele>1935.27</ele>
        <time>2015-04-06T13:37:50Z</time>
      </trkpt>
      <trkpt lat="44.52445" lon="6.80573">
        <ele>1931.91</ele>
        <time>2015-04-06T13:37:57Z</time>
      </trkpt>
      <trkpt lat="44.52448" lon="6.80567">
        <ele>1930.95</ele>
        <time>2015-04-06T13:37:59Z</time>
      </trkpt>
      <trkpt lat="44.5246" lon="6.80546">
        <ele>1928.06</ele>
        <time>2015-04-06T13:38:05Z</time>
      </trkpt>
      <trkpt lat="44.5246" lon="6.80542">
        <ele>1928.06</ele>
        <time>2015-04-06T13:38:06Z</time>
      </trkpt>
      <trkpt lat="44.52462" lon="6.80538">
        <ele>1928.06</ele>
        <time>2015-04-06T13:38:07Z</time>
      </trkpt>
      <trkpt lat="44.52468" lon="6.80533">
        <ele>1926.14</ele>
        <time>2015-04-06T13:38:11Z</time>
      </trkpt>
      <trkpt lat="44.52482" lon="6.80498">
        <ele>1923.25</ele>
        <time>2015-04-06T13:38:20Z</time>
      </trkpt>
      <trkpt lat="44.52483" lon="6.80493">
        <ele>1922.77</ele>
        <time>2015-04-06T13:38:21Z</time>
      </trkpt>
      <trkpt lat="44.52484" lon="6.80483">
        <ele>1921.81</ele>
        <time>2015-04-06T13:38:23Z</time>
      </trkpt>
      <trkpt lat="44.52484" lon="6.80478">
        <ele>1921.33</ele>
        <time>2015-04-06T13:38:24Z</time>
      </trkpt>
      <trkpt lat="44.52478" lon="6.80464">
        <ele>1920.85</ele>
        <time>2015-04-06T13:38:29Z</time>
      </trkpt>
      <trkpt lat="44.52481" lon="6.80458">
        <ele>1919.89</ele>
        <time>2015-04-06T13:38:32Z</time>
      </trkpt>
      <trkpt lat="44.52481" lon="6.80447">
        <ele>1919.41</ele>
        <time>2015-04-06T13:38:39Z</time>
      </trkpt>
      <trkpt lat="44.52489" lon="6.80433">
        <ele>1917.49</ele>
        <time>2015-04-06T13:38:47Z</time>
      </trkpt>
      <trkpt lat="44.52486" lon="6.80417">
        <ele>1916.53</ele>
        <time>2015-04-06T13:38:51Z</time>
      </trkpt>
      <trkpt lat="44.52488" lon="6.80412">
        <ele>1914.6</ele>
        <time>2015-04-06T13:38:55Z</time>
      </trkpt>
      <trkpt lat="44.52489" lon="6.80411">
        <ele>1915.08</ele>
        <time>2015-04-06T13:38:57Z</time>
      </trkpt>
      <trkpt lat="44.52501" lon="6.8042">
        <ele>1912.68</ele>
        <time>2015-04-06T13:39:02Z</time>
      </trkpt>
      <trkpt lat="44.52503" lon="6.80423">
        <ele>1911.72</ele>
        <time>2015-04-06T13:39:03Z</time>
      </trkpt>
      <trkpt lat="44.52511" lon="6.80431">
        <ele>1908.83</ele>
        <time>2015-04-06T13:39:07Z</time>
      </trkpt>
      <trkpt lat="44.52513" lon="6.80436">
        <ele>1908.35</ele>
        <time>2015-04-06T13:39:09Z</time>
      </trkpt>
      <trkpt lat="44.5252" lon="6.80426">
        <ele>1905.95</ele>
        <time>2015-04-06T13:39:14Z</time>
      </trkpt>
      <trkpt lat="44.52522" lon="6.80425">
        <ele>1904.51</ele>
        <time>2015-04-06T13:39:15Z</time>
      </trkpt>
      <trkpt lat="44.52525" lon="6.80424">
        <ele>1902.59</ele>
        <time>2015-04-06T13:39:16Z</time>
      </trkpt>
      <trkpt lat="44.52527" lon="6.80401">
        <ele>1898.26</ele>
        <time>2015-04-06T13:39:21Z</time>
      </trkpt>
      <trkpt lat="44.52526" lon="6.80389">
        <ele>1897.3</ele>
        <time>2015-04-06T13:39:23Z</time>
      </trkpt>
      <trkpt lat="44.52523" lon="6.80369">
        <ele>1895.86</ele>
        <time>2015-04-06T13:39:27Z</time>
      </trkpt>
      <trkpt lat="44.52524" lon="6.80352">
        <ele>1893.45</ele>
        <time>2015-04-06T13:39:32Z</time>
      </trkpt>
      <trkpt lat="44.52529" lon="6.80349">
        <ele>1890.09</ele>
        <time>2015-04-06T13:39:34Z</time>
      </trkpt>
      <trkpt lat="44.52531" lon="6.80351">
        <ele>1889.61</ele>
        <time>2015-04-06T13:39:35Z</time>
      </trkpt>
      <trkpt lat="44.52532" lon="6.80353">
        <ele>1889.61</ele>
        <time>2015-04-06T13:39:36Z</time>
      </trkpt>
      <trkpt lat="44.52534" lon="6.80355">
        <ele>1889.61</ele>
        <time>2015-04-06T13:39:37Z</time>
      </trkpt>
      <trkpt lat="44.52537" lon="6.80357">
        <ele>1889.13</ele>
        <time>2015-04-06T13:39:38Z</time>
      </trkpt>
      <trkpt lat="44.5254" lon="6.80361">
        <ele>1888.17</ele>
        <time>2015-04-06T13:39:39Z</time>
      </trkpt>
      <trkpt lat="44.52543" lon="6.80364">
        <ele>1888.17</ele>
        <time>2015-04-06T13:39:40Z</time>
      </trkpt>
      <trkpt lat="44.52548" lon="6.80367">
        <ele>1888.17</ele>
        <time>2015-04-06T13:39:51Z</time>
      </trkpt>
      <trkpt lat="44.52547" lon="6.80368">
        <ele>1888.17</ele>
        <time>2015-04-06T13:40:09Z</time>
      </trkpt>
      <trkpt lat="44.52545" lon="6.80362">
        <ele>1888.17</ele>
        <time>2015-04-06T13:40:29Z</time>
      </trkpt>
      <trkpt lat="44.52546" lon="6.80366">
        <ele>1888.17</ele>
        <time>2015-04-06T13:40:46Z</time>
      </trkpt>
      <trkpt lat="44.52546" lon="6.80367">
        <ele>1888.17</ele>
        <time>2015-04-06T13:41:00Z</time>
      </trkpt>
      <trkpt lat="44.52546" lon="6.80365">
        <ele>1888.17</ele>
        <time>2015-04-06T13:41:29Z</time>
      </trkpt>
      <trkpt lat="44.52549" lon="6.80369">
        <ele>1888.17</ele>
        <time>2015-04-06T13:41:47Z</time>
      </trkpt>
      <trkpt lat="44.52545" lon="6.80369">
        <ele>1888.17</ele>
        <time>2015-04-06T13:42:12Z</time>
      </trkpt>
      <trkpt lat="44.52548" lon="6.80372">
        <ele>1888.65</ele>
        <time>2015-04-06T13:42:28Z</time>
      </trkpt>
      <trkpt lat="44.52547" lon="6.80371">
        <ele>1886.72</ele>
        <time>2015-04-06T13:42:39Z</time>
      </trkpt>
      <trkpt lat="44.52547" lon="6.80373">
        <ele>1888.65</ele>
        <time>2015-04-06T13:42:43Z</time>
      </trkpt>
      <trkpt lat="44.52546" lon="6.80371">
        <ele>1887.69</ele>
        <time>2015-04-06T13:42:49Z</time>
      </trkpt>
      <trkpt lat="44.52548" lon="6.80366">
        <ele>1887.69</ele>
        <time>2015-04-06T13:43:16Z</time>
      </trkpt>
      <trkpt lat="44.52549" lon="6.80366">
        <ele>1887.69</ele>
        <time>2015-04-06T13:43:32Z</time>
      </trkpt>
      <trkpt lat="44.52549" lon="6.80368">
        <ele>1888.65</ele>
        <time>2015-04-06T13:43:36Z</time>
      </trkpt>
      <trkpt lat="44.52549" lon="6.80364">
        <ele>1888.65</ele>
        <time>2015-04-06T13:43:56Z</time>
      </trkpt>
      <trkpt lat="44.5255" lon="6.8037">
        <ele>1889.13</ele>
        <time>2015-04-06T13:44:10Z</time>
      </trkpt>
      <trkpt lat="44.5255" lon="6.80376">
        <ele>1889.13</ele>
        <time>2015-04-06T13:44:22Z</time>
      </trkpt>
      <trkpt lat="44.52552" lon="6.80375">
        <ele>1890.09</ele>
        <time>2015-04-06T13:44:27Z</time>
      </trkpt>
      <trkpt lat="44.5256" lon="6.80366">
        <ele>1890.09</ele>
        <time>2015-04-06T13:44:38Z</time>
      </trkpt>
      <trkpt lat="44.5257" lon="6.80359">
        <ele>1890.09</ele>
        <time>2015-04-06T13:44:51Z</time>
      </trkpt>
      <trkpt lat="44.52572" lon="6.80357">
        <ele>1890.09</ele>
        <time>2015-04-06T13:44:54Z</time>
      </trkpt>
      <trkpt lat="44.52574" lon="6.80349">
        <ele>1891.05</ele>
        <time>2015-04-06T13:45:05Z</time>
      </trkpt>
      <trkpt lat="44.52578" lon="6.80354">
        <ele>1892.97</ele>
        <time>2015-04-06T13:45:17Z</time>
      </trkpt>
      <trkpt lat="44.52583" lon="6.80357">
        <ele>1894.42</ele>
        <time>2015-04-06T13:45:29Z</time>
      </trkpt>
      <trkpt lat="44.52587" lon="6.8036">
        <ele>1895.86</ele>
        <time>2015-04-06T13:45:39Z</time>
      </trkpt>
      <trkpt lat="44.5259" lon="6.80363">
        <ele>1897.78</ele>
        <time>2015-04-06T13:45:53Z</time>
      </trkpt>
      <trkpt lat="44.52595" lon="6.80354">
        <ele>1899.22</ele>
        <time>2015-04-06T13:46:07Z</time>
      </trkpt>
      <trkpt lat="44.52596" lon="6.80346">
        <ele>1899.22</ele>
        <time>2015-04-06T13:46:16Z</time>
      </trkpt>
      <trkpt lat="44.52596" lon="6.80328">
        <ele>1900.66</ele>
        <time>2015-04-06T13:46:31Z</time>
      </trkpt>
      <trkpt lat="44.52598" lon="6.80313">
        <ele>1901.14</ele>
        <time>2015-04-06T13:46:44Z</time>
      </trkpt>
      <trkpt lat="44.52596" lon="6.80291">
        <ele>1899.7</ele>
        <time>2015-04-06T13:46:59Z</time>
      </trkpt>
      <trkpt lat="44.52596" lon="6.80289">
        <ele>1899.7</ele>
        <time>2015-04-06T13:47:00Z</time>
      </trkpt>
      <trkpt lat="44.52596" lon="6.80286">
        <ele>1899.7</ele>
        <time>2015-04-06T13:47:02Z</time>
      </trkpt>
      <trkpt lat="44.52595" lon="6.80283">
        <ele>1899.7</ele>
        <time>2015-04-06T13:47:04Z</time>
      </trkpt>
      <trkpt lat="44.52588" lon="6.80257">
        <ele>1899.22</ele>
        <time>2015-04-06T13:47:24Z</time>
      </trkpt>
      <trkpt lat="44.52586" lon="6.80248">
        <ele>1900.66</ele>
        <time>2015-04-06T13:47:30Z</time>
      </trkpt>
      <trkpt lat="44.52585" lon="6.8024">
        <ele>1900.66</ele>
        <time>2015-04-06T13:47:36Z</time>
      </trkpt>
      <trkpt lat="44.52576" lon="6.80222">
        <ele>1900.66</ele>
        <time>2015-04-06T13:47:50Z</time>
      </trkpt>
      <trkpt lat="44.52573" lon="6.80207">
        <ele>1899.22</ele>
        <time>2015-04-06T13:48:00Z</time>
      </trkpt>
      <trkpt lat="44.52569" lon="6.80187">
        <ele>1899.22</ele>
        <time>2015-04-06T13:48:15Z</time>
      </trkpt>
      <trkpt lat="44.52561" lon="6.8017">
        <ele>1898.74</ele>
        <time>2015-04-06T13:48:28Z</time>
      </trkpt>
      <trkpt lat="44.5256" lon="6.80169">
        <ele>1898.26</ele>
        <time>2015-04-06T13:48:30Z</time>
      </trkpt>
      <trkpt lat="44.52555" lon="6.80148">
        <ele>1897.3</ele>
        <time>2015-04-06T13:48:46Z</time>
      </trkpt>
      <trkpt lat="44.52555" lon="6.80138">
        <ele>1897.78</ele>
        <time>2015-04-06T13:48:52Z</time>
      </trkpt>
      <trkpt lat="44.52552" lon="6.80128">
        <ele>1895.86</ele>
        <time>2015-04-06T13:48:58Z</time>
      </trkpt>
      <trkpt lat="44.52551" lon="6.8012">
        <ele>1894.9</ele>
        <time>2015-04-06T13:49:03Z</time>
      </trkpt>
      <trkpt lat="44.5255" lon="6.80108">
        <ele>1894.42</ele>
        <time>2015-04-06T13:49:09Z</time>
      </trkpt>
      <trkpt lat="44.5255" lon="6.80101">
        <ele>1893.93</ele>
        <time>2015-04-06T13:49:13Z</time>
      </trkpt>
      <trkpt lat="44.52549" lon="6.80068">
        <ele>1893.45</ele>
        <time>2015-04-06T13:49:33Z</time>
      </trkpt>
      <trkpt lat="44.5255" lon="6.80057">
        <ele>1893.45</ele>
        <time>2015-04-06T13:49:40Z</time>
      </trkpt>
      <trkpt lat="44.5255" lon="6.80041">
        <ele>1893.45</ele>
        <time>2015-04-06T13:49:51Z</time>
      </trkpt>
      <trkpt lat="44.5255" lon="6.80037">
        <ele>1893.45</ele>
        <time>2015-04-06T13:49:53Z</time>
      </trkpt>
      <trkpt lat="44.5255" lon="6.80026">
        <ele>1893.45</ele>
        <time>2015-04-06T13:50:01Z</time>
      </trkpt>
      <trkpt lat="44.52547" lon="6.80012">
        <ele>1893.45</ele>
        <time>2015-04-06T13:50:11Z</time>
      </trkpt>
      <trkpt lat="44.52535" lon="6.80001">
        <ele>1893.45</ele>
        <time>2015-04-06T13:50:26Z</time>
      </trkpt>
      <trkpt lat="44.52534" lon="6.80002">
        <ele>1892.97</ele>
        <time>2015-04-06T13:50:37Z</time>
      </trkpt>
      <trkpt lat="44.52531" lon="6.80002">
        <ele>1892.97</ele>
        <time>2015-04-06T13:50:59Z</time>
      </trkpt>
      <trkpt lat="44.52531" lon="6.80002">
        <ele>1892.49</ele>
        <time>2015-04-06T13:51:21Z</time>
      </trkpt>
      <trkpt lat="44.52534" lon="6.79998">
        <ele>1892.49</ele>
        <time>2015-04-06T13:51:37Z</time>
      </trkpt>
      <trkpt lat="44.52536" lon="6.7999">
        <ele>1892.49</ele>
        <time>2015-04-06T13:51:43Z</time>
      </trkpt>
      <trkpt lat="44.52536" lon="6.79986">
        <ele>1892.49</ele>
        <time>2015-04-06T13:51:46Z</time>
      </trkpt>
      <trkpt lat="44.52538" lon="6.79974">
        <ele>1892.49</ele>
        <time>2015-04-06T13:51:54Z</time>
      </trkpt>
      <trkpt lat="44.52536" lon="6.79953">
        <ele>1892.49</ele>
        <time>2015-04-06T13:52:09Z</time>
      </trkpt>
      <trkpt lat="44.52533" lon="6.79932">
        <ele>1893.93</ele>
        <time>2015-04-06T13:52:24Z</time>
      </trkpt>
      <trkpt lat="44.5253" lon="6.79924">
        <ele>1893.93</ele>
        <time>2015-04-06T13:52:30Z</time>
      </trkpt>
      <trkpt lat="44.52529" lon="6.79922">
        <ele>1893.93</ele>
        <time>2015-04-06T13:52:32Z</time>
      </trkpt>
      <trkpt lat="44.52526" lon="6.79907">
        <ele>1894.42</ele>
        <time>2015-04-06T13:52:43Z</time>
      </trkpt>
      <trkpt lat="44.52522" lon="6.79885">
        <ele>1894.42</ele>
        <time>2015-04-06T13:52:58Z</time>
      </trkpt>
      <trkpt lat="44.52522" lon="6.79882">
        <ele>1892.97</ele>
        <time>2015-04-06T13:53:00Z</time>
      </trkpt>
      <trkpt lat="44.52521" lon="6.79877">
        <ele>1892.97</ele>
        <time>2015-04-06T13:53:04Z</time>
      </trkpt>
      <trkpt lat="44.52527" lon="6.79869">
        <ele>1892.97</ele>
        <time>2015-04-06T13:53:17Z</time>
      </trkpt>
      <trkpt lat="44.52526" lon="6.79867">
        <ele>1894.42</ele>
        <time>2015-04-06T13:53:27Z</time>
      </trkpt>
      <trkpt lat="44.52526" lon="6.79872">
        <ele>1892.97</ele>
        <time>2015-04-06T13:53:34Z</time>
      </trkpt>
      <trkpt lat="44.52519" lon="6.79886">
        <ele>1892.97</ele>
        <time>2015-04-06T13:54:07Z</time>
      </trkpt>
      <trkpt lat="44.52517" lon="6.79887">
        <ele>1892.97</ele>
        <time>2015-04-06T13:54:35Z</time>
      </trkpt>
      <trkpt lat="44.52512" lon="6.79891">
        <ele>1892.97</ele>
        <time>2015-04-06T13:55:02Z</time>
      </trkpt>
      <trkpt lat="44.52517" lon="6.79889">
        <ele>1893.45</ele>
        <time>2015-04-06T13:55:31Z</time>
      </trkpt>
      <trkpt lat="44.52519" lon="6.79897">
        <ele>1893.93</ele>
        <time>2015-04-06T13:55:54Z</time>
      </trkpt>
      <trkpt lat="44.52517" lon="6.79896">
        <ele>1893.45</ele>
        <time>2015-04-06T13:56:28Z</time>
      </trkpt>
      <trkpt lat="44.52516" lon="6.79891">
        <ele>1894.42</ele>
        <time>2015-04-06T13:56:47Z</time>
      </trkpt>
      <trkpt lat="44.52516" lon="6.79891">
        <ele>1890.09</ele>
        <time>2015-04-06T13:56:48Z</time>
      </trkpt>
      <trkpt lat="44.52516" lon="6.79891">
        <ele>1893.45</ele>
        <time>2015-04-06T13:56:49Z</time>
      </trkpt>
      <trkpt lat="44.52518" lon="6.79888">
        <ele>1892.49</ele>
        <time>2015-04-06T13:56:56Z</time>
      </trkpt>
      <trkpt lat="44.52518" lon="6.79887">
        <ele>1894.9</ele>
        <time>2015-04-06T13:57:13Z</time>
      </trkpt>
      <trkpt lat="44.52522" lon="6.79878">
        <ele>1898.26</ele>
        <time>2015-04-06T13:57:38Z</time>
      </trkpt>
      <trkpt lat="44.52518" lon="6.79875">
        <ele>1896.34</ele>
        <time>2015-04-06T13:57:52Z</time>
      </trkpt>
      <trkpt lat="44.52522" lon="6.79873">
        <ele>1897.3</ele>
        <time>2015-04-06T13:58:12Z</time>
      </trkpt>
      <trkpt lat="44.52532" lon="6.79871">
        <ele>1897.3</ele>
        <time>2015-04-06T13:58:42Z</time>
      </trkpt>
      <trkpt lat="44.52523" lon="6.79866">
        <ele>1896.34</ele>
        <time>2015-04-06T13:59:06Z</time>
      </trkpt>
      <trkpt lat="44.52529" lon="6.79857">
        <ele>1896.34</ele>
        <time>2015-04-06T13:59:31Z</time>
      </trkpt>
      <trkpt lat="44.52527" lon="6.79858">
        <ele>1896.34</ele>
        <time>2015-04-06T13:59:40Z</time>
      </trkpt>
      <trkpt lat="44.52521" lon="6.79895">
        <ele>1893.93</ele>
        <time>2015-04-06T14:03:01Z</time>
      </trkpt>
      <trkpt lat="44.5252" lon="6.79871">
        <ele>1892.97</ele>
        <time>2015-04-06T14:03:15Z</time>
      </trkpt>
      <trkpt lat="44.52522" lon="6.79871">
        <ele>1893.93</ele>
        <time>2015-04-06T14:03:27Z</time>
      </trkpt>
      <trkpt lat="44.52521" lon="6.79876">
        <ele>1894.42</ele>
        <time>2015-04-06T14:03:43Z</time>
      </trkpt>
      <trkpt lat="44.52526" lon="6.79884">
        <ele>1894.42</ele>
        <time>2015-04-06T14:04:15Z</time>
      </trkpt>
      <trkpt lat="44.5252" lon="6.79895">
        <ele>1894.9</ele>
        <time>2015-04-06T14:04:43Z</time>
      </trkpt>
      <trkpt lat="44.52521" lon="6.79875">
        <ele>1893.93</ele>
        <time>2015-04-06T14:05:00Z</time>
      </trkpt>
      <trkpt lat="44.52519" lon="6.79873">
        <ele>1893.93</ele>
        <time>2015-04-06T14:05:01Z</time>
      </trkpt>
      <trkpt lat="44.52518" lon="6.79871">
        <ele>1893.93</ele>
        <time>2015-04-06T14:05:18Z</time>
      </trkpt>
      <trkpt lat="44.52518" lon="6.79879">
        <ele>1893.93</ele>
        <time>2015-04-06T14:05:30Z</time>
      </trkpt>
      <trkpt lat="44.52522" lon="6.7989">
        <ele>1893.93</ele>
        <time>2015-04-06T14:05:41Z</time>
      </trkpt>
      <trkpt lat="44.52525" lon="6.79907">
        <ele>1893.93</ele>
        <time>2015-04-06T14:05:54Z</time>
      </trkpt>
      <trkpt lat="44.52528" lon="6.79919">
        <ele>1895.38</ele>
        <time>2015-04-06T14:06:08Z</time>
      </trkpt>
      <trkpt lat="44.52528" lon="6.79921">
        <ele>1895.38</ele>
        <time>2015-04-06T14:06:29Z</time>
      </trkpt>
      <trkpt lat="44.52529" lon="6.79929">
        <ele>1895.38</ele>
        <time>2015-04-06T14:06:51Z</time>
      </trkpt>
      <trkpt lat="44.52532" lon="6.79947">
        <ele>1894.42</ele>
        <time>2015-04-06T14:07:04Z</time>
      </trkpt>
      <trkpt lat="44.52533" lon="6.7995">
        <ele>1894.42</ele>
        <time>2015-04-06T14:07:07Z</time>
      </trkpt>
      <trkpt lat="44.52536" lon="6.79973">
        <ele>1894.42</ele>
        <time>2015-04-06T14:07:22Z</time>
      </trkpt>
      <trkpt lat="44.52534" lon="6.79989">
        <ele>1894.42</ele>
        <time>2015-04-06T14:07:32Z</time>
      </trkpt>
      <trkpt lat="44.52535" lon="6.79997">
        <ele>1894.42</ele>
        <time>2015-04-06T14:07:45Z</time>
      </trkpt>
      <trkpt lat="44.52535" lon="6.80001">
        <ele>1893.93</ele>
        <time>2015-04-06T14:07:58Z</time>
      </trkpt>
      <trkpt lat="44.52534" lon="6.80002">
        <ele>1894.9</ele>
        <time>2015-04-06T14:08:11Z</time>
      </trkpt>
      <trkpt lat="44.52533" lon="6.80003">
        <ele>1894.42</ele>
        <time>2015-04-06T14:08:25Z</time>
      </trkpt>
    </trkseg>
  </trk>
</gpx>